[[{"header":{"parameterUnit":"m.s-1","parameterCategory":1,"la1":30.6,"la2":29.2853,"lo1":-89.7004,"lo2":-87.6739,"dy":0.0162,"dx":0.0183,"nx":112,"ny":82,"refTime":"2024-09-20T06:00:00:Z","depth":0,"parameterNumber":2,"parameterNumberName":"U-component_of_WINDS"},"data":[0.0,0.0,0.0,0.0,0.0,0.0,0.0,0.0,0.0,0.0,0.0,0.0,0.0,0.0,0.0,0.0,0.0,0.0,0.0,0.0,0.0,0.0,0.0,0.0,0.0,0.0,0.0,0.0,0.0,0.0,0.0,0.0,0.0,0.0,0.0,0.0,0.0,0.0,0.0,0.0,0.0,0.0,0.0,0.0,0.0,0.0,0.0,0.0,0.0,0.0,0.0,0.0,0.0,0.0,0.0,0.0,0.0,0.0,0.0,0.0,0.0,0.0,0.0,0.0,0.0,0.0,0.0,0.0,0.0,0.0,0.0,0.0,0.0,0.0,0.0,0.0,0.0,0.0,0.0,0.0,0.0,0.0,0.0,0.0,0.0,0.0,0.0,0.0,0.0,0.0,0.9122,0.937,0.994,1.0301,1.0301,0.9525,0.8939,0.8722,0.0,0.0,0.0,0.0,0.0,0.0,0.0,0.0,0.0,0.0,0.0,0.0,0.0,0.0,0.0,0.0,0.0,0.0,0.0,0.0,0.0,0.0,0.0,0.0,0.0,0.0,0.0,0.0,0.0,0.0,0.0,0.0,0.0,0.0,0.0,0.0,0.0,0.0,0.0,0.0,0.0,0.0,0.0,0.0,0.0,0.0,0.0,0.0,0.0,0.0,0.0,0.0,0.0,0.0,0.0,0.0,0.0,0.0,0.0,0.0,0.0,0.0,0.0,0.0,0.0,0.0,0.0,0.0,0.0,0.0,0.0,0.0,0.0,0.0,0.0,0.0,0.0,0.0,0.0,0.0,0.0,0.0,0.0,0.0,0.0,0.0,0.0,0.0,0.0,0.0,0.0,0.0,0.0,0.0,0.0,0.0,0.0,0.0,0.0,0.0,0.0,0.0,0.0,0.0,0.957,1.0601,1.0452,1.0301,1.0301,0.9357,0.8752,0.8695,0.0,0.0,0.0,0.0,0.0,0.0,0.0,0.0,0.0,0.0,0.0,0.0,0.0,0.0,0.0,0.0,0.0,0.0,0.0,0.0,0.0,0.0,0.0,0.0,0.0,0.0,0.0,0.0,0.0,0.0,0.0,0.0,0.0,0.0,0.0,0.0,0.0,0.0,0.0,0.0,0.0,0.0,0.0,0.0,0.0,0.0,0.0,0.0,0.0,0.0,0.0,0.0,0.0,0.0,0.0,0.0,0.0,0.0,0.0,0.0,0.0,0.0,0.0,0.0,0.0,0.0,0.0,0.0,0.0,0.0,0.0,0.0,0.0,0.0,0.0,0.0,0.0,0.0,0.0,0.0,0.0,0.0,0.0,0.0,0.0,0.0,0.0,0.0,0.0,0.0,0.0,0.0,0.0,0.0,0.0,0.0,0.0,0.0,0.0,0.0,0.0,0.0,0.0,0.9089,0.9578,1.0131,1.0253,1.0174,0.9894,0.9153,0.871,0.871,0.7529,0.0,0.0,0.0,0.0,0.0,0.0,0.0,0.0,0.0,0.0,0.0,0.0,0.0,0.0,0.0,0.0,0.0,0.0,0.0,0.0,0.0,0.0,0.0,0.0,0.0,0.0,0.0,0.0,0.0,0.0,0.0,0.0,0.0,0.0,0.0,0.0,0.0,0.0,0.0,0.0,0.0,0.0,0.0,0.0,0.0,0.0,0.0,0.0,0.0,0.0,0.0,0.0,0.0,0.0,0.0,0.0,0.0,0.0,0.0,0.0,0.0,0.0,0.0,0.0,0.0,0.0,0.0,0.0,0.0,0.0,0.0,0.0,0.0,0.0,0.0,0.0,0.0,0.0,0.0,0.0,0.0,0.0,0.0,0.0,0.0,0.0,0.0,0.0,0.0,0.0,0.0,0.0,0.0,0.0,0.0,0.0,0.0,0.0,0.0,0.0,0.0,0.0,0.9286,0.9479,0.9388,0.9814,0.9942,0.9532,0.9002,0.871,0.871,0.7503,0.0,0.0,0.0,0.0,0.0,0.0,0.0,0.0,0.0,0.0,0.0,0.0,0.0,0.0,0.0,0.0,0.0,0.0,0.0,0.0,0.0,0.0,0.0,0.0,0.0,0.0,0.0,0.0,0.0,0.0,0.0,0.0,0.0,0.0,0.0,0.0,0.0,0.0,0.0,0.0,0.0,0.0,0.0,0.0,0.0,0.0,0.0,0.0,0.0,0.0,0.0,0.0,0.0,0.0,0.0,0.0,0.0,0.0,0.0,0.0,0.0,0.0,0.0,0.0,0.0,0.0,0.0,0.0,0.0,0.0,0.0,0.0,0.0,0.0,0.0,0.0,0.0,0.0,0.0,0.0,0.0,0.0,0.0,0.0,0.0,0.0,0.0,0.0,0.0,0.0,0.0,0.0,0.0,0.0,0.0,0.0,0.0,0.0,0.0,0.0,0.0,0.0,0.9032,0.9372,0.9065,0.935,0.9548,0.95,0.9002,0.871,0.871,0.7503,0.0,0.0,0.0,0.0,0.0,0.0,0.0,0.0,0.0,0.0,0.0,0.0,0.0,0.0,0.0,0.0,0.0,0.0,0.0,0.0,0.0,0.0,0.0,0.0,0.0,0.0,0.0,0.0,0.0,0.0,0.0,0.0,0.0,0.0,0.0,0.0,0.0,0.0,0.0,0.0,0.0,0.0,0.0,0.0,0.0,0.0,0.0,0.0,0.0,0.0,0.0,0.0,0.0,0.0,0.0,0.0,0.0,0.0,0.0,0.0,0.0,0.0,0.0,0.0,0.0,0.0,0.0,0.0,0.0,0.0,0.0,0.0,0.0,0.0,0.0,0.0,0.0,0.0,0.0,0.0,0.0,0.0,0.0,0.0,0.0,0.0,0.0,0.0,0.0,0.0,0.0,0.0,0.0,0.0,0.0,0.0,0.0,0.0,0.0,0.0,0.0,0.0,0.8974,0.9239,0.8737,0.9478,0.9702,0.8937,0.8615,0.8366,0.8151,0.0,0.0,0.0,0.0,0.0,0.0,0.0,0.0,0.0,0.0,0.0,0.0,0.0,0.0,0.0,0.0,0.0,0.0,0.0,0.0,0.0,0.0,0.0,0.0,0.0,0.0,0.0,0.0,0.0,0.0,0.0,0.0,0.0,0.0,0.0,0.0,0.0,0.0,0.0,0.0,0.0,0.0,0.0,0.0,0.0,0.0,0.0,0.0,0.0,0.0,0.0,0.0,0.0,0.0,0.0,0.0,0.0,0.0,0.0,0.0,0.0,0.0,0.0,0.0,0.0,0.0,0.0,0.0,0.0,0.0,0.0,0.0,0.0,0.0,0.0,0.0,0.0,0.0,0.0,0.0,0.0,0.0,0.0,0.0,0.0,0.0,0.0,0.0,0.0,0.0,0.0,0.0,0.0,0.0,0.0,0.0,0.0,0.0,0.0,0.0,0.0,0.0,0.8045,0.8696,0.8923,0.8398,0.9167,0.9372,0.8484,0.824,0.7995,0.7629,0.0,0.0,0.0,0.0,0.0,0.0,0.0,0.0,0.0,0.0,0.0,0.0,0.0,0.0,0.0,0.0,0.0,0.0,0.0,0.0,0.0,0.0,0.0,0.0,0.0,0.0,0.0,0.0,0.0,0.0,0.0,0.0,0.0,0.0,0.0,0.0,0.0,0.0,0.0,0.0,0.0,0.0,0.0,0.0,0.0,0.0,0.0,0.0,0.0,0.0,0.0,0.0,0.0,0.0,0.0,0.0,0.0,0.0,0.0,0.0,0.0,0.0,0.0,0.0,0.0,0.0,0.0,0.0,0.0,0.0,0.0,0.0,0.0,0.0,0.0,0.0,0.0,0.0,0.0,0.0,0.0,0.0,0.0,0.0,0.0,0.0,0.0,0.0,0.0,0.0,0.0,0.0,0.0,0.0,0.0,0.0,0.0,0.0,0.0,0.0,0.0,0.0,0.7642,0.8168,0.8366,0.8036,0.8301,0.8414,0.8198,0.7945,0.7625,0.0,0.0,0.0,0.0,0.0,0.0,0.0,0.0,0.0,0.0,0.0,0.0,0.0,0.0,0.0,0.0,0.0,0.0,0.0,0.0,0.0,0.0,0.0,0.0,0.0,0.0,0.0,0.0,0.0,0.0,0.0,0.0,0.0,0.0,0.0,0.0,0.0,0.0,0.0,0.0,0.0,0.0,0.0,0.0,0.0,0.0,0.0,0.0,0.0,0.0,0.0,0.0,0.0,0.0,0.0,0.0,0.0,0.0,0.0,0.0,0.0,0.0,0.0,0.0,0.0,0.0,0.0,0.0,0.0,0.0,0.0,0.0,0.0,0.0,0.0,0.0,0.0,0.0,0.0,0.0,0.0,0.0,0.0,0.0,0.0,0.0,0.0,0.0,0.0,0.0,0.0,0.0,0.0,0.0,0.0,0.0,0.0,0.0,0.0,0.0,0.0,0.0,0.0,0.7377,0.785,0.8019,0.7689,0.8149,0.8222,0.7549,0.7512,0.722,0.6543,0.0,0.0,0.0,0.0,0.0,0.0,0.0,0.0,0.0,0.0,0.0,0.0,0.0,0.0,0.0,0.0,0.0,0.0,0.0,0.0,0.0,0.0,0.0,0.0,0.0,0.0,0.0,0.0,0.0,0.0,0.0,0.0,0.0,0.0,0.0,0.0,0.0,0.0,0.0,0.0,0.0,0.0,0.0,0.0,0.0,0.0,0.0,0.0,0.0,0.0,0.0,0.0,0.0,0.0,0.0,0.0,0.0,0.0,0.0,0.0,0.0,0.0,0.0,0.0,0.0,0.0,0.0,0.0,0.0,0.0,0.0,0.0,0.0,0.0,0.0,0.0,0.0,0.0,0.0,0.0,0.0,0.0,0.0,0.0,0.0,0.0,0.0,0.0,0.0,0.0,0.0,0.0,0.0,0.0,0.0,0.0,0.0,0.0,0.0,0.0,0.0,0.0,0.7355,0.7638,0.7756,0.7629,0.7907,0.7853,0.7256,0.7178,0.689,0.6242,0.0,0.0,0.0,0.0,0.0,0.0,0.0,0.0,0.0,0.0,0.0,0.0,0.0,0.0,0.0,0.0,0.0,0.0,0.0,0.0,0.0,0.0,0.0,0.0,0.0,0.0,0.0,0.0,0.0,0.0,0.0,0.0,0.0,0.0,0.0,0.0,0.0,0.0,0.0,0.0,0.0,0.0,0.0,0.0,0.0,0.0,0.0,0.0,0.0,0.0,0.0,0.0,0.0,0.0,0.0,0.0,0.0,0.0,0.0,0.0,0.0,0.0,0.0,0.0,0.0,0.0,0.0,0.0,0.0,0.0,0.0,0.0,0.0,0.0,0.0,0.0,0.0,0.0,0.0,0.0,0.0,0.0,0.0,0.0,0.0,0.0,0.0,0.0,0.0,0.0,0.0,0.0,0.0,0.0,0.0,0.0,0.0,0.0,0.0,0.0,0.0,0.0,0.7449,0.7526,0.7574,0.7775,0.7622,0.7424,0.7224,0.6973,0.6651,0.6233,0.0,0.0,0.0,0.0,0.0,0.0,0.0,0.0,0.0,0.0,0.0,0.0,0.0,0.0,0.0,0.0,0.0,0.0,0.0,0.0,0.0,0.0,0.0,0.0,0.0,0.0,0.0,0.0,0.0,0.0,0.0,0.0,0.0,0.0,0.0,0.0,0.0,0.0,0.0,0.0,0.0,0.0,0.0,0.0,0.0,0.0,0.0,0.0,0.0,0.0,0.0,0.0,0.0,0.0,0.0,0.0,0.0,0.0,0.0,0.0,0.9643,0.0,0.0,0.0,0.0,0.0,0.0,0.0,0.0,0.0,0.0,0.0,0.0,0.0,0.0,0.0,0.0,0.0,0.0,0.0,0.0,0.0,0.0,0.0,0.0,0.0,0.0,0.0,0.0,0.0,0.0,0.0,0.0,0.0,0.0,0.0,0.0,0.0,0.0,0.0,0.0,0.0,0.7217,0.7413,0.7574,0.7775,0.7622,0.7424,0.7224,0.7147,0.6847,0.6243,0.5974,0.0,0.0,0.0,0.0,0.0,0.0,0.0,0.0,0.0,0.0,0.0,0.0,0.0,0.0,0.0,0.0,0.0,0.0,0.0,0.0,0.0,0.0,0.0,0.0,0.0,0.0,0.0,0.0,0.0,0.0,0.0,0.0,0.0,0.0,0.0,0.0,0.0,0.0,0.0,0.0,0.0,0.0,0.0,0.0,0.0,0.0,0.0,0.0,0.0,0.0,0.0,0.0,0.0,0.0,0.0,0.0,0.0,0.0,0.0,0.0,1.0168,0.0,0.0,0.0,0.0,0.0,0.0,0.0,0.0,0.0,0.0,0.0,0.0,0.0,0.0,0.0,0.0,0.0,0.0,0.0,0.0,0.0,0.0,0.0,0.0,0.0,0.0,0.0,0.0,0.0,0.0,0.0,0.0,0.0,0.0,0.0,0.0,0.0,0.0,0.0,0.0,0.74,0.7584,0.7726,0.7918,0.7773,0.756,0.7367,0.7262,0.7052,0.6695,0.6275,0.0,0.0,0.0,0.0,0.0,0.0,0.0,0.0,0.0,0.0,0.0,0.0,0.0,0.0,0.0,0.0,0.0,0.0,0.0,0.0,0.0,0.0,0.0,0.0,0.0,0.0,0.0,0.0,0.0,0.0,0.0,0.0,0.0,0.0,0.0,0.0,0.0,0.0,0.0,0.0,0.0,0.0,0.0,0.0,0.0,0.0,0.0,0.0,0.0,0.0,0.0,0.0,0.0,1.2331,1.2432,1.2798,1.2522,1.25,1.2639,1.1795,1.1341,1.1174,1.1056,0.0,0.0,0.0,0.0,0.0,0.0,0.0,0.0,0.0,0.0,0.0,0.0,0.0,0.0,0.0,0.0,0.0,0.0,0.0,0.0,0.0,0.0,0.0,0.0,0.7581,0.7484,0.0,0.0,0.0,0.0,0.0,0.0,0.0,0.0,0.0,0.0,0.0,0.0,0.7671,0.7828,0.7913,0.8079,0.7918,0.7726,0.7524,0.7353,0.7243,0.7205,0.6676,0.6285,0.0,0.0,0.0,0.0,0.0,0.0,0.0,0.0,0.0,0.0,0.0,0.0,0.0,0.0,0.0,0.0,0.0,0.0,0.0,0.0,0.0,0.0,0.0,0.0,0.0,0.0,0.0,0.0,0.0,0.0,0.0,0.0,1.0969,1.1871,0.0,0.0,0.0,0.0,0.0,0.0,0.0,0.0,0.0,0.0,0.0,0.0,0.0,1.2738,1.2746,1.3726,1.3816,1.302,1.4462,1.4614,1.3643,1.3884,1.4081,1.4173,1.3467,0.0,1.1821,1.1233,0.0,0.0,0.0,0.0,0.0,0.0,0.0,0.0,0.0,0.0,0.0,0.0,0.0,0.0,0.0,0.0,0.0,0.0,0.0,0.0,0.0,0.0,0.725,0.725,0.7132,0.7089,0.0,0.7088,0.6749,0.6516,0.6336,0.0,0.0,0.0,0.0,0.0,0.0,0.0,0.7709,0.7951,0.8069,0.8093,0.7918,0.7726,0.7524,0.7481,0.7391,0.7215,0.7114,0.6961,0.6694,0.6327,0.0,0.0,0.0,0.0,0.0,0.0,0.0,0.0,0.0,0.0,0.0,0.0,0.0,0.0,0.0,0.0,0.0,0.0,0.0,0.0,0.0,0.0,0.0,0.0,0.0,0.0,0.0,0.0,0.0,1.1439,1.2289,1.2353,1.2561,1.2388,0.0,0.0,0.0,0.0,0.0,0.0,0.0,0.0,0.0,1.3196,1.3802,1.4063,1.3895,1.4774,1.4943,1.4409,1.5182,1.5159,1.449,1.4628,1.4649,1.4602,1.431,1.388,1.3341,1.2476,1.1768,1.121,0.0,0.0,0.0,0.0,1.096,1.1182,1.1359,1.1399,0.0,1.0965,0.0,0.0,0.0,0.0,0.0,0.0,0.0,0.0,0.0,0.0,0.7812,0.7812,0.7844,0.7906,0.8084,0.7873,0.7528,0.0,0.7085,0.6942,0.646,0.0,0.0,0.0,0.0,0.7168,0.8037,0.8207,0.8259,0.8259,0.8184,0.8012,0.7698,0.7674,0.7584,0.7386,0.7267,0.7147,0.7031,0.6635,0.6276,0.0,0.0,0.0,0.0,0.0,0.0,0.0,0.0,0.0,0.0,0.0,0.0,0.0,0.0,0.0,0.0,0.0,0.0,0.0,0.0,0.0,0.0,0.0,0.0,0.0,0.0,0.0,0.0,1.3025,1.3603,1.2963,1.3425,1.3401,0.0,0.0,0.0,0.0,0.0,0.0,1.356,1.3794,1.4023,1.4305,1.4966,1.5183,1.4935,1.5515,1.5725,1.5575,1.5575,1.545,1.5178,1.5178,1.5068,1.4865,1.4796,1.4688,1.4533,1.354,1.2775,1.2214,1.2043,1.1913,1.1861,1.2085,1.2304,1.2482,1.2696,1.2792,1.2736,1.2127,1.1795,1.1332,0.9775,0.0,0.0,0.0,0.0,0.7997,0.7782,0.7983,0.8226,0.8226,0.8329,0.8472,0.8513,0.841,0.8175,0.0,0.7714,0.7564,0.6867,0.0,0.0,0.0,0.7156,0.7344,0.8148,0.83,0.831,0.8259,0.8254,0.811,0.7753,0.7725,0.7655,0.7514,0.7314,0.7202,0.7202,0.6812,0.6464,0.6152,0.0,0.0,0.0,0.0,0.0,0.0,0.0,0.0,0.0,0.0,0.0,0.0,0.0,0.0,0.0,0.0,0.0,0.0,0.0,0.0,0.0,0.0,0.0,0.0,0.0,0.0,0.0,0.0,0.0,1.4015,1.4686,0.0,0.0,0.0,0.0,1.3245,1.3935,1.4387,1.4433,1.5158,1.544,1.5147,1.5611,1.5853,1.5833,1.6008,1.6083,1.6054,1.6054,1.5923,1.566,1.566,1.5551,1.5344,1.5037,1.4898,1.4805,1.385,1.3444,1.3356,1.2716,1.2458,1.2477,1.2608,1.2878,1.3119,1.3015,1.282,1.267,1.3003,1.26,1.2056,1.2432,1.1895,0.0,0.0,0.9766,0.9463,0.8131,0.7906,0.802,0.802,0.8028,0.8078,0.8271,0.8308,0.8242,0.0,0.7867,0.7652,0.7482,0.0,0.7223,0.7451,0.7482,0.7557,0.7795,0.7989,0.8033,0.7843,0.7821,0.7742,0.7526,0.7509,0.7504,0.7495,0.7306,0.7197,0.7197,0.6816,0.659,0.6572,0.5996,0.0,0.0,0.0,0.0,0.0,0.0,0.0,0.0,0.0,0.0,0.0,0.0,0.0,0.0,0.0,0.0,0.0,0.0,0.0,0.0,0.0,0.0,0.0,0.0,0.0,0.0,0.0,0.0,1.5299,1.6099,0.0,1.4343,1.4363,1.4588,1.4828,1.5112,1.546,1.5896,1.6441,1.6688,1.6622,1.6781,1.6786,1.6616,1.6653,1.6514,1.6168,1.6168,1.5929,1.5506,1.5506,1.5465,1.5382,1.5133,1.5028,1.4999,1.4485,1.4127,1.3856,1.3626,1.3446,1.3369,1.3624,1.3698,1.366,1.3644,1.3471,1.3252,1.32,1.2655,1.1921,1.15,1.0789,0.9942,0.911,0.8871,0.8777,0.8421,0.8346,0.8391,0.8391,0.8391,0.8412,0.8481,0.8502,0.8449,0.8259,0.8256,0.8186,0.788,0.7791,0.783,0.7999,0.7931,0.7996,0.828,0.8297,0.8275,0.82,0.8071,0.7917,0.7701,0.7684,0.7636,0.7513,0.732,0.7206,0.7206,0.6857,0.6599,0.6467,0.5712,0.4833,0.0,0.0,0.0,0.0,0.0,0.0,0.0,0.0,0.0,0.0,0.0,0.0,0.0,0.0,0.0,0.0,0.0,0.0,0.0,0.0,0.0,0.0,0.0,0.0,0.0,1.6214,1.6713,1.5931,1.698,1.7229,1.5818,1.5823,1.614,1.6667,1.6413,1.6468,1.7035,1.7246,1.7355,1.74,1.7255,1.7079,1.6911,1.6823,1.6615,1.6269,1.6269,1.6072,1.5724,1.5639,1.5603,1.5575,1.5269,1.5134,1.5106,1.4825,1.4496,1.4205,1.4292,1.4232,1.4112,1.4274,1.4214,1.4077,1.4049,1.3912,1.3699,1.3194,1.2669,1.2065,1.1116,1.0455,0.9862,0.9067,0.8845,0.8794,0.8645,0.859,0.859,0.859,0.859,0.8568,0.8476,0.8472,0.8396,0.8212,0.8337,0.8383,0.8051,0.8042,0.8103,0.8187,0.8127,0.8145,0.8373,0.8316,0.8259,0.8259,0.8096,0.7938,0.7805,0.7677,0.756,0.75,0.7197,0.7065,0.7134,0.6793,0.6539,0.6406,0.5325,0.4306,0.3389,0.0,0.0,0.0,0.0,0.0,0.0,0.0,0.0,0.0,0.0,0.0,0.0,0.0,0.0,0.0,0.0,0.0,0.0,0.0,0.0,0.0,0.0,0.0,1.5113,1.673,1.7333,1.5988,1.7305,1.8018,1.7143,1.7341,1.7831,1.8611,1.7835,1.7453,1.7793,1.7562,1.7417,1.7417,1.6978,1.6743,1.6713,1.6536,1.6411,1.6426,1.6404,1.6404,1.6389,1.6109,1.5983,1.5961,1.5437,1.5195,1.5167,1.4845,1.4594,1.4447,1.4615,1.4699,1.465,1.4461,1.4398,1.4356,1.4117,1.4067,1.3891,1.2939,1.2662,1.2485,1.1515,1.1235,1.1068,1.0115,0.9859,0.9641,0.8806,0.859,0.859,0.859,0.859,0.8498,0.8245,0.8204,0.8142,0.7944,0.8119,0.8226,0.804,0.8008,0.8008,0.8008,0.8008,0.0,0.8008,0.8003,0.7999,0.7999,0.789,0.7808,0.78,0.7443,0.7291,0.7483,0.6994,0.68,0.7001,0.6615,0.6391,0.6346,0.4841,0.3633,0.2767,0.0,0.0,0.0,0.0,0.0,0.0,0.0,0.0,0.0,0.0,0.0,0.0,0.0,0.0,0.0,0.0,0.0,0.0,0.0,0.0,0.0,1.6062,1.6245,1.6162,1.7476,1.8451,1.847,1.9009,1.9179,1.8647,1.8067,1.781,1.8034,1.7844,1.7777,1.7863,1.7879,1.7812,1.7629,1.7498,1.733,1.7139,1.7085,1.6952,1.6763,1.6567,1.6339,1.6094,1.5835,1.5702,1.5702,1.5403,1.5265,1.5258,1.5014,1.487,1.4801,1.4569,1.4384,1.4271,1.4208,1.4187,1.4082,1.3349,1.3073,1.2918,1.1826,1.1574,1.1451,1.0171,1.0024,1.005,0.8982,0.8658,0.8614,0.8376,0.8208,0.8098,0.8098,0.8098,0.8076,0.8006,0.8061,0.8087,0.7923,0.8027,0.816,0.8153,0.8302,0.844,0.844,0.844,0.0,0.844,0.8317,0.8215,0.8215,0.8052,0.7914,0.7812,0.769,0.7544,0.7291,0.7051,0.6935,0.7006,0.6754,0.6135,0.5112,0.387,0.2831,0.0,0.0,0.0,0.0,0.0,0.0,0.0,0.0,0.0,0.0,0.0,0.0,0.0,0.0,0.0,0.0,0.0,0.0,0.0,0.0,0.0,0.0,1.7618,1.7738,1.7198,1.8536,1.9535,1.9394,1.9795,1.9907,1.9441,1.8898,1.8584,1.8673,1.8339,1.8101,1.8002,1.7957,1.7861,1.7698,1.7581,1.741,1.7176,1.7176,1.7035,1.6778,1.6624,1.6439,1.6239,1.5958,1.5844,1.5837,1.5493,1.5348,1.5318,1.4965,1.4822,0.0,0.0,0.0,0.0,0.0,1.3934,1.3849,1.3222,1.2747,1.2246,1.125,1.0762,1.0326,0.9164,0.9014,0.9086,0.8437,0.8234,0.8234,0.8234,0.8144,0.8057,0.8057,0.8057,0.8035,0.7921,0.7953,0.797,0.7807,0.7911,0.0,0.8001,0.8163,0.83,0.83,0.83,0.83,0.83,0.821,0.8121,0.8121,0.796,0.7794,0.7721,0.7517,0.0,0.0,0.0,0.6698,0.6698,0.6269,0.0,0.0,0.0,0.0,0.0,0.0,0.0,0.0,0.1851,0.1856,0.0,0.0,0.0,0.0,0.0,0.0,0.0,0.0,0.0,0.0,0.0,0.0,0.0,0.0,0.0,0.0,1.8599,1.8943,1.8691,2.0112,2.0687,1.9418,1.9935,2.0236,1.9815,1.9584,1.9541,1.9733,1.892,1.8311,1.8063,0.0,0.0,0.0,0.0,1.7176,1.7003,1.6979,1.6831,1.6612,1.6565,1.6541,1.6541,1.6289,1.6147,1.6133,1.5651,1.5444,1.5401,1.4907,1.4689,1.466,1.4833,1.4736,1.4405,1.3926,1.3771,1.3728,1.3423,0.0,0.0,1.0968,1.0142,0.9369,0.8501,0.8267,0.829,0.8267,0.8243,0.8243,0.8243,0.8247,0.822,0.822,0.822,0.8153,0.7922,0.7886,0.7826,0.7651,0.7752,0.7847,0.7715,0.7811,0.7919,0.79,0.79,0.79,0.79,0.79,0.79,0.79,0.0,0.0,0.7603,0.7167,0.6944,0.7087,0.6644,0.6328,0.6219,0.5468,0.4682,0.3914,0.309,0.2347,0.1681,0.1719,0.1739,0.174,0.1604,0.1609,0.0,0.0,0.0,0.0,0.0,0.0,0.0,0.0,0.0,0.0,0.0,0.0,0.0,0.0,0.0,2.0159,2.0168,2.0487,2.2488,2.3063,2.2377,1.99,1.9691,1.9881,2.0157,1.9288,1.8741,1.8766,1.8187,1.7822,1.7768,1.7527,1.738,1.738,1.7183,1.7043,1.7003,1.6784,1.6659,1.6612,0.0,0.0,1.6265,1.5998,1.5879,1.5872,1.5772,1.5721,1.5691,1.5443,1.5194,1.4967,1.4513,1.4331,1.4251,1.4148,1.4107,1.3989,1.3182,1.2788,1.2321,1.0388,0.9781,0.9563,0.8169,0.7993,0.0,0.8036,0.7966,0.7966,0.7966,0.7852,0.7738,0.7738,0.7738,0.7715,0.7668,0.7736,0.7784,0.7621,0.7716,0.777,0.765,0.7867,0.8035,0.7919,0.79,0.79,0.79,0.79,0.79,0.79,0.787,0.777,0.7614,0.7513,0.7319,0.7046,0.6923,0.6535,0.5766,0.5067,0.4248,0.3299,0.2329,0.1758,0.1627,0.1472,0.1388,0.1412,0.1699,0.1839,0.0,0.0,0.0,0.0,0.0,0.0,0.0,0.0,0.0,0.0,0.0,1.7294,1.8618,0.0,1.9439,2.1889,2.209,2.2231,2.3033,2.2827,2.2298,2.1493,2.0846,2.0362,2.0119,1.9004,1.8241,1.8102,1.7838,1.7651,1.7504,1.738,1.7263,1.7153,1.705,1.6862,1.6602,1.6478,1.6329,1.6204,1.6069,1.6004,1.6004,1.5855,1.5761,1.5659,1.5659,1.5571,1.5434,1.519,1.4951,1.4663,1.4367,1.432,1.4372,1.4142,1.4047,1.395,1.3365,1.2831,1.2198,1.065,0.9913,0.9411,0.8176,0.7963,0.8128,0.7983,0.7959,0.7959,0.7959,0.7866,0.7797,0.7797,0.7797,0.7797,0.7797,0.7851,0.7878,0.781,0.7854,0.7854,0.7729,0.7834,0.7891,0.7675,0.7639,0.7611,0.7507,0.7496,0.7496,0.7496,0.7496,0.7464,0.736,0.7286,0.7144,0.6865,0.6851,0.6437,0.5493,0.4704,0.3835,0.2868,0.1923,0.1457,0.1493,0.1404,0.1363,0.1392,0.1479,0.1549,0.0,0.0,0.0,0.0,0.0,0.0,0.0,1.5712,1.6556,1.7585,1.8414,1.9457,2.1065,2.1272,2.165,2.3093,2.338,2.3182,2.2547,2.1733,2.1582,2.2551,2.148,2.039,1.9621,1.8627,1.7924,1.7721,1.7651,1.7504,1.7263,1.7239,1.7153,1.6932,1.6862,1.665,1.6201,1.6147,1.6004,1.5808,1.5754,1.573,1.573,1.5689,1.5571,1.5428,1.5428,1.5267,1.5011,1.479,1.4544,1.4298,1.4298,1.4409,1.4504,1.4118,1.3974,1.3945,1.3739,1.317,1.2356,1.1248,1.0374,0.9538,0.8368,0.7988,0.7988,0.7988,0.7988,0.7988,0.7988,0.7988,0.7988,0.7988,0.7988,0.7988,0.7988,0.7988,0.7988,0.7988,0.7988,0.7976,0.7851,0.7831,0.7753,0.7481,0.7437,0.737,0.7225,0.7181,0.7161,0.7161,0.7112,0.7095,0.7095,0.6994,0.6876,0.6734,0.6555,0.5999,0.5002,0.4117,0.3186,0.2253,0.1534,0.1207,0.1254,0.1253,0.13,0.135,0.1141,0.1152,1.4428,1.4667,1.5096,1.5884,1.6129,1.6674,0.0,1.923,1.9561,2.0454,2.1379,2.2072,2.2295,2.2281,2.2569,2.3649,2.2572,2.1837,2.255,2.1675,2.1002,2.1136,1.9559,1.8419,1.8311,1.7947,1.7721,1.7698,1.7481,1.7239,1.7043,1.7026,1.6902,1.6659,1.6407,1.6272,1.6201,1.595,1.5832,1.5808,1.5611,1.554,1.554,1.5291,1.5178,1.5131,1.5131,1.4981,1.4742,1.4718,1.4544,1.4298,1.4298,1.4304,1.4321,1.4267,1.4261,1.4255,1.4208,1.4136,1.3724,1.1788,1.1088,1.0629,0.8598,0.7988,0.7988,0.7988,0.7988,0.7988,0.7988,0.7988,0.7988,0.7988,0.7988,0.7988,0.7988,0.7988,0.7988,0.7988,0.7988,0.7985,0.7993,0.7989,0.7891,0.7617,0.7573,0.7567,0.755,0.7428,0.7369,0.7369,0.7198,0.7095,0.7095,0.7082,0.7002,0.6791,0.6012,0.5012,0.384,0.2843,0.1868,0.0935,0.0824,0.0765,0.0781,0.0783,0.0792,0.0785,0.0824,0.0943,1.5818,1.6282,1.6765,1.7393,1.8143,1.8982,1.9934,2.0565,2.1135,2.1787,2.2656,2.3277,2.3104,2.3283,2.3527,2.3804,2.2771,2.2076,2.2473,2.098,1.9799,1.9633,1.8432,1.7909,1.8603,1.7955,1.741,1.7308,1.7183,1.7019,1.6777,1.676,1.6643,1.6383,1.6265,1.6076,1.5815,1.5683,1.5547,1.5387,1.5315,1.5267,1.5267,1.5148,1.5011,1.4861,1.4688,1.4568,1.4472,1.4472,1.4394,1.4298,1.4298,1.4298,1.4298,1.4298,1.4298,1.4298,1.4298,1.4298,1.4052,1.2557,1.1682,1.0925,0.9386,0.8506,0.7988,0.7988,0.7988,0.7988,0.7988,0.7988,0.7988,0.7988,0.7988,0.7988,0.7988,0.7988,0.7988,0.7988,0.7988,0.7988,0.7988,0.7988,0.7973,0.7851,0.7756,0.7692,0.7611,0.7543,0.7506,0.7506,0.7366,0.7275,0.7275,0.7168,0.701,0.6817,0.5919,0.4851,0.3643,0.2643,0.1652,0.072,0.0697,0.07,0.0706,0.0738,0.077,0.0752,0.0618,0.0621,1.6996,1.7719,1.8386,1.8837,1.9975,2.0953,2.088,2.1657,2.245,2.2721,2.3423,2.3916,2.3738,2.3918,2.4024,2.3841,2.2952,2.2195,2.1943,2.016,1.8732,1.8355,1.7582,1.7455,1.8426,1.7738,1.7153,1.7003,1.6932,1.676,1.6494,1.6494,1.6336,1.6028,1.6004,1.5815,1.538,1.538,1.5285,1.5107,1.5035,1.4987,1.4987,1.4909,1.4766,1.4592,1.437,1.4298,1.4298,1.4298,1.4202,1.4082,1.425,1.413,1.3889,1.4034,1.4178,1.4298,1.4298,1.4298,1.4076,1.2732,1.178,1.095,0.9583,0.8602,0.7988,0.7917,0.7892,0.7867,0.7789,0.7789,0.7789,0.7789,0.7789,0.7789,0.7789,0.7789,0.7789,0.7789,0.7789,0.7789,0.7789,0.7789,0.7789,0.7789,0.7697,0.762,0.7593,0.7495,0.7432,0.7389,0.729,0.7227,0.7227,0.7102,0.6931,0.6705,0.5521,0.4416,0.3464,0.2211,0.1197,0.0524,0.0501,0.0502,0.0505,0.0561,0.0591,0.0569,0.0376,0.0278,1.7554,1.8682,1.9827,2.0237,2.1404,2.237,2.2104,2.2981,2.3774,2.3524,2.3859,2.4186,2.4186,2.3992,2.3819,2.3797,2.2799,2.1699,2.0773,1.9312,1.809,1.7414,1.6847,1.6666,1.7044,1.7026,1.7003,1.7003,1.676,1.6494,1.6224,1.6224,1.6004,1.554,1.5516,1.538,1.5107,1.5107,1.5107,1.5107,1.4838,1.4718,1.4688,1.4442,1.4322,1.4322,1.4298,1.4298,1.4298,1.4298,1.3986,1.3588,1.4112,1.3697,1.291,1.337,1.3847,1.4298,1.4298,1.4298,1.3956,1.1907,1.1219,1.0808,0.8676,0.8038,0.7939,0.7696,0.7621,0.7547,0.7288,0.7213,0.7213,0.7213,0.7213,0.7213,0.7213,0.7213,0.7213,0.7213,0.7213,0.7213,0.7213,0.7213,0.7213,0.7213,0.7232,0.7307,0.7559,0.7269,0.6964,0.6833,0.6814,0.6811,0.6811,0.6808,0.6685,0.642,0.4553,0.3323,0.304,0.1118,0.0048,0.0024,0.0024,0.0024,0.0025,0.0025,0.0025,0.0025,0.0025,0.0,1.8457,1.9297,2.0049,2.1075,2.2149,2.293,2.2847,2.3344,2.3822,2.3726,2.3615,2.3503,2.3354,2.3008,2.2772,2.2911,2.2071,2.1141,2.0446,1.9201,1.7965,1.6895,1.665,1.6509,1.641,1.661,1.6666,1.6484,1.6383,1.6218,1.595,1.5808,1.5666,1.5493,1.5339,1.51,1.4838,1.4838,1.4742,1.4568,1.4472,1.4418,1.4418,1.3968,1.3775,1.3751,1.3437,1.3292,1.3292,1.3292,1.3195,1.3055,1.3219,1.3098,1.2813,1.2983,1.3147,1.3292,1.3292,1.3292,1.3093,1.1858,1.0974,1.017,0.8913,0.8028,0.7437,0.7363,0.7341,0.7316,0.7213,0.7213,0.7213,0.7213,0.7213,0.7213,0.7213,0.7213,0.7213,0.7213,0.7213,0.7213,0.7213,0.7213,0.7138,0.6967,0.7089,0.7238,0.7316,0.7226,0.7106,0.7061,0.6979,0.693,0.693,0.6845,0.639,0.5393,0.4111,0.2966,0.1987,0.068,0.0,0.0,0.0,0.0,0.0,0.0,0.0,0.0,0.0,-0.0101,1.9396,2.0145,2.0806,2.2,2.2864,2.3407,2.3322,2.3455,2.3566,2.3481,2.3031,2.259,2.2466,2.1986,2.1653,2.1727,2.1239,2.0551,1.9688,1.8799,1.7804,1.6671,1.6371,1.6246,1.6162,1.6235,1.6282,1.6201,1.6099,1.595,1.5706,1.5564,1.5397,1.5207,1.5053,1.4838,1.4568,1.4568,1.437,1.4016,1.4016,1.3938,1.3745,1.3413,1.3249,1.3225,1.2934,1.2813,1.2813,1.2813,1.2691,1.2516,1.274,1.257,1.2224,1.2116,1.1951,1.1853,1.2238,1.236,1.219,1.0999,1.0137,0.9402,0.8488,0.7751,0.7188,0.7089,0.7067,0.7039,0.6939,0.6911,0.6911,0.6911,0.6911,0.6911,0.6911,0.6911,0.6911,0.6911,0.6911,0.6911,0.6911,0.6911,0.6864,0.6689,0.6814,0.6911,0.6911,0.6911,0.6911,0.6911,0.6841,0.6794,0.6794,0.6718,0.6136,0.4879,0.3883,0.276,0.1534,0.052,0.0,0.0,0.0,0.0,0.0,0.0,-0.0051,-0.0152,-0.0152,-0.0278,2.0305,2.1187,2.205,2.2964,2.3475,2.3701,2.3495,2.3296,2.3102,2.2852,2.2147,2.1541,2.1521,2.0987,2.0515,2.0442,2.0421,1.9976,1.8654,1.8169,1.7629,1.6687,1.6051,1.5833,1.615,1.595,1.5903,1.6147,0.0,1.5706,1.5516,1.5469,1.5231,1.4712,1.4688,1.4568,1.4298,1.4274,1.3986,1.3491,1.3467,1.3225,1.2813,1.2764,1.2764,1.2764,1.274,1.2716,1.2716,1.2716,1.2419,1.2005,1.2467,1.2029,1.1096,1.0812,1.0375,1.0093,1.1052,1.1414,1.117,0.9325,0.8732,0.8534,0.7481,0.7163,0.7113,0.6842,0.677,0.6717,0.6462,0.6412,0.6412,0.6412,0.6412,0.6412,0.6412,0.6412,0.6412,0.6412,0.6412,0.6412,0.6412,0.6412,0.6412,0.6412,0.6412,0.6412,0.6412,0.6412,0.6412,0.6412,0.6412,0.6412,0.6412,0.6362,0.5862,0.4784,0.3701,0.2645,0.1563,0.053,0.0,0.0,0.0,0.0,0.0,-0.0025,-0.0152,-0.0404,-0.0404,-0.0556,2.0995,2.1767,2.2462,2.3002,2.3187,2.3187,2.283,2.2726,2.2481,2.1781,2.1223,2.0742,2.0399,2.0061,2.0062,2.0665,2.09,2.0577,1.9385,1.8975,1.8172,1.6511,1.5977,1.5822,1.5896,1.5832,1.5784,1.5689,1.5611,1.554,1.5493,1.5118,1.4831,1.4688,1.452,1.437,1.4298,1.3895,1.3636,1.3491,1.3152,1.291,1.2789,1.2395,1.22,1.2175,1.178,1.1614,1.1614,1.1614,1.1541,1.1365,1.0904,1.0556,1.024,0.9562,0.9217,0.9048,0.8743,0.9011,0.9336,0.8248,0.79,0.7751,0.6858,0.6612,0.6587,0.6514,0.6512,0.6487,0.6412,0.6412,0.6412,0.6412,0.6412,0.6412,0.6412,0.6412,0.6412,0.6412,0.6412,0.6412,0.6412,0.6412,0.6412,0.6412,0.6412,0.6412,0.6412,0.6412,0.6412,0.6412,0.6412,0.6412,0.6412,0.5659,0.4757,0.3676,0.2595,0.1538,0.0454,0.0151,0.0,0.0,0.0,0.0,0.0,-0.0202,-0.0328,-0.0404,-0.0606,-0.0833,2.1754,2.2338,2.282,2.3033,2.2976,2.2662,2.1985,2.1673,2.1226,2.0111,1.9676,1.9309,1.8709,1.8776,1.9023,1.927,1.9489,1.935,1.856,1.8103,1.7381,1.6163,1.5879,1.5784,1.5683,1.5659,1.5623,1.5507,1.5493,1.5397,1.5166,1.4855,1.464,1.4544,1.437,1.4178,1.3943,1.3654,1.3273,1.2832,1.2565,1.2322,1.2102,1.178,1.1663,1.1634,0.0,1.1194,1.1194,1.1194,1.0998,1.063,1.0191,0.9797,0.9373,0.8577,0.8276,0.8152,0.7357,0.7357,0.768,0.7232,0.7083,0.6983,0.6537,0.6412,0.6412,0.6412,0.6412,0.6412,0.6412,0.6412,0.6412,0.6412,0.6412,0.6412,0.6412,0.6412,0.6412,0.6412,0.6412,0.6412,0.6412,0.6412,0.6412,0.6412,0.6412,0.6412,0.6412,0.6412,0.6412,0.6412,0.5984,0.5687,0.5687,0.4707,0.3651,0.2569,0.194,0.111,0.0051,0.0,0.0,0.0,-0.0126,-0.0177,-0.0177,-0.0455,-0.0631,-0.0758,-0.0909,-0.1111,2.2459,2.284,2.3091,2.3091,2.2801,2.2212,2.1155,2.0545,1.9793,1.8324,1.7986,1.7704,1.6949,1.7354,1.7703,1.7331,1.7396,1.7413,1.7101,1.6606,1.617,1.5849,1.5784,1.5689,1.5516,1.5475,1.5449,1.5446,1.5454,1.526,1.4841,1.4738,1.4581,1.4322,1.4226,1.3962,1.3491,1.337,1.2856,1.2005,1.1932,1.1663,1.1194,1.1194,1.1194,1.1194,1.1194,0.0,1.1047,1.1169,1.0654,0.9846,0.9846,0.9348,0.8549,0.773,0.7431,0.7332,0.6634,0.6412,0.6412,0.6412,0.6412,0.6412,0.6412,0.6412,0.6412,0.6412,0.6412,0.6412,0.6412,0.6412,0.6412,0.6412,0.6412,0.6412,0.6412,0.6412,0.6412,0.6412,0.6412,0.6412,0.6412,0.6412,0.6412,0.6412,0.6412,0.6412,0.6412,0.6337,0.6287,0.6287,0.5309,0.4632,0.4632,0.3601,0.2544,0.1613,0.1437,0.0958,-0.0025,-0.0051,-0.0076,-0.0101,-0.0328,-0.0455,-0.0455,-0.0732,-0.0985,-0.1212,-0.1237,-0.139,2.2898,2.3042,2.3091,2.3091,2.2801,2.2134,2.0729,2.0091,1.9283,1.7495,1.7128,1.6949,1.6423,1.6339,1.6536,1.7045,1.7068,1.7001,1.6944,1.6826,1.6535,1.5893,1.5659,1.554,1.5493,1.5291,1.5167,1.517,1.517,1.522,1.5345,1.493,1.4588,1.4304,1.3871,1.3588,1.3491,1.2686,1.217,1.198,1.1561,1.1292,1.1194,1.1194,1.1194,1.1194,1.1194,0.0,1.0265,1.0924,1.033,0.8998,0.8998,0.8528,0.7705,0.6908,0.6612,0.6587,0.6437,0.6412,0.6412,0.6412,0.6412,0.6412,0.6412,0.6412,0.6412,0.6412,0.6412,0.6412,0.6412,0.6412,0.6412,0.6412,0.6412,0.6412,0.6412,0.6412,0.6412,0.6412,0.6412,0.6412,0.6412,0.6412,0.6412,0.6412,0.6412,0.6412,0.6412,0.6012,0.5734,0.5734,0.4576,0.3797,0.3797,0.2416,0.1462,0.1285,0.0656,0.0101,-0.0303,-0.0328,-0.0429,-0.0657,-0.0707,-0.0732,-0.0732,-0.101,-0.1162,-0.1212,-0.1415,-0.1566,2.2984,2.3091,2.3079,2.2969,2.2289,2.127,1.9726,1.8852,1.7877,1.6035,1.5978,1.608,1.5433,1.5489,1.5739,1.6058,1.5853,1.5812,1.6257,1.6098,1.589,1.5802,1.5611,1.5452,1.5315,1.518,1.509,1.5089,1.5242,1.531,1.5303,1.5062,1.4704,1.4263,1.3895,1.3434,1.2887,1.2276,1.1858,1.1585,1.1316,1.1194,1.1194,1.1194,1.1194,1.1194,1.1194,0.0,1.0019,1.0413,0.9641,0.8177,0.8177,0.768,0.6933,0.6537,0.6412,0.6412,0.6412,0.6412,0.6412,0.6412,0.6412,0.6412,0.6412,0.6412,0.6412,0.6412,0.6412,0.6412,0.6412,0.6412,0.6412,0.6412,0.6412,0.6412,0.6412,0.6412,0.6412,0.6412,0.6412,0.6412,0.6412,0.6412,0.6412,0.6412,0.6412,0.6312,0.6012,0.5154,0.4678,0.4956,0.3649,0.2592,0.2189,0.0932,0.0151,0.0151,-0.0202,-0.048,-0.0606,-0.0606,-0.0657,-0.0808,-0.0934,-0.101,-0.101,-0.1288,-0.1415,-0.1415,-0.1541,-0.1625,2.2869,2.3023,2.3028,2.2732,2.1786,2.0454,1.8751,1.7695,1.6581,1.4857,1.5001,1.5217,1.4436,1.4562,1.479,1.472,1.4387,1.4453,1.539,1.5227,1.5177,1.5687,1.5599,1.5399,1.5124,1.5096,1.512,1.5173,1.5433,1.5469,1.5203,1.5064,1.473,1.4145,1.3757,1.3137,1.2228,1.1963,1.1614,1.1194,1.1194,1.1194,1.1194,1.1194,1.112,1.0949,1.0949,0.0,0.0,0.9669,0.88,0.7357,0.7531,0.7107,0.6412,0.6412,0.6412,0.6412,0.6412,0.6412,0.6412,0.6412,0.6412,0.6412,0.6412,0.6412,0.6412,0.6412,0.6412,0.6412,0.6412,0.6412,0.6412,0.6412,0.6412,0.6412,0.6412,0.6412,0.6412,0.6412,0.6412,0.6412,0.6412,0.6412,0.6359,0.6237,0.6237,0.5984,0.5256,0.415,0.3445,0.3522,0.2318,0.1235,0.0605,-0.0328,-0.0884,-0.0884,-0.0833,-0.0833,-0.0884,-0.0884,-0.0909,-0.096,-0.1187,-0.1288,-0.1288,-0.1491,-0.1592,-0.1592,-0.1624,-0.1639,2.2461,2.283,2.296,2.2397,2.1574,2.0388,1.8411,1.7282,1.6255,1.4802,1.4555,1.4394,1.3724,1.3379,1.3182,1.3118,1.3025,1.3344,1.4456,1.4843,1.5132,1.5498,1.5517,1.5378,1.5127,1.5108,1.5205,1.5445,1.5704,1.5741,1.5475,1.4943,1.4424,1.3931,1.2956,1.2323,1.2035,1.1521,1.1243,1.1194,1.1194,1.1194,1.1194,1.1194,1.0801,1.0117,1.0117,0.9245,0.0,0.8598,0.7953,0.6587,0.7307,0.7107,0.6412,0.6412,0.6412,0.6412,0.6412,0.6412,0.6412,0.6412,0.6412,0.6412,0.6412,0.6412,0.6412,0.6412,0.6412,0.6412,0.6412,0.6412,0.6412,0.6412,0.6412,0.6412,0.6412,0.6412,0.6412,0.6412,0.6412,0.6412,0.6412,0.6412,0.6237,0.5734,0.5684,0.5206,0.3947,0.3246,0.2341,0.0907,0.0202,-0.0202,-0.0278,-0.0833,-0.1162,-0.1162,-0.0934,-0.0909,-0.1162,-0.1162,-0.1288,-0.1516,-0.1541,-0.1566,-0.1566,-0.1592,-0.1592,-0.1592,-0.1671,-0.1686,2.2166,2.253,2.2466,2.2067,2.1064,1.974,1.8044,1.6525,1.5168,1.4105,1.3586,1.3206,1.2948,1.2461,1.2214,1.2541,1.2238,1.2365,1.354,1.3877,1.4276,1.5103,1.5088,1.5101,1.5326,1.5332,1.5451,1.5716,1.5512,1.531,1.5211,1.4972,1.4426,1.3577,1.289,1.2323,1.1875,1.142,1.1194,1.1194,1.1194,1.1194,1.1169,1.0708,1.029,0.9969,0.9496,0.8651,0.0,0.7953,0.7406,0.6434,0.6758,0.6684,0.6412,0.6412,0.6412,0.6412,0.6412,0.6412,0.6412,0.6412,0.6412,0.6412,0.6412,0.6412,0.6412,0.6412,0.6412,0.6412,0.6412,0.6412,0.6412,0.6412,0.6412,0.6412,0.6412,0.6412,0.6412,0.6412,0.6412,0.6412,0.6412,0.6412,0.6209,0.5687,0.5183,0.4452,0.3271,0.2089,0.0982,0.0025,-0.0278,-0.0606,-0.1086,-0.1314,-0.144,-0.144,-0.1339,-0.1339,-0.144,-0.144,-0.1491,-0.1592,-0.1592,-0.1626,-0.167,-0.167,-0.1653,-0.1669,-0.1682,-0.1724,2.1411,2.1919,2.182,2.1146,2.0057,1.872,1.7034,1.5472,1.4177,1.3492,1.2891,1.2467,1.2375,1.1885,1.1631,1.2032,1.1789,1.1953,1.3147,1.3383,1.3753,1.466,1.4654,1.4757,1.5226,1.5469,1.5613,1.5633,1.525,1.4848,1.4525,1.4504,1.4057,1.315,1.2679,1.2172,1.1633,1.134,1.1071,1.0855,1.0855,1.0728,1.0478,0.9916,0.9521,0.927,0.8949,0.8202,0.0,0.7506,0.7132,0.6412,0.6412,0.6412,0.6412,0.6412,0.6412,0.6412,0.6412,0.6412,0.6412,0.6412,0.6412,0.6412,0.6412,0.6412,0.6412,0.6412,0.6412,0.6412,0.6412,0.6412,0.6412,0.6412,0.6412,0.6412,0.6412,0.6412,0.6412,0.6412,0.6412,0.6412,0.6412,0.6412,0.6084,0.5156,0.4528,0.3597,0.2065,0.0857,-0.0076,-0.0682,-0.0758,-0.0985,-0.1541,-0.1592,-0.1592,-0.1592,-0.1592,-0.1592,-0.1592,-0.1592,-0.1592,-0.1592,-0.1626,-0.1641,-0.1688,-0.1697,-0.1711,-0.1705,-0.1713,-0.1761,1.9966,2.09,2.1119,1.9431,1.8476,1.7343,1.513,1.4094,1.3498,1.3092,1.2735,1.2406,1.2075,1.1733,1.1487,1.1414,1.167,1.2296,1.3433,1.3659,1.3817,1.4177,1.4279,1.4413,1.4666,1.5427,1.5645,1.5035,1.5014,0.0,1.3369,1.3315,1.3139,1.2725,1.2132,1.1619,1.1203,1.1198,1.0801,1.0019,1.0019,0.9595,0.8821,0.8825,0.8375,0.768,0.845,0.7904,0.0,0.7282,0.7132,0.6412,0.6412,0.6412,0.6412,0.6412,0.6412,0.6412,0.6412,0.6412,0.6412,0.6412,0.6412,0.6412,0.6412,0.6412,0.6412,0.6412,0.6412,0.6412,0.6412,0.6412,0.6412,0.6412,0.6412,0.6412,0.6412,0.6412,0.6412,0.6412,0.6412,0.6412,0.6412,0.6412,0.5757,0.3897,0.362,0.2642,-0.0025,-0.0379,-0.0707,-0.1491,-0.1592,-0.1592,-0.1592,-0.1592,-0.1592,-0.1592,-0.1592,-0.1592,-0.1592,-0.1592,-0.1592,-0.1592,-0.1673,-0.1688,-0.1688,-0.169,-0.1704,-0.1705,-0.1762,-0.1793,1.8016,1.861,1.8694,1.779,1.669,1.5531,1.4266,1.3254,1.2454,1.2059,1.1564,1.1174,1.1058,1.0955,1.1074,1.1655,1.1821,1.22,1.3008,1.3333,1.3671,1.4153,1.4906,1.5433,1.5505,1.5741,1.5651,1.5035,1.4654,1.4121,1.3342,1.2908,1.2561,1.2312,1.1971,1.1664,1.142,1.0726,1.024,0.9994,0.9447,0.9048,0.8775,0.8226,0.7829,0.758,0.7282,0.6858,0.0,0.6684,0.6634,0.6412,0.6412,0.6412,0.6412,0.6412,0.6412,0.6412,0.6412,0.6412,0.6412,0.6412,0.6412,0.6412,0.6412,0.6412,0.6412,0.6412,0.6412,0.6412,0.6412,0.6412,0.6412,0.6412,0.6412,0.6412,0.6412,0.6412,0.6412,0.6412,0.6112,0.5862,0.5862,0.5104,0.4148,0.3196,0.2114,0.0982,-0.0252,-0.0884,-0.1314,-0.1566,-0.1592,-0.1592,-0.1592,-0.1592,-0.1592,-0.1592,-0.1592,-0.1592,-0.1592,-0.1592,-0.1592,-0.1592,-0.1673,-0.1697,-0.1691,-0.1747,-0.1773,-0.1766,-0.1804,-0.1814,1.5898,1.6537,1.6616,1.5857,1.4942,1.4015,1.3055,1.2231,1.1613,1.1358,1.0937,1.0626,1.0734,1.0754,1.0935,1.151,1.179,1.2133,1.2706,1.3042,1.3464,1.4018,1.4983,1.5596,1.5596,1.5771,1.5565,1.4767,1.4385,1.3846,1.3012,1.2604,1.2282,1.2004,1.1862,1.1685,1.1397,1.0771,1.0138,0.9546,0.9048,0.8474,0.7879,0.7381,0.7157,0.7132,0.6933,0.0,0.0,0.6736,0.6684,0.6412,0.6412,0.6412,0.6412,0.6412,0.6412,0.6412,0.6412,0.6412,0.6412,0.6412,0.6412,0.6412,0.6412,0.6412,0.6412,0.6412,0.6412,0.6412,0.6412,0.6412,0.6412,0.6412,0.6412,0.6412,0.6412,0.6412,0.6412,0.6412,0.5959,0.5509,0.5208,0.4275,0.3218,0.2064,0.1033,0.0101,-0.0732,-0.1288,-0.1592,-0.1592,-0.1592,-0.1592,-0.1592,-0.1592,-0.1592,-0.1592,-0.1592,-0.1592,-0.1592,-0.1592,-0.1622,-0.1634,-0.1689,-0.1719,-0.1748,-0.1779,-0.1804,-0.1795,-0.1795,-0.1795,0.0,1.4538,1.4812,1.3703,1.3223,1.272,1.1611,1.1156,0.0,1.0978,1.0764,1.0687,1.0985,1.1009,1.1042,1.1188,1.1673,1.215,1.254,1.2896,1.3307,1.3923,1.4684,1.5155,1.5137,1.5551,1.5343,1.4228,1.4121,1.3588,1.2445,1.239,1.2211,1.1824,1.1815,1.1642,1.1222,1.1182,1.0365,0.8815,0.8765,0.7914,0.6412,0.6412,0.6412,0.0,0.0,0.0,0.0,0.7207,0.7083,0.6412,0.6412,0.6412,0.6412,0.6412,0.6412,0.6412,0.6412,0.6412,0.6412,0.6412,0.6412,0.6412,0.6412,0.6412,0.6412,0.6412,0.6412,0.6412,0.6412,0.6412,0.6412,0.6412,0.6412,0.6412,0.6412,0.6412,0.6387,0.6362,0.5859,0.5208,0.4429,0.3748,0.2641,0.0655,0.0302,-0.0202,-0.1439,-0.1592,-0.1592,-0.1592,-0.1592,-0.1592,-0.1592,-0.1592,-0.1592,-0.1592,-0.1592,-0.1592,-0.1592,-0.1592,-0.1631,-0.1688,-0.1692,-0.1749,-0.1807,-0.1809,-0.1795,-0.1795,-0.1795,-0.1795,1.0494,0.0,1.2607,1.1865,1.1447,1.1134,0.0,1.0747,1.0693,1.0693,1.064,1.0747,1.1212,1.1142,1.1265,1.204,1.2251,1.2383,1.2644,1.3449,1.4195,1.4757,1.5348,1.5626,1.5427,1.5146,1.4612,1.3731,1.3273,1.2802,1.22,1.2183,1.214,1.2041,1.2037,1.1839,1.1419,1.096,1.0161,0.9029,0.8404,0.7513,0.6412,0.6412,0.6412,0.6412,0.0,0.0,0.6412,0.6612,0.6559,0.6412,0.6412,0.6412,0.6412,0.6412,0.6412,0.6412,0.6412,0.6412,0.6412,0.6412,0.6412,0.6412,0.6412,0.6412,0.6412,0.6412,0.6412,0.6412,0.6412,0.6412,0.6412,0.6412,0.6412,0.6412,0.6412,0.6412,0.6287,0.5862,0.4853,0.3874,0.3271,0.1713,0.0378,-0.0126,-0.0732,-0.1237,-0.1566,-0.1592,-0.1592,-0.1592,-0.1592,-0.1592,-0.1592,-0.1592,-0.1592,-0.1592,-0.1592,-0.1592,-0.1592,-0.1592,-0.1631,-0.1688,-0.1739,-0.1781,-0.1812,-0.1791,-0.1795,-0.1795,-0.1795,-0.1795,0.9173,1.0219,1.1277,1.0957,1.0825,1.0771,1.0771,1.0687,1.0609,1.0609,1.0609,1.0727,1.1142,1.1214,1.144,1.2027,1.2337,1.2627,1.3013,1.3873,1.46,1.4871,1.539,1.5503,1.5001,1.4688,1.4121,1.3198,1.2859,1.247,1.1987,1.1966,1.1966,1.1966,1.206,1.1956,1.1631,1.1301,1.0471,0.9085,0.8656,0.774,0.6412,0.6412,0.6412,0.0,0.0,0.0,0.6412,0.6412,0.6412,0.6412,0.6412,0.6412,0.6412,0.6412,0.6412,0.6412,0.6412,0.6412,0.6412,0.6412,0.6412,0.6412,0.6412,0.6412,0.6412,0.6412,0.6412,0.6412,0.6412,0.6412,0.6412,0.6412,0.6412,0.6412,0.6412,0.6209,0.5834,0.5183,0.4074,0.2893,0.1888,0.0529,-0.053,-0.0884,-0.1314,-0.1592,-0.1592,-0.1592,-0.1592,-0.1592,-0.1592,-0.1592,-0.1592,-0.1592,-0.1623,-0.1637,-0.1638,-0.1643,-0.1656,-0.1657,-0.1671,-0.1755,-0.1774,-0.1806,-0.1795,-0.1795,-0.1795,-0.1795,-0.1795,-0.1795,0.8951,0.9747,1.0589,1.0495,1.0724,1.0982,1.0952,1.0751,1.0609,1.0609,1.0626,1.0758,1.1089,1.1388,1.166,1.1885,1.2336,1.2909,1.3519,1.4232,1.4708,1.475,1.5203,1.5172,1.4329,1.4174,1.37,1.2674,1.2521,1.2255,1.177,1.1744,1.1758,1.1791,1.1971,1.1994,1.1843,1.1872,1.0971,0.9189,0.9163,0.8201,0.6439,0.642,0.6412,0.6412,0.0,0.0,0.6412,0.6412,0.6412,0.6412,0.6412,0.6412,0.6412,0.6412,0.6412,0.6412,0.6412,0.6412,0.6412,0.6412,0.6412,0.6412,0.6412,0.6412,0.6412,0.6412,0.6412,0.6412,0.6412,0.6412,0.6412,0.6412,0.6337,0.6287,0.6287,0.5759,0.5056,0.4302,0.3222,0.1964,0.0529,-0.0202,-0.0808,-0.1491,-0.1592,-0.1592,-0.1592,-0.1592,-0.1592,-0.1592,-0.1592,-0.1592,-0.1592,-0.1592,-0.1632,-0.1693,-0.1691,-0.1701,-0.1703,-0.1709,-0.175,-0.1804,-0.1808,-0.1795,-0.1795,-0.1795,-0.1795,-0.1795,-0.1795,-0.1795,0.9455,1.0077,1.0488,0.997,1.0423,1.0945,1.0713,1.0626,1.0609,1.0609,1.0787,1.1119,1.1726,1.1887,1.2125,1.2772,1.2958,1.3294,1.4069,1.4485,1.4774,1.5022,1.5318,1.51,1.4063,1.3593,1.3032,1.2171,1.1688,1.1468,1.1527,1.1537,1.1617,1.1787,1.1824,1.1914,1.206,1.2235,1.1375,0.9511,0.9422,0.8386,0.6563,0.6458,0.6412,0.6412,0.0,0.6412,0.6412,0.6412,0.6412,0.6412,0.6412,0.6412,0.6412,0.6412,0.6412,0.6412,0.6412,0.6412,0.6412,0.6412,0.6412,0.6412,0.6412,0.6412,0.6412,0.6412,0.6412,0.6412,0.6412,0.6412,0.6412,0.6412,0.6059,0.5734,0.5734,0.4778,0.3747,0.3145,0.1813,0.0554,-0.0151,-0.0909,-0.1465,-0.1592,-0.1592,-0.1592,-0.1592,-0.1592,-0.1592,-0.1592,-0.1592,-0.1592,-0.1592,-0.1592,-0.164,-0.1695,-0.1702,-0.1701,-0.1703,-0.1756,-0.1799,-0.1804,-0.1808,-0.1795,-0.1795,-0.1795,-0.1795,-0.1795,-0.1795,-0.1795,0.9145,0.9753,1.0254,0.9987,1.0717,1.1447,1.133,1.1303,1.1303,1.1303,1.152,1.1806,1.2159,1.2254,1.2442,1.3004,1.3466,1.3882,1.4244,1.466,1.492,1.4902,1.4746,1.4286,1.3401,1.2847,1.2283,1.1619,1.1345,1.1236,1.134,1.1345,1.1439,1.1626,1.1631,1.173,1.1938,1.2027,1.142,1.012,0.9517,0.8502,0.7122,0.6637,0.6412,0.6412,0.0,0.6412,0.6412,0.6412,0.6412,0.6412,0.6412,0.6412,0.6412,0.6412,0.6412,0.6412,0.6412,0.6412,0.6412,0.6412,0.6412,0.6412,0.6412,0.6412,0.6412,0.6412,0.6412,0.6412,0.6412,0.6412,0.6337,0.6037,0.5787,0.5409,0.4678,0.3798,0.2843,0.1712,0.068,-0.0252,-0.0934,-0.1364,-0.1592,-0.1592,-0.1592,-0.1592,-0.1592,-0.1592,-0.1592,-0.1592,-0.1592,-0.1624,-0.164,-0.1641,-0.166,-0.1701,-0.1723,-0.1767,-0.1752,-0.1794,-0.1802,-0.1802,-0.1788,-0.1795,-0.1795,-0.1795,-0.1795,-0.1795,-0.1795,-0.1795,0.8978,0.9538,1.0132,1.0272,1.1012,1.1739,1.1873,1.1799,1.1751,1.1897,1.2101,1.2273,1.235,1.2555,1.2835,1.3137,1.3827,1.4322,1.4389,1.4757,1.4944,1.4714,1.4338,1.3739,1.2883,1.2419,1.1902,1.1243,1.1194,1.1194,1.1194,1.1194,1.1274,1.141,1.1419,1.1539,1.1721,1.1674,1.1307,1.0573,0.9577,0.8592,0.7629,0.6773,0.6412,0.6412,0.6412,0.6412,0.6412,0.6412,0.6412,0.6412,0.6412,0.6412,0.6412,0.6412,0.6412,0.6412,0.6412,0.6412,0.6412,0.6412,0.6412,0.6412,0.6412,0.6412,0.6412,0.6412,0.6312,0.6209,0.6209,0.6209,0.6087,0.5536,0.5258,0.4828,0.3671,0.2693,0.1688,0.0454,-0.0278,-0.0884,-0.1491,-0.1592,-0.1592,-0.1592,-0.1592,-0.1592,-0.1592,-0.1623,-0.1627,-0.1627,-0.1633,-0.1647,-0.1696,-0.1705,-0.1718,-0.1714,-0.1765,-0.1795,-0.1795,-0.1795,-0.1795,-0.1795,-0.1795,-0.1795,-0.1795,-0.1795,-0.1795,-0.1795,-0.1795,-0.1795,0.9487,0.9866,1.0232,1.0795,1.0995,1.1213,1.1761,1.1517,1.132,1.1874,1.2061,1.2125,1.2205,1.2887,1.3439,1.3477,1.3942,1.4389,1.4648,1.4696,1.4714,1.4696,1.4665,1.4164,1.2932,1.2764,1.2322,1.1267,1.1194,1.1194,1.1194,1.1194,1.1203,1.1217,1.1217,1.1321,1.1513,1.134,1.1009,1.049,0.9552,0.8649,0.775,0.6816,0.6412,0.6412,0.6412,0.6412,0.6412,0.6412,0.6412,0.6412,0.6412,0.6412,0.6412,0.6412,0.6412,0.6412,0.6412,0.6412,0.6412,0.6412,0.6412,0.6412,0.6412,0.6412,0.6412,0.6412,0.6034,0.5659,0.5659,0.5659,0.5511,0.4985,0.4277,0.3571,0.2995,0.126,-0.0202,-0.0328,-0.0985,-0.1541,-0.1592,-0.1592,-0.1592,-0.1592,-0.1592,-0.1592,-0.1592,-0.1641,-0.1685,-0.1685,-0.1682,-0.1699,-0.1701,-0.1754,-0.1799,-0.1801,-0.1805,-0.1795,-0.1795,-0.1795,-0.1795,-0.1795,-0.1795,-0.1795,-0.1795,-0.1795,-0.1795,-0.1795,-0.1795,-0.1795,0.9031,0.9768,1.0479,1.0684,1.1169,1.1626,1.1901,1.2211,1.2531,1.2806,1.3158,1.3323,1.3051,1.3281,1.3491,1.3491,1.4099,1.4569,1.4702,1.469,1.469,1.469,1.4,1.3325,1.2843,1.22,1.1634,1.1218,1.1194,1.1194,1.1194,1.1194,1.1194,1.1194,1.1194,1.1236,1.1316,1.1236,1.1101,1.0929,1.0075,0.9493,0.9118,0.7756,0.7157,0.7107,0.6609,0.6412,0.6412,0.6412,0.6412,0.6412,0.6412,0.6412,0.6412,0.6412,0.6412,0.6412,0.6412,0.6412,0.6412,0.6412,0.6412,0.6412,0.6412,0.6412,0.6412,0.6412,0.6012,0.5684,0.6012,0.5611,0.506,0.486,0.3925,0.2819,0.1788,0.0529,-0.0556,-0.1061,-0.139,-0.1592,-0.1592,-0.1592,-0.1592,-0.1592,-0.1592,-0.1624,-0.1668,-0.1681,-0.1695,-0.1713,-0.1741,-0.176,-0.176,-0.1788,-0.1805,-0.1805,-0.1789,-0.1795,-0.1795,-0.1795,-0.1795,-0.1795,-0.1795,-0.1795,-0.1795,-0.1795,-0.1795,-0.1795,-0.1795,-0.1795,0.8851,0.9666,1.0468,1.06,1.1215,1.1817,1.2023,1.2576,1.3122,1.3387,1.3667,1.3788,1.3543,1.3499,1.3521,1.3605,1.4171,1.4557,1.4557,1.4557,1.4557,1.4557,1.3642,1.2958,1.2813,1.1975,1.1389,1.1218,1.1194,1.1194,1.1194,1.1194,1.1194,1.1194,1.1194,1.1194,1.1194,1.1194,1.1194,1.1194,1.0384,0.9994,0.9945,0.8326,0.7605,0.7556,0.6758,0.6412,0.6412,0.6412,0.6412,0.6412,0.6412,0.6412,0.6412,0.6412,0.6412,0.6412,0.6412,0.6412,0.6412,0.6412,0.6412,0.6412,0.6412,0.6412,0.6412,0.6412,0.5884,0.5461,0.6012,0.5486,0.4684,0.428,0.3272,0.2064,0.0706,-0.0202,-0.0934,-0.1491,-0.1592,-0.1592,-0.1592,-0.1592,-0.1595,-0.163,-0.1631,-0.1642,-0.1697,-0.171,-0.1728,-0.1729,-0.1778,-0.1792,-0.1792,-0.1811,-0.1795,-0.1795,-0.1795,-0.1795,-0.1795,-0.1795,-0.1795,-0.1795,-0.1795,-0.1795,-0.1795,-0.1795,-0.1795,-0.1795,-0.1795,-0.1795,0.9131,0.9644,1.0199,1.0604,1.111,1.1631,1.2093,1.2366,1.2711,1.3365,1.3303,1.3189,1.3449,1.3497,1.3581,1.3863,1.4129,1.4298,1.4298,1.4298,1.4298,1.4298,1.3823,1.3322,1.2837,1.2322,1.1761,1.1243,1.1194,1.1194,1.1194,1.1194,1.1194,1.1194,1.1194,1.1194,1.1194,1.1194,1.1194,1.1174,1.0384,0.9994,0.9945,0.8326,0.7605,0.7556,0.6758,0.6412,0.6412,0.6412,0.6412,0.6412,0.6412,0.6412,0.6412,0.6412,0.6412,0.6412,0.6412,0.6412,0.6412,0.6412,0.6412,0.6412,0.6412,0.6412,0.6412,0.6412,0.5636,0.4935,0.5461,0.5186,0.4456,0.3122,0.2164,0.1208,-0.0101,-0.1035,-0.1592,-0.1592,-0.1592,-0.1592,-0.1592,-0.1592,-0.1627,-0.1684,-0.1688,-0.1699,-0.1701,-0.1758,-0.1789,-0.1792,-0.1795,-0.1795,-0.1795,-0.1795,-0.1795,-0.1795,-0.1795,-0.1795,-0.1795,-0.1795,-0.1795,-0.1795,-0.1795,-0.1795,-0.1795,-0.1795,-0.1795,-0.1795,-0.1795,-0.1795,0.9131,0.9854,1.0594,1.09,1.1623,1.2304,1.2446,1.2828,1.3321,1.3941,1.3843,1.3701,1.3773,1.3791,1.3815,1.3894,1.4129,1.4298,1.4298,1.4298,1.4154,1.3775,1.3322,1.2807,1.2297,1.1756,1.1365,1.1218,1.1194,1.1194,1.1194,1.1194,1.1194,1.1194,1.1194,1.1194,1.1194,1.1194,1.0924,1.0364,1.0117,0.9994,0.9945,0.8326,0.7605,0.7556,0.6758,0.6412,0.6412,0.6412,0.6412,0.6412,0.6412,0.6412,0.6412,0.6412,0.6412,0.6412,0.6412,0.6412,0.6412,0.6412,0.6412,0.6412,0.6412,0.6412,0.6412,0.6412,0.6162,0.5887,0.5659,0.4778,0.3773,0.2995,0.1461,0.0076,-0.0303,-0.1035,-0.1592,-0.1592,-0.1592,-0.1592,-0.1592,-0.1592,-0.1627,-0.1684,-0.1688,-0.1706,-0.1757,-0.179,-0.1812,-0.1794,-0.1795,-0.1795,-0.1795,-0.1795,-0.1795,-0.1795,-0.1795,-0.1795,-0.1795,-0.1795,-0.1795,-0.1795,-0.1795,-0.1795,-0.1795,-0.1795,-0.1795,-0.1795,-0.1795,-0.2059,0.9403,1.0034,1.0714,1.1247,1.1841,1.2366,1.2715,1.3123,1.3607,1.4177,1.4087,1.3936,1.4045,1.3978,1.3936,1.4045,1.4189,1.4298,1.4298,1.4298,1.4178,1.3847,1.3219,1.2662,1.2346,1.1634,1.1194,1.1194,1.1194,1.1194,1.1194,1.1194,1.1194,1.1194,1.1194,1.1194,1.1194,1.0875,1.0487,0.9994,0.9348,0.9048,0.9023,0.8053,0.7605,0.7556,0.6758,0.6412,0.6412,0.6412,0.6412,0.6412,0.6412,0.6412,0.6412,0.6412,0.6412,0.6412,0.6412,0.6412,0.6412,0.6412,0.6412,0.6412,0.6412,0.6412,0.6412,0.6412,0.6087,0.5687,0.5361,0.3899,0.2466,0.234,0.0932,-0.048,-0.0808,-0.1263,-0.1592,-0.1592,-0.1592,-0.1592,-0.1592,-0.1627,-0.1645,-0.1701,-0.1726,-0.1754,-0.1791,-0.1812,-0.1795,-0.1795,-0.1795,-0.1795,-0.1795,-0.1795,-0.1795,-0.1795,-0.1795,-0.1795,-0.1795,-0.1795,-0.1795,-0.1795,-0.1795,-0.1795,-0.1795,-0.1795,-0.1795,-0.1795,-0.2048,-0.2377,0.9814,1.0185,1.0623,1.157,1.1835,1.2102,1.2919,1.3286,1.3628,1.4153,1.4093,1.4014,1.4256,1.4099,1.402,1.4256,1.4298,1.4298,1.4298,1.425,1.4226,1.4226,1.334,1.274,1.274,1.181,1.1194,1.1194,1.1194,1.1194,1.1194,1.1194,1.1194,1.1194,1.112,1.1096,1.1096,1.0285,0.9846,0.9772,0.8301,0.7556,0.7481,0.7481,0.7481,0.7456,0.6711,0.6412,0.6412,0.6412,0.6412,0.6412,0.6412,0.6412,0.6412,0.6412,0.6412,0.6412,0.6412,0.6412,0.6412,0.6412,0.6412,0.6412,0.6412,0.6412,0.6412,0.6412,0.5659,0.4834,0.4734,0.2794,0.0957,0.1334,0.0428,-0.0707,-0.144,-0.1592,-0.1592,-0.1592,-0.1592,-0.1592,-0.1592,-0.1668,-0.1699,-0.1704,-0.1757,-0.1795,-0.1795,-0.1795,-0.1795,-0.1795,-0.1795,-0.1795,-0.1795,-0.1795,-0.1795,-0.1795,-0.1795,-0.1795,-0.1795,-0.1795,-0.1795,-0.1795,-0.1795,-0.1795,-0.1795,-0.1851,-0.1879,-0.1907,-0.2496,-0.2859,0.9745,1.014,1.0686,1.1576,1.2153,1.2614,1.2997,1.3141,1.3334,1.3882,1.4111,1.4226,1.4286,1.425,1.4232,1.4286,1.4298,1.4298,1.4298,1.3943,1.366,1.366,1.2783,1.2175,1.2175,1.1585,1.1194,1.1194,1.1194,1.1194,1.1194,1.1194,1.1194,1.1194,1.058,1.0265,1.0265,0.9468,0.8751,0.0,0.7755,0.7257,0.6661,0.6661,0.6661,0.6661,0.6487,0.6412,0.6412,0.6412,0.6412,0.6412,0.6412,0.6412,0.6412,0.6412,0.6412,0.6412,0.6412,0.6412,0.6412,0.6412,0.6412,0.6412,0.6412,0.6412,0.6412,0.6412,0.5937,0.5183,0.4124,0.2641,0.1183,0.0252,-0.0682,-0.139,-0.1566,-0.1592,-0.1592,-0.1592,-0.1592,-0.1592,-0.1592,-0.1668,-0.1706,-0.1759,-0.1799,-0.1795,-0.1795,-0.1795,-0.1795,-0.1795,-0.1795,-0.1795,-0.1795,-0.1795,-0.1795,-0.1795,-0.1795,-0.1795,-0.1795,-0.1795,-0.1795,-0.1795,-0.1795,-0.1795,-0.1795,-0.2272,-0.2497,-0.2525,-0.3113,-0.3758,0.9835,1.0252,1.0827,1.181,1.2368,1.2741,1.2886,1.3003,1.3177,1.3455,1.3839,1.4147,1.4274,1.4298,1.4298,1.4298,1.4298,1.4298,1.4298,1.3847,1.3491,1.3491,1.2613,1.2005,1.2005,1.1512,1.1194,1.1194,1.1194,1.1194,1.1194,1.1194,1.1194,1.1194,1.0777,1.0388,0.9994,0.9196,0.84,0.7605,0.7207,0.6808,0.6412,0.6412,0.6412,0.6412,0.6412,0.6412,0.6412,0.6412,0.6412,0.6412,0.6412,0.6412,0.6412,0.6412,0.6412,0.6412,0.6412,0.6412,0.6412,0.6412,0.6412,0.6412,0.6412,0.6412,0.6412,0.6412,0.5834,0.4958,0.3872,0.2414,0.0932,-0.0151,-0.101,-0.1592,-0.1592,-0.1592,-0.1592,-0.1592,-0.1592,-0.1592,-0.1592,-0.1653,-0.1729,-0.179,-0.1812,-0.1795,-0.1795,-0.1795,-0.1795,-0.1795,-0.1795,-0.1795,-0.1795,-0.1795,-0.1795,-0.1795,-0.1795,-0.1795,-0.1795,-0.1795,-0.1795,-0.1795,-0.2076,-0.2244,-0.2244,-0.2833,-0.3141,-0.3141,-0.3755,-0.4258,0.976,1.0328,1.1014,1.2039,1.2506,1.2705,1.2705,1.2864,1.3045,1.3093,1.3521,1.3972,1.4189,1.4268,1.4298,1.4298,1.4298,1.4298,1.4298,1.3775,1.3418,1.3491,1.254,1.1907,1.198,1.1512,1.1194,1.1194,1.1194,1.1194,1.1194,1.1194,1.1194,1.1194,1.0924,1.0482,0.9793,0.885,0.8053,0.7381,0.6711,0.6412,0.6412,0.6412,0.6412,0.6412,0.6412,0.6412,0.6412,0.6412,0.6412,0.6412,0.6412,0.6412,0.6412,0.6412,0.6412,0.6412,0.6412,0.6412,0.6412,0.6412,0.6412,0.6412,0.6412,0.6412,0.6412,0.6412,0.5534,0.4404,0.3596,0.1989,0.0378,-0.0404,-0.1111,-0.1592,-0.1592,-0.1592,-0.1592,-0.1592,-0.1592,-0.1595,-0.1604,-0.1672,-0.1725,-0.1786,-0.1795,-0.1795,-0.1795,-0.1795,-0.1795,-0.1795,-0.1795,-0.1795,-0.1795,-0.1795,-0.1795,-0.1795,-0.1795,-0.1795,-0.1795,-0.1795,-0.1795,-0.1795,-0.2385,-0.2693,-0.2693,-0.3419,-0.3755,-0.3783,-0.437,-0.469,0.9057,1.0075,1.1243,1.2081,1.2506,1.2705,1.2705,1.2735,1.2831,1.3051,1.3521,1.3918,1.3954,1.4141,1.4298,1.4298,1.4298,1.4298,1.4298,1.3485,1.3031,1.3443,1.2195,1.1487,1.1956,1.1512,1.1194,1.1194,1.1194,1.1194,1.1194,1.1194,1.1194,1.1194,0.9838,0.9072,0.8973,0.7481,0.6661,0.6559,0.6462,0.6412,0.6412,0.6412,0.6412,0.6412,0.6412,0.6412,0.6412,0.6412,0.6412,0.6412,0.6412,0.6412,0.6412,0.6412,0.6412,0.6412,0.6412,0.6412,0.6412,0.6412,0.6412,0.6412,0.6412,0.6412,0.6412,0.6412,0.5129,0.3571,0.2767,0.1159,-0.0454,-0.1237,-0.1516,-0.1592,-0.1592,-0.1592,-0.1592,-0.1592,-0.1592,-0.1608,-0.1684,-0.1699,-0.1725,-0.1786,-0.1795,-0.1795,-0.1795,-0.1795,-0.1795,-0.1795,-0.1795,-0.1795,-0.1795,-0.1795,-0.1795,-0.1795,-0.1795,-0.1795,-0.1795,-0.1795,-0.1795,-0.1795,-0.2385,-0.2693,-0.2693,-0.3838,-0.4369,-0.4397,-0.4987,-0.5314,0.9481,1.03,1.1105,1.2057,1.2382,1.2524,1.2674,1.2705,1.2741,1.284,1.3171,1.3491,1.3658,1.3756,1.3857,1.3857,1.3625,1.3508,1.3602,1.2798,1.2307,1.2622,1.181,1.1292,1.1541,1.1345,1.1194,1.1194,1.1194,1.1194,1.1194,1.1194,1.1194,1.1194,1.0088,0.9245,0.88,0.7655,0.6833,0.6412,0.6412,0.6412,0.6412,0.6412,0.6412,0.6412,0.6412,0.6412,0.6412,0.6412,0.6412,0.6412,0.6412,0.6412,0.6412,0.6412,0.6412,0.6412,0.6412,0.6412,0.6412,0.6412,0.6412,0.6412,0.6412,0.6412,0.6337,0.6037,0.4828,0.3344,0.2238,0.0781,-0.0606,-0.1415,-0.1592,-0.1592,-0.1592,-0.1592,-0.1592,-0.1592,-0.1592,-0.161,-0.1694,-0.1704,-0.1725,-0.1786,-0.1795,-0.1795,-0.1795,-0.1795,-0.1795,-0.1795,-0.1795,-0.1795,-0.1795,-0.1795,-0.1795,-0.1795,-0.1795,-0.1795,-0.1795,-0.1795,-0.1964,-0.23,-0.2889,-0.3197,-0.3197,-0.4428,-0.5015,-0.5015,-0.5268,-0.543,0.9564,1.0136,1.0641,1.1641,1.2045,1.2262,1.2542,1.2656,1.2705,1.2705,1.2852,1.3057,1.325,1.3423,1.3468,1.3332,1.303,1.282,1.2839,1.2148,1.1699,1.1898,1.1458,1.1142,1.1189,1.1194,1.1194,1.1194,1.1194,1.1194,1.1194,1.1194,1.1194,1.1194,1.0212,0.9398,0.88,0.7804,0.6983,0.6412,0.6412,0.6412,0.6412,0.6412,0.6412,0.6412,0.6412,0.6412,0.6412,0.6412,0.6412,0.6412,0.6412,0.6412,0.6412,0.6412,0.6412,0.6412,0.6412,0.6412,0.6412,0.6412,0.6412,0.6412,0.6412,0.6312,0.6062,0.5459,0.4225,0.2816,0.161,0.0302,-0.0859,-0.1465,-0.1592,-0.1592,-0.1592,-0.1592,-0.1592,-0.1592,-0.1592,-0.1633,-0.1684,-0.1699,-0.1722,-0.1803,-0.179,-0.1795,-0.1795,-0.1795,-0.1795,-0.1795,-0.1795,-0.1795,-0.1795,-0.1795,-0.1795,-0.1795,-0.1936,-0.1964,-0.1795,-0.1936,-0.2244,-0.2693,-0.3279,-0.3671,-0.3838,-0.4875,-0.5409,-0.5409,-0.5409,-0.5409,0.858,0.9158,0.9752,1.0587,1.1358,1.199,1.2256,1.2524,1.2705,1.2705,1.2717,1.2729,1.2741,1.3169,1.3355,1.2917,1.2831,1.2649,1.2202,1.1725,1.1489,1.1694,1.1244,1.0986,1.1179,1.1194,1.1194,1.1194,1.1194,1.1194,1.1194,1.1194,1.1194,1.1194,0.969,0.885,0.88,0.7257,0.6437,0.6412,0.6412,0.6412,0.6412,0.6412,0.6412,0.6412,0.6412,0.6412,0.6412,0.6412,0.6412,0.6412,0.6412,0.6412,0.6412,0.6412,0.6412,0.6412,0.6412,0.6412,0.6412,0.6412,0.6412,0.6412,0.6412,0.6034,0.5484,0.468,0.3119,0.1509,0.068,-0.053,-0.1541,-0.1592,-0.1592,-0.1592,-0.1592,-0.1592,-0.1592,-0.1592,-0.1592,-0.1627,-0.1685,-0.1713,-0.1715,-0.1802,-0.1804,-0.1795,-0.1795,-0.1795,-0.1795,-0.1795,-0.1795,-0.1795,-0.1795,-0.1795,-0.1795,-0.1795,-0.2328,-0.2385,-0.1823,-0.2356,-0.2665,-0.2693,-0.3279,-0.3895,-0.4452,-0.5098,-0.5409,-0.5409,-0.5409,-0.5409,0.8241,0.8707,0.9227,1.0196,1.0797,1.1291,1.19,1.2243,1.2478,1.2668,1.2705,1.2619,1.2314,1.2407,1.2486,1.2311,1.1784,1.1395,1.1396,1.0993,1.0781,1.0967,1.0828,1.0797,1.0981,1.1005,1.1057,1.1184,1.1194,1.1194,1.1194,1.1194,1.0949,1.0462,0.9369,0.8301,0.7257,0.6684,0.6412,0.6412,0.6412,0.6412,0.6412,0.6412,0.6412,0.6412,0.6412,0.6412,0.6412,0.6412,0.6412,0.6412,0.6412,0.6412,0.6412,0.6412,0.6412,0.6412,0.6412,0.6412,0.6412,0.6412,0.6412,0.6412,0.6412,0.6037,0.5359,0.42,0.2791,0.1334,0.0177,-0.0858,-0.1592,-0.1592,-0.1592,-0.1592,-0.1592,-0.1592,-0.1592,-0.1592,-0.1592,-0.1633,-0.1681,-0.1697,-0.1721,-0.1799,-0.1788,-0.1795,-0.1795,-0.1795,-0.1795,-0.1795,-0.1795,-0.1795,-0.1795,-0.1795,-0.1964,-0.2356,-0.2216,-0.2188,-0.2384,-0.2581,-0.289,-0.3281,-0.3866,-0.4285,-0.4508,-0.5098,-0.5409,-0.5409,-0.5409,-0.5184,0.7906,0.8307,0.8797,0.9787,1.0232,1.0671,1.1569,1.1972,1.2237,1.2518,1.2644,1.2598,1.2293,1.1972,1.1714,1.1564,1.0998,1.0626,1.0649,1.0408,1.0266,1.047,1.0498,1.0579,1.0792,1.0811,1.0844,1.1,1.101,0.0,1.109,1.0847,1.024,0.9221,0.8676,0.7755,0.6412,0.6412,0.6412,0.6412,0.6412,0.6412,0.6412,0.6412,0.6412,0.6412,0.6412,0.6412,0.6412,0.6412,0.6412,0.6412,0.6412,0.6412,0.6412,0.6412,0.6412,0.6412,0.6412,0.6412,0.6412,0.6412,0.6412,0.6412,0.6412,0.5707,0.4678,0.3521,0.2114,0.0655,-0.0505,-0.1187,-0.1592,-0.1592,-0.1592,-0.1592,-0.1592,-0.1592,-0.1592,-0.1592,-0.1592,-0.1633,-0.1682,-0.1698,-0.1721,-0.18,-0.1789,-0.1795,-0.1795,-0.1795,-0.1795,-0.1795,-0.1795,-0.1795,-0.1795,-0.1795,-0.2048,-0.2665,-0.2524,-0.2496,-0.2693,-0.3085,-0.3391,-0.3587,-0.4201,-0.4592,-0.4789,-0.5212,-0.5409,-0.5409,-0.5409,-0.4959,0.0,0.0,0.0,0.9266,0.9662,1.0148,1.1206,1.1665,1.1936,1.2213,1.2472,1.2647,1.2659,1.1906,1.1133,1.0669,1.0587,1.0441,1.006,0.9994,1.007,1.0262,1.0285,1.0366,1.0569,1.0588,1.0588,1.0598,1.0598,1.0688,1.0877,1.0118,0.9034,0.7645,0.7577,0.7182,0.6412,0.6412,0.6412,0.6412,0.6412,0.6412,0.6412,0.6412,0.6412,0.6412,0.6412,0.6412,0.6412,0.6412,0.6412,0.6412,0.6412,0.6412,0.6412,0.6412,0.6412,0.6412,0.6412,0.6412,0.6412,0.6412,0.6412,0.6387,0.6387,0.5077,0.3419,0.2616,0.1033,-0.0581,-0.139,-0.1592,-0.1592,-0.1592,-0.1592,-0.1592,-0.1592,-0.1592,-0.1592,-0.1592,-0.1592,-0.1626,-0.1684,-0.1712,-0.1714,-0.1801,-0.1804,-0.1795,-0.1795,-0.1795,-0.1795,-0.1795,-0.1795,-0.1795,-0.1795,-0.1823,-0.2076,-0.2693,-0.3253,-0.3337,-0.2778,-0.3866,-0.4201,-0.3643,-0.4229,-0.4817,-0.5409,-0.5409,-0.5409,-0.5409,-0.5354,-0.4709,0.7291,0.0,0.0,0.0,0.0,0.0,1.0148,1.0545,1.0936,1.1593,1.1786,1.1794,1.1633,1.1396,1.1019,1.0415,1.0234,1.0125,1.0016,0.9994,1.0018,1.0075,1.0085,1.0165,1.0361,1.038,1.0437,0.0,1.0598,1.0621,1.0683,0.9513,0.8421,0.7549,0.701,0.6634,0.6412,0.6412,0.6412,0.6412,0.6412,0.6412,0.6412,0.6412,0.6412,0.6412,0.6412,0.6412,0.6412,0.6412,0.6412,0.6412,0.6412,0.6412,0.6412,0.6412,0.6412,0.6412,0.6412,0.6412,0.6412,0.6412,0.6412,0.6337,0.5937,0.4776,0.3344,0.2163,0.0756,-0.0581,-0.139,-0.1592,-0.1592,-0.1592,-0.1592,-0.1592,-0.1592,-0.1592,-0.1592,-0.1592,-0.1592,-0.1633,-0.1684,-0.1699,-0.1722,-0.1802,-0.179,-0.1795,-0.1795,-0.1795,-0.1795,-0.1795,-0.1795,-0.1795,-0.1795,-0.2188,-0.272,-0.3309,-0.3085,-0.3253,-0.3977,-0.3895,-0.3977,-0.4257,-0.4847,-0.524,-0.5409,-0.5409,-0.5409,-0.5382,-0.4512,-0.3923,0.7484,0.7772,0.8177,0.8683,0.0,0.0,0.9859,1.01,1.0358,1.1171,1.1411,1.1495,1.1493,1.1197,1.0818,1.0419,1.0067,0.9878,0.998,0.9994,0.9994,0.9994,0.9994,1.0047,1.0148,1.0162,1.0209,1.035,1.036,1.0239,0.9976,0.8996,0.8098,0.7442,0.6721,0.6363,0.6412,0.6412,0.6412,0.6412,0.6412,0.6412,0.6412,0.6412,0.6412,0.6412,0.6412,0.6412,0.6412,0.6412,0.6412,0.6412,0.6412,0.6412,0.6412,0.6412,0.6412,0.6412,0.6412,0.6412,0.6412,0.6412,0.6412,0.6237,0.5359,0.4175,0.2818,0.1485,0.0126,-0.101,-0.1491,-0.1592,-0.1592,-0.1592,-0.1592,-0.1592,-0.1592,-0.1592,-0.1592,-0.1592,-0.1592,-0.161,-0.1694,-0.1704,-0.1725,-0.1786,-0.1795,-0.1795,-0.1795,-0.1795,-0.1795,-0.1795,-0.1795,-0.1795,-0.1795,-0.2356,-0.2945,-0.3559,-0.3281,-0.3503,-0.4451,-0.4173,-0.4145,-0.448,-0.5098,-0.5409,-0.5409,-0.5409,-0.5409,-0.5382,-0.4426,-0.3838,0.7916,0.8112,0.8465,0.9226,0.9092,0.0,0.9913,0.9961,1.0009,1.0731,1.1075,1.1315,1.1629,1.1033,1.0514,1.0529,1.008,0.978,0.9928,0.998,0.9994,0.9994,0.9994,0.9994,0.9994,0.9994,0.9994,0.9994,0.9994,0.9724,0.9113,0.8563,0.7954,0.7279,0.6625,0.6304,0.6393,0.6393,0.6398,0.6412,0.6412,0.6412,0.6412,0.6412,0.6412,0.6412,0.6412,0.6412,0.6412,0.6412,0.6412,0.6412,0.6412,0.6412,0.6412,0.6412,0.6412,0.6412,0.6412,0.6412,0.6412,0.6412,0.6312,0.5934,0.4678,0.3321,0.1888,0.0554,-0.0681,-0.1592,-0.1592,-0.1592,-0.1592,-0.1592,-0.1592,-0.1592,-0.1592,-0.1592,-0.1592,-0.1592,-0.1592,-0.161,-0.1694,-0.1704,-0.1725,-0.1786,-0.1795,-0.1795,-0.1795,-0.1795,-0.1795,-0.1795,-0.1795,-0.1823,-0.1907,-0.244,-0.3057,-0.3671,-0.3699,-0.3977,-0.4564,-0.4536,-0.4536,-0.4592,-0.5128,-0.5409,-0.5409,-0.5409,-0.5409,-0.5382,-0.4789,-0.4173,0.8068,0.8178,0.8253,0.8744,0.9098,0.0,0.9071,0.9143,0.93,0.945,0.9528,0.9715,1.0202,1.0153,1.0055,1.0112,1.0363,1.0367,0.9759,0.9868,0.9994,0.9994,0.9994,0.9994,0.9994,0.9994,0.9994,0.9994,0.9994,0.9681,0.8967,0.838,0.7758,0.7079,0.6467,0.6205,0.6325,0.6325,0.6347,0.6412,0.6412,0.6412,0.6412,0.6412,0.6412,0.6412,0.6412,0.6412,0.6412,0.6412,0.6412,0.6412,0.6412,0.6412,0.6412,0.6412,0.6412,0.6412,0.6412,0.6412,0.6412,0.6412,0.5657,0.4655,0.3972,0.2364,0.0504,-0.0833,-0.1389,-0.1592,-0.1592,-0.1592,-0.1592,-0.1592,-0.1592,-0.1592,-0.1592,-0.1592,-0.1592,-0.1592,-0.1592,-0.161,-0.1694,-0.1704,-0.1725,-0.1786,-0.1795,-0.1795,-0.1795,-0.1795,-0.1795,-0.1795,-0.1795,-0.1992,-0.2497,-0.3085,-0.3671,-0.4285,-0.4313,-0.4592,-0.5212,-0.4761,-0.4733,-0.5212,-0.5354,-0.5409,-0.5409,-0.5409,-0.5409,-0.5382,-0.4789,-0.4173,0.7623,0.7902,0.8213,0.8678,0.9048,0.0,0.0,0.9095,0.9053,0.9588,0.9378,0.93,0.9979,0.9829,0.9603,0.9644,1.0026,1.006,0.9355,0.9846,1.0294,1.0294,1.0125,0.9994,0.9994,0.9994,0.9994,0.9994,0.9994,0.9685,0.8934,0.8267,0.7616,0.7015,0.6354,0.6053,0.62,0.6263,0.632,0.6352,0.6385,0.6412,0.6412,0.6412,0.6412,0.6412,0.6412,0.6412,0.6412,0.6412,0.6412,0.6412,0.6412,0.6412,0.6412,0.6412,0.6412,0.6412,0.6412,0.6412,0.6284,0.5609,0.4956,0.4101,0.2491,0.0781,-0.0732,-0.1414,-0.1592,-0.1592,-0.1592,-0.1592,-0.1592,-0.1592,-0.1592,-0.1592,-0.1592,-0.1592,-0.1592,-0.1592,-0.1592,-0.163,-0.1675,-0.1695,-0.172,-0.1793,-0.1813,-0.1795,-0.1795,-0.1795,-0.1795,-0.1795,-0.2076,-0.2384,-0.2665,-0.3531,-0.4061,-0.4061,-0.4341,-0.4648,-0.4931,-0.4648,-0.4789,-0.5382,-0.5409,-0.5409,-0.5409,-0.5409,-0.5409,-0.5382,-0.4789,-0.4173,0.7242,0.7582,0.8038,0.8547,0.893,0.9238,0.0,0.0,0.0,0.9835,0.9474,0.9233,0.9937,0.9587,0.9205,0.9251,0.9581,0.9642,0.916,0.9949,0.0,1.0311,1.0104,0.9955,0.9933,0.99,0.9904,0.999,0.9789,0.9451,0.893,0.8075,0.7409,0.6973,0.6253,0.5928,0.6048,0.6172,0.6233,0.626,0.635,0.6379,0.6379,0.6401,0.6412,0.6412,0.6412,0.6412,0.6412,0.6412,0.6412,0.6412,0.6412,0.6412,0.6412,0.6412,0.6262,0.6087,0.6087,0.5959,0.5607,0.4452,0.3875,0.3171,0.0756,-0.0732,-0.1592,-0.1592,-0.1592,-0.1592,-0.1592,-0.1592,-0.1592,-0.1592,-0.1592,-0.1592,-0.1592,-0.1592,-0.1592,-0.1592,-0.1622,-0.1635,-0.1691,-0.1689,-0.1716,-0.178,-0.1807,-0.1795,-0.1795,-0.1795,-0.1795,-0.1795,-0.2328,-0.275,-0.2862,-0.3755,-0.4173,-0.3811,-0.4229,-0.4508,-0.4508,-0.462,-0.4901,-0.5382,-0.5409,-0.5409,-0.5409,-0.5409,-0.5409,-0.5382,-0.4789,-0.4173,0.7657,0.7566,0.739,0.7748,0.8658,0.9254,0.8478,0.0,0.9308,0.8948,0.0,0.8848,0.9173,0.0,0.0,0.9087,0.9552,0.9858,0.9795,1.0152,1.0109,0.9284,0.9619,0.9851,0.9663,0.9486,0.9549,0.9966,0.9075,0.8606,0.8895,0.7636,0.6896,0.6824,0.6103,0.5786,0.5923,0.5937,0.5999,0.6132,0.6254,0.6312,0.6314,0.6366,0.6412,0.6412,0.6412,0.6412,0.6412,0.6412,0.6412,0.6412,0.6412,0.6412,0.6412,0.6412,0.5787,0.4985,0.4985,0.4356,0.35,0.3122,0.2014,0.0579,-0.0908,-0.149,-0.1592,-0.1592,-0.1592,-0.1592,-0.1592,-0.1592,-0.1592,-0.1592,-0.1592,-0.1592,-0.1592,-0.1592,-0.1592,-0.1592,-0.1639,-0.1692,-0.1695,-0.1702,-0.1724,-0.1781,-0.1793,-0.1795,-0.1795,-0.1795,-0.1795,-0.1795,-0.2328,-0.2918,-0.3449,-0.3615,-0.3895,-0.4367,-0.4451,-0.4508,-0.4508,-0.5015,-0.5326,-0.5409,-0.5409,-0.5409,-0.5409,-0.5409,-0.5409,-0.5382,-0.4789,-0.4173,0.6601,0.6853,0.7071,0.7245,0.7884,0.8356,0.8009,0.8318,0.8712,0.8801,0.0,0.0,0.0,0.0,0.0,0.0,0.9191,0.932,0.8959,0.9466,0.9866,0.981,0.0,0.0,0.9266,0.9184,0.9108,0.9082,0.8591,0.8076,0.7598,0.7085,0.6605,0.6169,0.5863,0.5735,0.5781,0.5871,0.5928,0.5983,0.62,0.6293,0.6298,0.636,0.6412,0.6412,0.6412,0.6412,0.6412,0.6412,0.6412,0.6412,0.6412,0.6412,0.6337,0.5712,0.5186,0.4684,0.3902,0.3349,0.2795,0.1738,0.0428,-0.0858,-0.1439,-0.1592,-0.1592,-0.1592,-0.1592,-0.1592,-0.1592,-0.1592,-0.1592,-0.1592,-0.1592,-0.1592,-0.1592,-0.1592,-0.1592,-0.1592,-0.1627,-0.1645,-0.1701,-0.1735,-0.1766,-0.1792,-0.1812,-0.1795,-0.1795,-0.1795,-0.1795,-0.1795,-0.2664,-0.3337,-0.3587,-0.3921,-0.4229,-0.4479,-0.4508,-0.4648,-0.5015,-0.5268,-0.5409,-0.5409,-0.5409,-0.5409,-0.5409,-0.5409,-0.5409,-0.5382,-0.4426,-0.3838,0.5943,0.6331,0.6725,0.6674,0.7084,0.7468,0.7427,0.7709,0.8089,0.8419,0.8446,0.0,0.0,0.0,0.8506,0.8437,0.0,0.8836,0.8401,0.8879,0.9419,0.9802,0.0,0.0,0.0,0.8702,0.8546,0.8567,0.0,0.736,0.688,0.6583,0.6219,0.571,0.5688,0.5688,0.5688,0.5792,0.5855,0.5858,0.607,0.6211,0.6246,0.6339,0.6382,0.6412,0.6412,0.6412,0.6412,0.6412,0.6412,0.6412,0.6412,0.6212,0.5862,0.5085,0.4609,0.418,0.282,0.2065,0.1511,0.0353,-0.0757,-0.1592,-0.1592,-0.1592,-0.1592,-0.1592,-0.1592,-0.1592,-0.1592,-0.1592,-0.1592,-0.1592,-0.1592,-0.1592,-0.1592,-0.1592,-0.1592,-0.1592,-0.1624,-0.1637,-0.1684,-0.175,-0.1783,-0.1763,-0.1791,-0.181,-0.181,-0.179,-0.1795,-0.1795,-0.2887,-0.3531,-0.3365,-0.3895,-0.4257,-0.4257,-0.4397,-0.4761,-0.5382,-0.5409,-0.5409,-0.5409,-0.5409,-0.5409,-0.5409,-0.5409,-0.5326,-0.5128,-0.4091,-0.3587,0.0,0.0,0.0,0.5911,0.0,0.0,0.0,0.0,0.7666,0.0,0.7598,0.7681,0.7501,0.7832,0.8038,0.7768,0.8283,0.0,0.0,0.8707,0.8661,0.8495,0.8733,0.0,0.0,0.7956,0.7799,0.0,0.6931,0.0,0.7413,0.6236,0.5589,0.5708,0.5688,0.5688,0.5688,0.5694,0.5716,0.5719,0.5858,0.5977,0.6118,0.6243,0.6333,0.6412,0.6412,0.6412,0.6412,0.6412,0.6412,0.6412,0.6412,0.5762,0.486,0.4809,0.4155,0.3047,0.1713,0.0227,-0.1086,-0.1136,-0.1364,-0.1592,-0.1592,-0.1592,-0.1592,-0.1592,-0.1592,-0.1592,-0.1592,-0.1592,-0.1592,-0.1592,-0.1592,-0.1592,-0.1592,-0.1592,-0.1592,-0.1592,-0.1641,-0.1687,-0.1688,-0.169,-0.17,-0.1701,-0.1758,-0.1806,-0.1806,-0.1805,-0.1795,-0.1795,-0.2887,-0.3365,-0.2778,-0.3281,-0.3615,-0.3615,-0.4173,-0.4761,-0.5382,-0.5409,-0.5409,-0.5409,-0.5409,-0.5409,-0.5409,-0.5409,-0.5098,-0.4508,-0.3895,-0.3587,0.0,0.0,0.6501,0.6199,0.0,0.0,0.0,0.0,0.0,0.0,0.0,0.7637,0.744,0.7413,0.7406,0.7321,0.724,0.7179,0.0,0.726,0.7288,0.722,0.7826,0.8167,0.7996,0.0,0.0,0.0,0.6096,0.0,0.0,0.5673,0.5526,0.5567,0.5648,0.5688,0.5688,0.5688,0.5688,0.5713,0.5827,0.5923,0.5972,0.62,0.6314,0.6331,0.6379,0.6412,0.6412,0.6412,0.6412,0.6337,0.5611,0.511,0.4709,0.4004,0.3073,0.1915,0.0404,-0.0707,-0.1465,-0.1465,-0.1516,-0.1592,-0.1592,-0.1592,-0.1592,-0.1592,-0.1592,-0.1592,-0.1592,-0.1592,-0.1592,-0.1592,-0.1592,-0.1592,-0.1592,-0.1592,-0.1592,-0.1592,-0.1625,-0.1633,-0.1633,-0.1633,-0.1649,-0.1697,-0.1757,-0.1804,-0.1804,-0.1804,-0.1964,-0.2356,-0.2748,-0.3085,-0.3281,-0.3838,-0.4201,-0.4201,-0.4761,-0.5184,-0.5382,-0.5409,-0.5409,-0.5409,-0.5409,-0.5409,-0.5409,-0.5409,-0.5296,-0.507,-0.4063,-0.3391,0.6423,0.645,0.0,0.6179,0.6028,0.0,0.5624,0.0,0.6256,0.0,0.0,0.0,0.684,0.6838,0.6817,0.6719,0.6616,0.6496,0.0,0.6483,0.6597,0.6597,0.7114,0.7399,0.7235,0.6506,0.6051,0.6079,0.5545,0.5292,0.0,0.0,0.5486,0.5505,0.5626,0.5688,0.5688,0.5688,0.5688,0.5691,0.5786,0.5863,0.5909,0.6134,0.6252,0.6298,0.6363,0.6412,0.6412,0.6412,0.6284,0.6012,0.5033,0.4305,0.3703,0.2922,0.1839,0.058,-0.0555,-0.1237,-0.1592,-0.1592,-0.1592,-0.1592,-0.1592,-0.1592,-0.1592,-0.1592,-0.1592,-0.1592,-0.1592,-0.1592,-0.1592,-0.1592,-0.1592,-0.1592,-0.1592,-0.1592,-0.1592,-0.1592,-0.1592,-0.1592,-0.1592,-0.1592,-0.1604,-0.1667,-0.1734,-0.176,-0.176,-0.1963,-0.2272,-0.2665,-0.289,-0.3169,-0.3559,-0.3949,-0.4285,-0.4479,-0.507,-0.5409,-0.5409,-0.5409,-0.5409,-0.5409,-0.5409,-0.5409,-0.5409,-0.5409,-0.5184,-0.4737,-0.3951,-0.3169]},{"header":{"parameterUnit":"m.s-1","parameterCategory":1,"la1":30.6,"la2":29.2853,"lo1":-89.7004,"lo2":-87.6739,"dy":0.0162,"dx":0.0183,"nx":112,"ny":82,"refTime":"2024-09-20T06:00:00:Z","depth":0,"parameterNumber":3,"parameterNumberName":"V-component_of_WINDS"},"data":[0.0,0.0,0.0,0.0,0.0,0.0,0.0,0.0,0.0,0.0,0.0,0.0,0.0,0.0,0.0,0.0,0.0,0.0,0.0,0.0,0.0,0.0,0.0,0.0,0.0,0.0,0.0,0.0,0.0,0.0,0.0,0.0,0.0,0.0,0.0,0.0,0.0,0.0,0.0,0.0,0.0,0.0,0.0,0.0,0.0,0.0,0.0,0.0,0.0,0.0,0.0,0.0,0.0,0.0,0.0,0.0,0.0,0.0,0.0,0.0,0.0,0.0,0.0,0.0,0.0,0.0,0.0,0.0,0.0,0.0,0.0,0.0,0.0,0.0,0.0,0.0,0.0,0.0,0.0,0.0,0.0,0.0,0.0,0.0,0.0,0.0,0.0,0.0,0.0,0.0,2.5363,2.5875,2.7829,2.9089,2.9089,2.8365,2.7613,2.6944,0.0,0.0,0.0,0.0,0.0,0.0,0.0,0.0,0.0,0.0,0.0,0.0,0.0,0.0,0.0,0.0,0.0,0.0,0.0,0.0,0.0,0.0,0.0,0.0,0.0,0.0,0.0,0.0,0.0,0.0,0.0,0.0,0.0,0.0,0.0,0.0,0.0,0.0,0.0,0.0,0.0,0.0,0.0,0.0,0.0,0.0,0.0,0.0,0.0,0.0,0.0,0.0,0.0,0.0,0.0,0.0,0.0,0.0,0.0,0.0,0.0,0.0,0.0,0.0,0.0,0.0,0.0,0.0,0.0,0.0,0.0,0.0,0.0,0.0,0.0,0.0,0.0,0.0,0.0,0.0,0.0,0.0,0.0,0.0,0.0,0.0,0.0,0.0,0.0,0.0,0.0,0.0,0.0,0.0,0.0,0.0,0.0,0.0,0.0,0.0,0.0,0.0,0.0,0.0,2.526,2.7981,2.8765,2.9089,2.9089,2.7865,2.7037,2.6911,0.0,0.0,0.0,0.0,0.0,0.0,0.0,0.0,0.0,0.0,0.0,0.0,0.0,0.0,0.0,0.0,0.0,0.0,0.0,0.0,0.0,0.0,0.0,0.0,0.0,0.0,0.0,0.0,0.0,0.0,0.0,0.0,0.0,0.0,0.0,0.0,0.0,0.0,0.0,0.0,0.0,0.0,0.0,0.0,0.0,0.0,0.0,0.0,0.0,0.0,0.0,0.0,0.0,0.0,0.0,0.0,0.0,0.0,0.0,0.0,0.0,0.0,0.0,0.0,0.0,0.0,0.0,0.0,0.0,0.0,0.0,0.0,0.0,0.0,0.0,0.0,0.0,0.0,0.0,0.0,0.0,0.0,0.0,0.0,0.0,0.0,0.0,0.0,0.0,0.0,0.0,0.0,0.0,0.0,0.0,0.0,0.0,0.0,0.0,0.0,0.0,0.0,0.0,2.5229,2.6361,2.8859,2.9106,2.9134,2.9251,2.781,2.6907,2.6907,2.4248,0.0,0.0,0.0,0.0,0.0,0.0,0.0,0.0,0.0,0.0,0.0,0.0,0.0,0.0,0.0,0.0,0.0,0.0,0.0,0.0,0.0,0.0,0.0,0.0,0.0,0.0,0.0,0.0,0.0,0.0,0.0,0.0,0.0,0.0,0.0,0.0,0.0,0.0,0.0,0.0,0.0,0.0,0.0,0.0,0.0,0.0,0.0,0.0,0.0,0.0,0.0,0.0,0.0,0.0,0.0,0.0,0.0,0.0,0.0,0.0,0.0,0.0,0.0,0.0,0.0,0.0,0.0,0.0,0.0,0.0,0.0,0.0,0.0,0.0,0.0,0.0,0.0,0.0,0.0,0.0,0.0,0.0,0.0,0.0,0.0,0.0,0.0,0.0,0.0,0.0,0.0,0.0,0.0,0.0,0.0,0.0,0.0,0.0,0.0,0.0,0.0,0.0,2.692,2.7824,2.9274,2.9278,2.9235,2.9391,2.7859,2.6907,2.6907,2.3888,0.0,0.0,0.0,0.0,0.0,0.0,0.0,0.0,0.0,0.0,0.0,0.0,0.0,0.0,0.0,0.0,0.0,0.0,0.0,0.0,0.0,0.0,0.0,0.0,0.0,0.0,0.0,0.0,0.0,0.0,0.0,0.0,0.0,0.0,0.0,0.0,0.0,0.0,0.0,0.0,0.0,0.0,0.0,0.0,0.0,0.0,0.0,0.0,0.0,0.0,0.0,0.0,0.0,0.0,0.0,0.0,0.0,0.0,0.0,0.0,0.0,0.0,0.0,0.0,0.0,0.0,0.0,0.0,0.0,0.0,0.0,0.0,0.0,0.0,0.0,0.0,0.0,0.0,0.0,0.0,0.0,0.0,0.0,0.0,0.0,0.0,0.0,0.0,0.0,0.0,0.0,0.0,0.0,0.0,0.0,0.0,0.0,0.0,0.0,0.0,0.0,0.0,2.7747,2.9279,2.9477,2.9429,2.9386,2.9402,2.7859,2.6907,2.6907,2.3888,0.0,0.0,0.0,0.0,0.0,0.0,0.0,0.0,0.0,0.0,0.0,0.0,0.0,0.0,0.0,0.0,0.0,0.0,0.0,0.0,0.0,0.0,0.0,0.0,0.0,0.0,0.0,0.0,0.0,0.0,0.0,0.0,0.0,0.0,0.0,0.0,0.0,0.0,0.0,0.0,0.0,0.0,0.0,0.0,0.0,0.0,0.0,0.0,0.0,0.0,0.0,0.0,0.0,0.0,0.0,0.0,0.0,0.0,0.0,0.0,0.0,0.0,0.0,0.0,0.0,0.0,0.0,0.0,0.0,0.0,0.0,0.0,0.0,0.0,0.0,0.0,0.0,0.0,0.0,0.0,0.0,0.0,0.0,0.0,0.0,0.0,0.0,0.0,0.0,0.0,0.0,0.0,0.0,0.0,0.0,0.0,0.0,0.0,0.0,0.0,0.0,0.0,2.7314,2.8809,2.9556,2.9388,2.9315,2.9578,2.7961,2.6995,2.7081,0.0,0.0,0.0,0.0,0.0,0.0,0.0,0.0,0.0,0.0,0.0,0.0,0.0,0.0,0.0,0.0,0.0,0.0,0.0,0.0,0.0,0.0,0.0,0.0,0.0,0.0,0.0,0.0,0.0,0.0,0.0,0.0,0.0,0.0,0.0,0.0,0.0,0.0,0.0,0.0,0.0,0.0,0.0,0.0,0.0,0.0,0.0,0.0,0.0,0.0,0.0,0.0,0.0,0.0,0.0,0.0,0.0,0.0,0.0,0.0,0.0,0.0,0.0,0.0,0.0,0.0,0.0,0.0,0.0,0.0,0.0,0.0,0.0,0.0,0.0,0.0,0.0,0.0,0.0,0.0,0.0,0.0,0.0,0.0,0.0,0.0,0.0,0.0,0.0,0.0,0.0,0.0,0.0,0.0,0.0,0.0,0.0,0.0,0.0,0.0,0.0,0.0,2.5909,2.7526,2.8847,2.9654,2.9466,2.9279,2.9284,2.7931,2.6883,2.6441,0.0,0.0,0.0,0.0,0.0,0.0,0.0,0.0,0.0,0.0,0.0,0.0,0.0,0.0,0.0,0.0,0.0,0.0,0.0,0.0,0.0,0.0,0.0,0.0,0.0,0.0,0.0,0.0,0.0,0.0,0.0,0.0,0.0,0.0,0.0,0.0,0.0,0.0,0.0,0.0,0.0,0.0,0.0,0.0,0.0,0.0,0.0,0.0,0.0,0.0,0.0,0.0,0.0,0.0,0.0,0.0,0.0,0.0,0.0,0.0,0.0,0.0,0.0,0.0,0.0,0.0,0.0,0.0,0.0,0.0,0.0,0.0,0.0,0.0,0.0,0.0,0.0,0.0,0.0,0.0,0.0,0.0,0.0,0.0,0.0,0.0,0.0,0.0,0.0,0.0,0.0,0.0,0.0,0.0,0.0,0.0,0.0,0.0,0.0,0.0,0.0,0.0,2.6985,2.8663,2.9724,2.9795,2.9742,2.9345,2.8472,2.7651,2.6483,0.0,0.0,0.0,0.0,0.0,0.0,0.0,0.0,0.0,0.0,0.0,0.0,0.0,0.0,0.0,0.0,0.0,0.0,0.0,0.0,0.0,0.0,0.0,0.0,0.0,0.0,0.0,0.0,0.0,0.0,0.0,0.0,0.0,0.0,0.0,0.0,0.0,0.0,0.0,0.0,0.0,0.0,0.0,0.0,0.0,0.0,0.0,0.0,0.0,0.0,0.0,0.0,0.0,0.0,0.0,0.0,0.0,0.0,0.0,0.0,0.0,0.0,0.0,0.0,0.0,0.0,0.0,0.0,0.0,0.0,0.0,0.0,0.0,0.0,0.0,0.0,0.0,0.0,0.0,0.0,0.0,0.0,0.0,0.0,0.0,0.0,0.0,0.0,0.0,0.0,0.0,0.0,0.0,0.0,0.0,0.0,0.0,0.0,0.0,0.0,0.0,0.0,0.0,2.7059,2.8732,2.9799,2.9866,2.9764,2.9399,2.8671,2.7792,2.6596,2.5018,0.0,0.0,0.0,0.0,0.0,0.0,0.0,0.0,0.0,0.0,0.0,0.0,0.0,0.0,0.0,0.0,0.0,0.0,0.0,0.0,0.0,0.0,0.0,0.0,0.0,0.0,0.0,0.0,0.0,0.0,0.0,0.0,0.0,0.0,0.0,0.0,0.0,0.0,0.0,0.0,0.0,0.0,0.0,0.0,0.0,0.0,0.0,0.0,0.0,0.0,0.0,0.0,0.0,0.0,0.0,0.0,0.0,0.0,0.0,0.0,0.0,0.0,0.0,0.0,0.0,0.0,0.0,0.0,0.0,0.0,0.0,0.0,0.0,0.0,0.0,0.0,0.0,0.0,0.0,0.0,0.0,0.0,0.0,0.0,0.0,0.0,0.0,0.0,0.0,0.0,0.0,0.0,0.0,0.0,0.0,0.0,0.0,0.0,0.0,0.0,0.0,0.0,2.7571,2.9011,2.999,3.0385,3.0031,2.95,2.8767,2.788,2.6703,2.5095,0.0,0.0,0.0,0.0,0.0,0.0,0.0,0.0,0.0,0.0,0.0,0.0,0.0,0.0,0.0,0.0,0.0,0.0,0.0,0.0,0.0,0.0,0.0,0.0,0.0,0.0,0.0,0.0,0.0,0.0,0.0,0.0,0.0,0.0,0.0,0.0,0.0,0.0,0.0,0.0,0.0,0.0,0.0,0.0,0.0,0.0,0.0,0.0,0.0,0.0,0.0,0.0,0.0,0.0,0.0,0.0,0.0,0.0,0.0,0.0,0.0,0.0,0.0,0.0,0.0,0.0,0.0,0.0,0.0,0.0,0.0,0.0,0.0,0.0,0.0,0.0,0.0,0.0,0.0,0.0,0.0,0.0,0.0,0.0,0.0,0.0,0.0,0.0,0.0,0.0,0.0,0.0,0.0,0.0,0.0,0.0,0.0,0.0,0.0,0.0,0.0,0.0,2.8294,2.9363,3.0238,3.1113,3.0427,2.957,2.8775,2.8032,2.6865,2.5117,0.0,0.0,0.0,0.0,0.0,0.0,0.0,0.0,0.0,0.0,0.0,0.0,0.0,0.0,0.0,0.0,0.0,0.0,0.0,0.0,0.0,0.0,0.0,0.0,0.0,0.0,0.0,0.0,0.0,0.0,0.0,0.0,0.0,0.0,0.0,0.0,0.0,0.0,0.0,0.0,0.0,0.0,0.0,0.0,0.0,0.0,0.0,0.0,0.0,0.0,0.0,0.0,0.0,0.0,0.0,0.0,0.0,0.0,0.0,0.0,2.1469,0.0,0.0,0.0,0.0,0.0,0.0,0.0,0.0,0.0,0.0,0.0,0.0,0.0,0.0,0.0,0.0,0.0,0.0,0.0,0.0,0.0,0.0,0.0,0.0,0.0,0.0,0.0,0.0,0.0,0.0,0.0,0.0,0.0,0.0,0.0,0.0,0.0,0.0,0.0,0.0,0.0,2.8354,2.9392,3.0238,3.1113,3.0427,2.957,2.8775,2.8532,2.746,2.5155,2.4014,0.0,0.0,0.0,0.0,0.0,0.0,0.0,0.0,0.0,0.0,0.0,0.0,0.0,0.0,0.0,0.0,0.0,0.0,0.0,0.0,0.0,0.0,0.0,0.0,0.0,0.0,0.0,0.0,0.0,0.0,0.0,0.0,0.0,0.0,0.0,0.0,0.0,0.0,0.0,0.0,0.0,0.0,0.0,0.0,0.0,0.0,0.0,0.0,0.0,0.0,0.0,0.0,0.0,0.0,0.0,0.0,0.0,0.0,0.0,0.0,2.2839,0.0,0.0,0.0,0.0,0.0,0.0,0.0,0.0,0.0,0.0,0.0,0.0,0.0,0.0,0.0,0.0,0.0,0.0,0.0,0.0,0.0,0.0,0.0,0.0,0.0,0.0,0.0,0.0,0.0,0.0,0.0,0.0,0.0,0.0,0.0,0.0,0.0,0.0,0.0,0.0,2.9476,3.0276,3.0844,3.1682,3.1033,3.0181,2.9343,2.8926,2.8154,2.6854,2.5227,0.0,0.0,0.0,0.0,0.0,0.0,0.0,0.0,0.0,0.0,0.0,0.0,0.0,0.0,0.0,0.0,0.0,0.0,0.0,0.0,0.0,0.0,0.0,0.0,0.0,0.0,0.0,0.0,0.0,0.0,0.0,0.0,0.0,0.0,0.0,0.0,0.0,0.0,0.0,0.0,0.0,0.0,0.0,0.0,0.0,0.0,0.0,0.0,0.0,0.0,0.0,0.0,0.0,2.7413,2.7924,2.883,2.829,2.8535,2.9241,2.6967,2.5737,2.532,2.5052,0.0,0.0,0.0,0.0,0.0,0.0,0.0,0.0,0.0,0.0,0.0,0.0,0.0,0.0,0.0,0.0,0.0,0.0,0.0,0.0,0.0,0.0,0.0,0.0,3.0055,2.9878,0.0,0.0,0.0,0.0,0.0,0.0,0.0,0.0,0.0,0.0,0.0,0.0,3.0697,3.1322,3.1663,3.2326,3.1682,3.0844,2.9968,2.9286,2.8851,2.8699,2.6778,2.5265,0.0,0.0,0.0,0.0,0.0,0.0,0.0,0.0,0.0,0.0,0.0,0.0,0.0,0.0,0.0,0.0,0.0,0.0,0.0,0.0,0.0,0.0,0.0,0.0,0.0,0.0,0.0,0.0,0.0,0.0,0.0,0.0,1.8881,2.0458,0.0,0.0,0.0,0.0,0.0,0.0,0.0,0.0,0.0,0.0,0.0,0.0,0.0,2.7355,2.7373,3.0426,3.0985,2.9116,3.2386,3.3067,3.1424,3.1979,3.2724,3.3492,3.1775,0.0,2.7806,2.6464,0.0,0.0,0.0,0.0,0.0,0.0,0.0,0.0,0.0,0.0,0.0,0.0,0.0,0.0,0.0,0.0,0.0,0.0,0.0,0.0,0.0,0.0,3.0939,3.0939,3.0586,3.0255,0.0,2.8628,2.6881,2.6013,2.5293,0.0,0.0,0.0,0.0,0.0,0.0,0.0,3.0848,3.1814,3.2288,3.2383,3.1682,3.0844,2.9968,2.9798,2.9438,2.8737,2.84,2.7854,2.7035,2.5496,0.0,0.0,0.0,0.0,0.0,0.0,0.0,0.0,0.0,0.0,0.0,0.0,0.0,0.0,0.0,0.0,0.0,0.0,0.0,0.0,0.0,0.0,0.0,0.0,0.0,0.0,0.0,0.0,0.0,1.8462,2.0301,2.1668,2.1728,2.1647,0.0,0.0,0.0,0.0,0.0,0.0,0.0,0.0,0.0,2.8219,2.9811,3.0681,3.0757,3.3038,3.3711,3.2795,3.4503,3.4811,3.393,3.4253,3.4669,3.5091,3.4387,3.3509,3.2358,2.9798,2.802,2.6856,0.0,0.0,0.0,0.0,2.717,2.8027,2.8882,2.9265,0.0,2.8658,0.0,0.0,0.0,0.0,0.0,0.0,0.0,0.0,0.0,0.0,3.4177,3.4177,3.423,3.4416,3.4756,3.3602,3.1817,0.0,2.8749,2.804,2.665,0.0,0.0,0.0,0.0,2.9292,3.2236,3.2918,3.3126,3.3126,3.2823,3.2061,3.073,3.0635,3.0276,2.9419,2.8945,2.8532,2.8199,2.705,2.577,0.0,0.0,0.0,0.0,0.0,0.0,0.0,0.0,0.0,0.0,0.0,0.0,0.0,0.0,0.0,0.0,0.0,0.0,0.0,0.0,0.0,0.0,0.0,0.0,0.0,0.0,0.0,0.0,2.0372,2.1716,2.2826,2.3282,2.3476,0.0,0.0,0.0,0.0,0.0,0.0,2.8631,2.9125,2.9945,3.13,3.2888,3.3754,3.3843,3.521,3.595,3.6036,3.6036,3.6069,3.6141,3.6141,3.6209,3.6335,3.611,3.6069,3.5858,3.274,3.0795,2.9717,2.9301,2.9165,2.9312,3.0148,3.0986,3.184,3.27,3.327,3.3396,3.206,3.1184,3.046,2.9373,0.0,0.0,0.0,0.0,3.3311,3.4304,3.564,3.6727,3.6727,3.7184,3.7632,3.7623,3.7166,3.5857,0.0,3.2054,3.1206,2.9163,0.0,0.0,0.0,2.9737,3.0736,3.3375,3.3921,3.3959,3.375,3.3731,3.3143,3.1682,3.1569,3.1284,3.0635,2.9819,2.9364,2.9364,2.8373,2.7252,2.6001,0.0,0.0,0.0,0.0,0.0,0.0,0.0,0.0,0.0,0.0,0.0,0.0,0.0,0.0,0.0,0.0,0.0,0.0,0.0,0.0,0.0,0.0,0.0,0.0,0.0,0.0,0.0,0.0,0.0,2.4429,2.6495,0.0,0.0,0.0,0.0,2.7613,2.8971,3.0249,3.1263,3.2692,3.3637,3.392,3.553,3.6405,3.6414,3.7317,3.7773,3.7764,3.7764,3.7799,3.7866,3.7866,3.7953,3.8037,3.7277,3.6932,3.6759,3.428,3.3223,3.3005,3.1473,3.0883,3.098,3.1853,3.2692,3.352,3.4523,3.4345,3.3943,3.5485,3.4385,3.2733,3.4156,3.246,0.0,0.0,3.4341,3.471,3.6027,3.6997,3.7631,3.7631,3.767,3.7699,3.7697,3.7669,3.7083,0.0,3.4245,3.3392,3.2489,0.0,3.1366,3.2276,3.2409,3.2733,3.368,3.4517,3.4707,3.3889,3.3794,3.3452,3.2599,3.2523,3.2504,3.2466,3.1648,3.1172,3.1172,2.9596,2.8686,2.861,2.6298,0.0,0.0,0.0,0.0,0.0,0.0,0.0,0.0,0.0,0.0,0.0,0.0,0.0,0.0,0.0,0.0,0.0,0.0,0.0,0.0,0.0,0.0,0.0,0.0,0.0,0.0,0.0,0.0,2.7495,2.8636,0.0,2.9164,2.9654,3.0456,3.1574,3.2735,3.3972,3.5339,3.6444,3.7317,3.7945,3.8536,3.8896,3.8968,3.9292,3.9203,3.8734,3.8734,3.8516,3.814,3.814,3.8157,3.8191,3.7932,3.7848,3.7776,3.695,3.5978,3.4951,3.437,3.4189,3.4324,3.5147,3.5684,3.6054,3.6373,3.6333,3.6164,3.6266,3.5798,3.5307,3.6062,3.5567,3.5104,3.688,3.74,3.7643,3.8684,3.9159,3.937,3.937,3.937,3.9365,3.937,3.9366,3.9017,3.784,3.686,3.5995,3.5183,3.4783,3.4694,3.4996,3.5051,3.5337,3.6134,3.6029,3.5754,3.5431,3.4959,3.4293,3.3441,3.3365,3.3156,3.2623,3.1785,3.129,3.129,3.0228,2.9385,2.8874,2.8077,2.6477,0.0,0.0,0.0,0.0,0.0,0.0,0.0,0.0,0.0,0.0,0.0,0.0,0.0,0.0,0.0,0.0,0.0,0.0,0.0,0.0,0.0,0.0,0.0,0.0,0.0,2.6234,2.7919,2.9687,3.0672,3.1405,3.1855,3.2397,3.3415,3.5091,3.5963,3.6988,3.8317,3.8907,3.95,4.0077,4.0161,4.0236,4.0328,4.0365,4.0113,3.9643,3.9643,3.9407,3.8979,3.9013,3.9049,3.9039,3.8824,3.873,3.872,3.8494,3.7763,3.6765,3.6752,3.6776,3.6884,3.7429,3.7703,3.7775,3.7764,3.7836,3.783,3.7389,3.7322,3.7481,3.7753,3.7941,3.8221,3.9079,3.929,3.9462,4.0134,4.0306,4.0306,4.0306,4.0306,4.031,4.031,4.0291,4.0147,3.9587,3.8702,3.7812,3.6985,3.6847,3.6834,3.6835,3.6849,3.7025,3.7574,3.7127,3.6779,3.6779,3.6055,3.535,3.4759,3.4188,3.3753,3.3487,3.2133,3.1463,3.1767,3.0723,2.9879,2.9348,2.8908,2.7477,2.5006,0.0,0.0,0.0,0.0,0.0,0.0,0.0,0.0,0.0,0.0,0.0,0.0,0.0,0.0,0.0,0.0,0.0,0.0,0.0,0.0,0.0,0.0,0.0,2.6883,2.8544,3.0136,3.0959,3.2761,3.3754,3.333,3.4828,3.6459,3.7947,3.8577,3.92,3.9904,4.0091,4.0176,4.0176,4.0364,4.0483,4.0474,4.0547,4.0555,4.0528,4.0537,4.0537,4.0501,4.0634,4.0705,4.065,3.9953,3.9649,3.9576,3.88,3.8519,3.8575,3.8449,3.8417,3.8415,3.8486,3.851,3.8525,3.8655,3.8715,3.8757,3.9024,3.9115,3.9151,3.9427,3.9508,3.9575,3.9829,3.9914,3.9967,4.0239,4.0306,4.0306,4.0306,4.0306,4.0305,4.0298,4.0326,4.0359,4.0398,3.9686,3.8806,3.7927,3.7774,3.7774,3.7774,3.7774,0.0,3.7774,3.7755,3.7736,3.7736,3.702,3.6538,3.65,3.5018,3.4392,3.511,3.2818,3.1821,3.2676,3.1121,3.023,3.026,2.8736,2.7594,2.6889,0.0,0.0,0.0,0.0,0.0,0.0,0.0,0.0,0.0,0.0,0.0,0.0,0.0,0.0,0.0,0.0,0.0,0.0,0.0,0.0,0.0,2.7577,2.9382,2.9383,3.1246,3.3117,3.4509,3.5704,3.6696,3.7451,3.8253,3.8911,3.9345,4.0138,4.0701,4.0898,4.1551,4.1962,4.2039,4.2115,4.2163,4.222,4.2221,4.1959,4.1361,4.1461,4.1215,4.0661,4.0721,4.0772,4.0772,4.0656,4.0625,4.0607,4.0427,4.0376,4.0256,3.8967,3.8536,3.8619,3.8643,3.865,3.8689,3.8906,3.9,3.9031,3.9294,3.9389,3.9446,3.9775,3.9832,3.9846,4.01,4.0191,4.0201,4.0271,4.0345,4.0367,4.0367,4.0367,4.0372,4.0366,4.0873,4.1126,4.0522,4.07,4.0674,3.9739,3.9588,3.9599,3.9599,3.9599,0.0,3.9599,3.9026,3.8648,3.8648,3.7884,3.7135,3.6557,3.6084,3.5396,3.4392,3.3085,3.2451,3.2695,3.1691,3.1199,3.1284,2.9769,2.8905,0.0,0.0,0.0,0.0,0.0,0.0,0.0,0.0,0.0,0.0,0.0,0.0,0.0,0.0,0.0,0.0,0.0,0.0,0.0,0.0,0.0,0.0,3.04,3.2373,3.3038,3.3873,3.5151,3.7157,3.7675,3.8343,3.9585,3.9956,4.0253,4.0621,4.1371,4.1817,4.1838,4.2367,4.2725,4.2793,4.2841,4.289,4.2984,4.2984,4.2767,4.2323,4.2405,4.2204,4.1758,4.1845,4.1889,4.187,4.1645,4.1532,4.1522,4.1256,4.1142,0.0,0.0,0.0,0.0,0.0,3.8742,3.8773,3.895,3.9087,3.9288,3.9889,4.0165,4.038,4.102,4.1193,4.1197,4.1355,4.1396,4.1396,4.1396,4.1414,4.1451,4.1451,4.1451,4.1455,4.1477,4.1888,4.2104,4.1618,4.1916,0.0,4.1044,4.0574,4.0346,4.0346,4.0346,4.0346,4.0346,3.9906,3.9586,3.9586,3.8801,3.8097,3.7634,3.6639,0.0,0.0,0.0,3.274,3.274,3.2347,0.0,0.0,0.0,0.0,0.0,0.0,0.0,0.0,3.0256,3.0353,0.0,0.0,0.0,0.0,0.0,0.0,0.0,0.0,0.0,0.0,0.0,0.0,0.0,0.0,0.0,0.0,3.3683,3.5673,3.6882,3.6283,3.661,3.9052,3.8966,3.9185,4.0403,4.0602,4.0969,4.1721,4.2246,4.2556,4.2619,0.0,0.0,0.0,0.0,4.2984,4.3095,4.3104,4.3142,4.3205,4.3224,4.3233,4.3233,4.3349,4.3402,4.3366,4.2711,4.2433,4.2386,4.1734,4.148,4.1469,4.1242,4.0695,3.9984,3.9326,3.9091,3.9106,3.9191,0.0,0.0,4.0757,4.1252,4.1615,4.2617,4.2902,4.2898,4.2902,4.2907,4.2907,4.2907,4.2926,4.2911,4.2911,4.2911,4.2944,4.3007,4.3073,4.3144,4.3115,4.3137,4.2862,4.2012,4.114,4.0503,4.0407,4.0407,4.0407,4.0407,4.0407,4.0407,4.0407,0.0,0.0,3.9112,3.7087,3.6036,3.6566,3.4483,3.3231,3.3251,3.3462,3.3581,3.3542,3.3628,3.4099,3.4999,3.5779,3.6208,3.6228,3.3008,3.2753,0.0,0.0,0.0,0.0,0.0,0.0,0.0,0.0,0.0,0.0,0.0,0.0,0.0,0.0,0.0,3.3139,3.5287,3.7102,3.7846,3.7774,3.8274,3.9968,4.0094,4.037,4.1214,4.1778,4.2155,4.2336,4.2588,4.2763,4.2764,4.2842,4.2881,4.2881,4.3002,4.3058,4.3095,4.316,4.3187,4.3205,0.0,0.0,4.3358,4.3437,4.348,4.3462,4.3332,4.3267,4.3258,4.316,4.3207,4.3162,4.1852,4.1254,4.1095,4.0945,4.0897,4.0917,4.1102,4.1185,4.1348,4.2056,4.2262,4.2372,4.2901,4.2994,0.0,4.2966,4.2979,4.2979,4.2979,4.302,4.306,4.306,4.306,4.3064,4.3073,4.3596,4.3865,4.322,4.362,4.3788,4.2977,4.2063,4.1216,4.0503,4.0407,4.0407,4.0407,4.0407,4.0407,4.0407,4.0253,3.9855,3.9169,3.8651,3.7873,3.6673,3.614,3.5914,3.6026,3.6781,3.6924,3.6335,3.6449,3.6598,3.68,3.6963,3.7416,3.806,3.6621,3.6223,0.0,0.0,0.0,0.0,0.0,0.0,0.0,0.0,0.0,0.0,0.0,2.9141,3.0419,0.0,3.4623,3.5286,3.6719,3.793,3.8476,3.9142,3.9715,4.0157,4.0474,4.0895,4.1536,4.2187,4.2586,4.2645,4.2735,4.2812,4.2852,4.2881,4.2929,4.2994,4.3077,4.3151,4.3251,4.3278,4.3313,4.3339,4.341,4.3455,4.3455,4.3489,4.3523,4.3539,4.3539,4.3592,4.3661,4.3726,4.3808,4.3823,4.3016,4.2413,4.1962,4.1587,4.1454,4.1466,4.1597,4.1724,4.1934,4.2816,4.3153,4.3345,4.4112,4.431,4.426,4.4286,4.429,4.429,4.429,4.4327,4.4359,4.4359,4.4359,4.4359,4.4359,4.4667,4.4821,4.4436,4.4686,4.4686,4.3835,4.3321,4.2576,4.1285,4.1093,4.0939,4.0502,4.0444,4.0444,4.0444,4.0444,4.0271,3.9833,3.943,3.8662,3.7383,3.7306,3.734,3.7451,3.7971,3.8089,3.7762,3.7881,3.8156,3.8545,3.8998,3.9644,4.0503,4.0461,3.9989,0.0,0.0,0.0,0.0,0.0,0.0,0.0,2.5671,2.6918,2.8279,3.0383,3.2422,3.3958,3.5228,3.6345,3.7182,3.8106,3.882,3.9102,4.0183,4.0751,4.0268,4.0827,4.1404,4.1839,4.2333,4.2678,4.2783,4.2812,4.2852,4.2929,4.2938,4.2994,4.3123,4.3151,4.3233,4.3403,4.3402,4.3455,4.3506,4.3505,4.3513,4.3513,4.3549,4.3592,4.3642,4.3642,4.3719,4.3829,4.3883,4.3945,4.4005,4.4005,4.3537,4.2805,4.2193,4.1994,4.1983,4.2051,4.2171,4.2478,4.3491,4.3948,4.4277,4.5288,4.5594,4.5594,4.5594,4.5594,4.5594,4.5594,4.5594,4.5594,4.5594,4.5594,4.5594,4.5594,4.5594,4.5594,4.5594,4.5594,4.5379,4.4667,4.4551,4.397,4.2293,4.2043,4.1797,4.1108,4.0858,4.0743,4.0743,4.0593,4.0496,4.0496,3.9919,3.9246,3.8557,3.8528,3.8559,3.8642,3.8766,3.8854,3.8919,3.9032,3.9493,4.0312,4.1016,4.1796,4.2674,4.3559,4.3109,2.2674,2.3077,2.3869,2.5358,2.578,2.6684,0.0,3.0775,3.1305,3.2774,3.4338,3.5494,3.5723,3.7265,3.8411,3.8124,3.9493,4.0482,4.0112,4.0657,4.1053,4.0984,4.1825,4.2424,4.2492,4.2668,4.2783,4.2793,4.2861,4.2938,4.3058,4.3086,4.3114,4.3187,4.3305,4.3376,4.3403,4.3454,4.3497,4.3506,4.3556,4.3582,4.3582,4.3711,4.3771,4.3788,4.3788,4.3818,4.3899,4.3907,4.3945,4.4005,4.4005,4.3941,4.3833,4.3748,4.3729,4.3711,4.3726,4.3749,4.386,4.448,4.468,4.4811,4.5424,4.5594,4.5594,4.5594,4.5594,4.5594,4.5594,4.5594,4.5594,4.5594,4.5594,4.5594,4.5594,4.5594,4.5594,4.5594,4.5594,4.5575,4.5475,4.5455,4.4898,4.3201,4.2951,4.2912,4.2816,4.2124,4.1658,4.1658,4.0954,4.0496,4.0496,4.0419,4.0354,4.0311,4.0375,4.0452,4.058,4.0662,4.0738,4.081,4.0812,4.1243,4.2102,4.2219,4.2707,4.3587,4.4445,4.4345,2.5192,2.5961,2.6765,2.78,2.9036,3.0377,3.1901,3.2911,3.3822,3.4866,3.6257,3.7297,3.7382,3.8417,3.9205,3.9083,3.9942,4.0552,4.0334,4.1064,4.1452,4.099,4.2014,4.2642,4.2279,4.2622,4.289,4.2973,4.3002,4.3068,4.3142,4.3169,4.3215,4.3314,4.3358,4.3429,4.3524,4.3531,4.36,4.3678,4.3703,4.3719,4.3719,4.3761,4.3829,4.3859,4.3897,4.3937,4.3968,4.3968,4.3974,4.4005,4.4005,4.4005,4.4005,4.4005,4.4005,4.4005,4.4005,4.4005,4.4064,4.4431,4.4669,4.4861,4.5248,4.5481,4.5594,4.5594,4.5594,4.5594,4.5594,4.5594,4.5594,4.5594,4.5594,4.5594,4.5594,4.5594,4.5594,4.5594,4.5594,4.5594,4.5594,4.5594,4.5359,4.4667,4.4128,4.3624,4.3162,4.2777,4.2566,4.2566,4.1777,4.1258,4.1258,4.0781,4.0531,4.0603,4.0665,4.0983,4.1638,4.1713,4.2038,4.2591,4.2611,4.2787,4.3158,4.3666,4.4095,4.4486,4.5347,4.5562,2.7265,2.8426,2.946,3.0145,3.1967,3.3613,3.3659,3.4785,3.5971,3.6539,3.7667,3.8602,3.8689,3.9174,3.959,3.9677,4.0108,4.0509,4.0625,4.1277,4.1645,4.1407,4.2122,4.2534,4.2314,4.2692,4.2994,4.3095,4.3123,4.3169,4.3251,4.3251,4.3331,4.3446,4.3455,4.3524,4.3659,4.3659,4.3693,4.3796,4.382,4.3837,4.3837,4.3843,4.3891,4.3929,4.3981,4.4005,4.4005,4.4005,4.4036,4.4074,4.402,4.4059,4.4136,4.409,4.4044,4.4005,4.4005,4.4005,4.4056,4.4402,4.4644,4.4855,4.5206,4.5443,4.5594,4.5627,4.5631,4.5635,4.5629,4.5629,4.5629,4.5629,4.5629,4.5629,4.5629,4.5629,4.5629,4.5629,4.5629,4.5629,4.5629,4.5629,4.5629,4.5629,4.509,4.4489,4.3899,4.3618,4.3392,4.3141,4.2564,4.2198,4.2198,4.1605,4.1278,4.1315,4.1411,4.1798,4.2535,4.2638,4.3011,4.3688,4.3708,4.3825,4.406,4.4684,4.5113,4.5367,4.6014,4.6308,2.816,2.9897,3.1692,3.2426,3.4253,3.593,3.6071,3.7136,3.8138,3.8293,3.8935,3.9468,3.9468,3.9586,3.969,3.9703,4.0195,4.0755,4.1213,4.1121,4.1481,4.2699,4.2295,4.2241,4.2995,4.3086,4.3095,4.3095,4.3169,4.3251,4.3394,4.3394,4.3455,4.3582,4.359,4.3659,4.3796,4.3796,4.3796,4.3796,4.3867,4.3907,4.3897,4.3958,4.3997,4.3997,4.4005,4.4005,4.4005,4.4005,4.4105,4.427,4.4085,4.4196,4.4473,4.4336,4.4169,4.4005,4.4005,4.4005,4.4094,4.463,4.4788,4.4909,4.5429,4.5586,4.5603,4.5684,4.5697,4.5709,4.5692,4.5704,4.5704,4.5704,4.5704,4.5704,4.5704,4.5704,4.5704,4.5704,4.5704,4.5704,4.5704,4.5704,4.5704,4.5704,4.5661,4.5649,4.5628,4.4943,4.4122,4.3292,4.3176,4.3157,4.3157,4.3138,4.3118,4.3118,4.3316,4.3428,4.3468,4.3599,4.3672,4.3691,4.3691,4.4121,4.4961,4.498,4.543,4.6269,4.6289,4.6308,3.0082,3.1606,3.3,3.4731,3.6455,3.774,3.779,3.8517,3.9209,3.9245,3.9061,3.8923,3.9012,3.8673,3.8563,3.9139,3.9663,4.0343,4.1289,4.171,4.2003,4.2213,4.2541,4.2659,4.2404,4.285,4.3205,4.3296,4.3314,4.3376,4.3454,4.3506,4.3558,4.3599,4.3694,4.3777,4.3867,4.3867,4.3899,4.3937,4.3968,4.3966,4.3966,4.4131,4.4192,4.4199,4.4296,4.434,4.434,4.434,4.4368,4.443,4.4361,4.4397,4.4501,4.4451,4.4383,4.434,4.434,4.434,4.4378,4.4643,4.4849,4.5058,4.5323,4.5528,4.5668,4.568,4.5703,4.5707,4.5704,4.5704,4.5704,4.5704,4.5704,4.5704,4.5704,4.5704,4.5704,4.5704,4.5704,4.5704,4.5704,4.5704,4.5715,4.5762,4.5723,4.57,4.5707,4.5464,4.5187,4.4897,4.4376,4.4068,4.4068,4.3527,4.3241,4.3337,4.3439,4.3786,4.4409,4.4506,4.4824,4.541,4.543,4.5566,4.5859,4.5859,4.6016,4.6308,4.6308,4.6308,3.2003,3.3444,3.4756,3.6705,3.8099,3.9004,3.9055,3.918,3.9318,3.9369,3.8568,3.7876,3.795,3.7417,3.7363,3.8647,3.9118,3.9901,4.1569,4.1915,4.2071,4.2323,4.2649,4.2739,4.252,4.2994,4.3331,4.3403,4.342,4.3454,4.3522,4.3573,4.3632,4.3699,4.3794,4.3867,4.3937,4.3937,4.3981,4.4116,4.4116,4.412,4.4181,4.4303,4.4373,4.438,4.4466,4.4501,4.4501,4.4501,4.4535,4.4565,4.4522,4.457,4.4646,4.4635,4.4699,4.4725,4.4601,4.4568,4.4615,4.4843,4.5025,4.5204,4.5385,4.5556,4.5708,4.5723,4.5746,4.5731,4.5746,4.5731,4.5731,4.5731,4.5731,4.5731,4.5731,4.5731,4.5731,4.5731,4.5731,4.5731,4.5731,4.5731,4.5757,4.5783,4.5765,4.5731,4.5731,4.5731,4.5731,4.5731,4.5267,4.4958,4.4958,4.4456,4.4185,4.4322,4.4381,4.472,4.5345,4.5427,4.5723,4.6289,4.6308,4.6308,4.6308,4.6308,4.6308,4.6308,4.6308,4.6308,3.3918,3.5393,3.688,3.8313,3.9214,3.9738,3.9837,3.9206,3.864,3.8698,3.7504,3.6432,3.6399,3.5942,3.6214,3.8194,3.8559,3.9471,4.2022,4.1723,4.1721,4.3051,4.2646,4.256,4.3339,4.3454,4.3471,4.3402,0.0,4.3522,4.359,4.3607,4.3691,4.3889,4.3897,4.3937,4.4005,4.4013,4.4105,4.43,4.4307,4.438,4.4501,4.4515,4.4515,4.4515,4.4522,4.4528,4.4528,4.4528,4.4592,4.4705,4.4578,4.4699,4.4919,4.4928,4.5051,4.5175,4.485,4.4739,4.48,4.52,4.5319,4.5356,4.5621,4.5712,4.5719,4.5781,4.5811,4.5799,4.5796,4.5803,4.5803,4.5803,4.5803,4.5803,4.5803,4.5803,4.5803,4.5803,4.5803,4.5803,4.5803,4.5803,4.5803,4.5803,4.5803,4.5803,4.5803,4.5803,4.5803,4.5803,4.5803,4.5803,4.5803,4.581,4.5877,4.6002,4.6062,4.6135,4.6204,4.6266,4.6308,4.6308,4.6308,4.6308,4.6308,4.6308,4.6308,4.6307,4.6307,4.6305,3.5598,3.7138,3.8564,3.9492,3.986,3.986,3.9344,3.9066,3.8598,3.7537,3.6528,3.5656,3.511,3.4966,3.546,3.7137,3.79,3.9161,4.169,4.1878,4.2169,4.3223,4.3236,4.3251,4.3453,4.3497,4.3515,4.3549,4.3556,4.3582,4.3599,4.3751,4.3849,4.3897,4.3953,4.3981,4.4005,4.4154,4.4255,4.43,4.4401,4.4473,4.4508,4.4599,4.4652,4.4659,4.4745,4.4808,4.4808,4.4808,4.4827,4.4852,4.4986,4.5049,4.5142,4.5231,4.5302,4.5356,4.5376,4.5304,4.5258,4.5469,4.553,4.5556,4.5719,4.5775,4.5778,4.5809,4.5789,4.5793,4.5803,4.5803,4.5803,4.5803,4.5803,4.5803,4.5803,4.5803,4.5803,4.5803,4.5803,4.5803,4.5803,4.5803,4.5803,4.5803,4.5803,4.5803,4.5803,4.5803,4.5803,4.5803,4.5803,4.5803,4.5803,4.5883,4.5985,4.6064,4.6138,4.6205,4.6267,4.6289,4.6308,4.6308,4.6308,4.6308,4.6308,4.6308,4.6307,4.6307,4.6305,4.6301,3.7349,3.8546,3.9576,3.9994,3.9846,3.9351,3.8321,3.7824,3.709,3.532,3.4601,3.3956,3.2859,3.3271,3.4229,3.563,3.724,3.9129,4.1444,4.2263,4.2818,4.3375,4.348,4.3515,4.3531,4.3539,4.3739,4.4173,4.3826,4.3632,4.3734,4.3841,4.3913,4.3945,4.3981,4.4044,4.4139,4.4229,4.4365,4.4475,4.4551,4.4619,4.4679,4.4745,4.4796,4.4783,0.0,4.4895,4.4895,4.4895,4.4943,4.5032,4.5153,4.524,4.531,4.5448,4.5484,4.5506,4.5641,4.5641,4.5588,4.5661,4.5685,4.57,4.5786,4.5803,4.5803,4.5803,4.5803,4.5803,4.5803,4.5803,4.5803,4.5803,4.5803,4.5803,4.5803,4.5803,4.5803,4.5803,4.5803,4.5803,4.5803,4.5803,4.5803,4.5803,4.5803,4.5803,4.5803,4.5803,4.5803,4.5803,4.5841,4.5899,4.5899,4.599,4.6066,4.6139,4.617,4.6237,4.6308,4.6308,4.6308,4.6308,4.6308,4.6308,4.6308,4.6306,4.6304,4.6302,4.63,4.6295,3.8949,3.9609,4.0096,4.0096,3.9542,3.8618,3.7108,3.6175,3.5029,3.2763,3.2281,3.1856,3.0421,3.147,3.2947,3.4199,3.6625,3.9111,4.1286,4.2496,4.3248,4.347,4.3515,4.3549,4.359,4.3625,4.4008,4.4939,4.4254,4.3929,4.4196,4.4127,4.4056,4.3997,4.4028,4.4113,4.43,4.4336,4.4468,4.4705,4.4725,4.4796,4.4895,4.4895,4.4895,4.4895,4.4895,0.0,4.4931,4.4901,4.5026,4.523,4.523,4.5315,4.5433,4.558,4.5629,4.5645,4.5752,4.5803,4.5803,4.5803,4.5803,4.5803,4.5803,4.5803,4.5803,4.5803,4.5803,4.5803,4.5803,4.5803,4.5803,4.5803,4.5803,4.5803,4.5803,4.5803,4.5803,4.5803,4.5803,4.5803,4.5803,4.5803,4.5803,4.5803,4.5803,4.5803,4.5803,4.5814,4.5821,4.5821,4.5925,4.5998,4.5998,4.607,4.6141,4.6202,4.6208,4.624,4.6308,4.6308,4.6308,4.6308,4.6307,4.6306,4.6306,4.6303,4.6298,4.6293,4.6292,4.6307,3.9711,4.0011,4.0096,4.0096,3.9542,3.8483,3.6452,3.5421,3.4083,3.128,3.0702,3.0421,2.9552,3.0974,3.2763,3.4233,3.624,3.8525,4.1224,4.1778,4.2314,4.3371,4.3539,4.3582,4.3599,4.3711,4.4126,4.5012,4.493,4.516,4.586,4.536,4.4732,4.4023,4.4162,4.427,4.43,4.4517,4.464,4.4712,4.4802,4.487,4.4895,4.4895,4.4895,4.4895,4.4895,0.0,4.5136,4.4961,4.5081,4.5366,4.5366,4.5457,4.5584,4.5711,4.5775,4.5778,4.58,4.5803,4.5803,4.5803,4.5803,4.5803,4.5803,4.5803,4.5803,4.5803,4.5803,4.5803,4.5803,4.5803,4.5803,4.5803,4.5803,4.5803,4.5803,4.5803,4.5803,4.5803,4.5803,4.5803,4.5803,4.5803,4.5803,4.5803,4.5803,4.5803,4.5803,4.5858,4.5873,4.5873,4.5944,4.5996,4.5996,4.6108,4.6188,4.6193,4.6245,4.6289,4.6307,4.6307,4.6306,4.6304,4.6303,4.6303,4.6303,4.6297,4.6294,4.6293,4.6306,4.6302,3.991,4.0096,4.0125,4.0188,3.9047,3.7357,3.5268,3.3922,3.2252,2.9342,2.9351,2.9539,2.8424,3.0074,3.1872,3.2652,3.4887,3.7421,4.0049,4.0933,4.1871,4.3342,4.3556,4.3634,4.3703,4.4163,4.4854,4.576,4.6224,4.6428,4.6409,4.6098,4.5762,4.541,4.5095,4.499,4.5129,4.4834,4.4744,4.4796,4.4864,4.4895,4.4895,4.4895,4.4895,4.4895,4.4895,0.0,4.5192,4.5103,4.5234,4.5502,4.5502,4.5588,4.5708,4.5786,4.5803,4.5803,4.5803,4.5803,4.5803,4.5803,4.5803,4.5803,4.5803,4.5803,4.5803,4.5803,4.5803,4.5803,4.5803,4.5803,4.5803,4.5803,4.5803,4.5803,4.5803,4.5803,4.5803,4.5803,4.5803,4.5803,4.5803,4.5803,4.5803,4.5803,4.5803,4.5817,4.5858,4.5903,4.5954,4.5944,4.6047,4.6099,4.61,4.6201,4.625,4.625,4.6289,4.6306,4.6305,4.6305,4.6304,4.6301,4.6299,4.6297,4.6297,4.6291,4.6306,4.6306,4.6302,4.6534,3.966,3.9977,4.0087,4.0076,3.8457,3.6338,3.4134,3.2463,3.0579,2.7869,2.8213,2.8695,2.7584,2.9208,3.0879,3.1344,3.374,3.6458,3.907,4.0389,4.1699,4.3321,4.3747,4.3942,4.4079,4.4872,4.577,4.6698,4.7497,4.7608,4.6791,4.6795,4.6717,4.6448,4.5892,4.5627,4.5636,4.504,4.4808,4.4895,4.4895,4.4895,4.4895,4.4895,4.4913,4.4955,4.4955,0.0,0.0,4.5248,4.5405,4.5641,4.5613,4.5681,4.5803,4.5803,4.5803,4.5803,4.5803,4.5803,4.5803,4.5803,4.5803,4.5803,4.5803,4.5803,4.5803,4.5803,4.5803,4.5803,4.5803,4.5803,4.5803,4.5803,4.5803,4.5803,4.5803,4.5803,4.5803,4.5803,4.5803,4.5803,4.5803,4.5803,4.5791,4.5827,4.5827,4.5841,4.5911,4.5985,4.6023,4.6037,4.6153,4.6214,4.6226,4.6268,4.63,4.63,4.6301,4.6301,4.63,4.63,4.63,4.6299,4.6293,4.6291,4.6291,4.6304,4.6301,4.6301,4.6495,4.6944,3.8903,3.9592,3.9968,3.9435,3.8083,3.6173,3.3429,3.1665,2.9978,2.7766,2.741,2.754,2.764,2.8651,3.0048,3.1816,3.3766,3.6172,3.9384,4.0573,4.1715,4.3389,4.4356,4.49,4.4965,4.5815,4.6709,4.7534,4.8333,4.8444,4.7627,4.7756,4.718,4.5656,4.5841,4.559,4.4818,4.4852,4.4883,4.4895,4.4895,4.4895,4.4895,4.4895,4.4991,4.517,4.517,4.5316,0.0,4.5424,4.5541,4.5778,4.5649,4.5681,4.5803,4.5803,4.5803,4.5803,4.5803,4.5803,4.5803,4.5803,4.5803,4.5803,4.5803,4.5803,4.5803,4.5803,4.5803,4.5803,4.5803,4.5803,4.5803,4.5803,4.5803,4.5803,4.5803,4.5803,4.5803,4.5803,4.5803,4.5803,4.5803,4.5803,4.5827,4.5873,4.588,4.5917,4.5983,4.6058,4.6112,4.6182,4.6249,4.6289,4.6288,4.6301,4.6294,4.6294,4.6299,4.63,4.6294,4.6294,4.6291,4.6303,4.6302,4.6302,4.6302,4.6301,4.6301,4.632,4.7119,4.7529,3.8442,3.9269,3.9508,3.9352,3.7854,3.5797,3.3363,3.145,2.9689,2.7908,2.7664,2.7804,2.7926,2.8445,2.9442,3.1186,3.2248,3.3972,3.7265,3.8452,3.9968,4.2576,4.374,4.4726,4.5722,4.6667,4.7553,4.837,4.8826,4.893,4.8613,4.8687,4.8506,4.804,4.7177,4.6601,4.6334,4.5382,4.4895,4.4895,4.4895,4.4895,4.4901,4.5033,4.5131,4.5203,4.5284,4.5434,0.0,4.5541,4.5633,4.578,4.5734,4.5745,4.5803,4.5803,4.5803,4.5803,4.5803,4.5803,4.5803,4.5803,4.5803,4.5803,4.5803,4.5803,4.5803,4.5803,4.5803,4.5803,4.5803,4.5803,4.5803,4.5803,4.5803,4.5803,4.5803,4.5803,4.5803,4.5803,4.5803,4.5803,4.5803,4.5803,4.5811,4.5899,4.5939,4.5976,4.6056,4.6124,4.6181,4.625,4.6288,4.6305,4.6296,4.6309,4.6306,4.6306,4.6309,4.6309,4.6306,4.6306,4.6304,4.6301,4.6301,4.6554,4.708,4.708,4.7334,4.7803,4.8154,4.8602,3.7367,3.8448,3.8864,3.8946,3.7425,3.5393,3.3342,3.146,2.9765,2.8447,2.8124,2.8208,2.8546,2.8606,2.9152,3.0841,3.1478,3.2896,3.6182,3.7404,3.8973,4.1759,4.2939,4.4183,4.5838,4.7259,4.8321,4.893,4.9113,4.9236,4.9332,4.9358,4.9224,4.8968,4.784,4.7065,4.6657,4.5483,4.4925,4.4998,4.4998,4.5009,4.5047,4.5194,4.5279,4.5311,4.5376,4.5497,0.0,4.5617,4.5677,4.5803,4.5803,4.5803,4.5803,4.5803,4.5803,4.5803,4.5803,4.5803,4.5803,4.5803,4.5803,4.5803,4.5803,4.5803,4.5803,4.5803,4.5803,4.5803,4.5803,4.5803,4.5803,4.5803,4.5803,4.5803,4.5803,4.5803,4.5803,4.5803,4.5803,4.5803,4.5803,4.5803,4.5828,4.5922,4.5969,4.6031,4.6145,4.6203,4.625,4.6284,4.6302,4.6298,4.6302,4.6301,4.6301,4.6301,4.6301,4.6301,4.6301,4.6301,4.6301,4.6301,4.6554,4.6983,4.7607,4.7841,4.8251,4.8818,4.9052,4.9656,3.547,3.6894,3.8002,3.793,3.6706,3.5023,3.3199,3.1609,3.0272,2.9448,2.8644,2.8448,2.9562,2.9132,2.9209,3.1096,3.2063,3.3727,3.7033,3.8239,3.9426,4.11,4.2139,4.3391,4.5138,4.7478,4.8968,4.9179,4.9205,0.0,4.9678,4.9692,4.893,4.7282,4.7337,4.6601,4.4933,4.4914,4.4991,4.5192,4.5192,4.5264,4.5381,4.54,4.5465,4.5588,4.5452,4.555,0.0,4.5653,4.5677,4.5803,4.5803,4.5803,4.5803,4.5803,4.5803,4.5803,4.5803,4.5803,4.5803,4.5803,4.5803,4.5803,4.5803,4.5803,4.5803,4.5803,4.5803,4.5803,4.5803,4.5803,4.5803,4.5803,4.5803,4.5803,4.5803,4.5803,4.5803,4.5803,4.5803,4.5803,4.5803,4.5803,4.5851,4.5987,4.599,4.6077,4.6269,4.6307,4.6303,4.6304,4.6301,4.6301,4.6301,4.6301,4.6301,4.6301,4.6301,4.6301,4.6301,4.6301,4.6301,4.6301,4.7158,4.7587,4.7607,4.8408,4.8798,4.8818,4.9676,5.0554,3.3267,3.4589,3.5297,3.482,3.4125,3.3165,3.1532,3.0528,2.9744,2.8978,2.8758,2.8828,2.9186,2.9058,2.9619,3.1861,3.2424,3.3575,3.6356,3.7981,3.9704,4.1995,4.5039,4.7148,4.772,4.8444,4.8986,4.9179,4.9273,4.9449,4.9685,4.98,4.9344,4.8259,4.768,4.6891,4.5805,4.533,4.5142,4.5197,4.5295,4.5356,4.541,4.5493,4.5563,4.5605,4.5653,4.5719,0.0,4.5745,4.5752,4.5803,4.5803,4.5803,4.5803,4.5803,4.5803,4.5803,4.5803,4.5803,4.5803,4.5803,4.5803,4.5803,4.5803,4.5803,4.5803,4.5803,4.5803,4.5803,4.5803,4.5803,4.5803,4.5803,4.5803,4.5803,4.5803,4.5803,4.5803,4.5803,4.5844,4.5877,4.5877,4.5908,4.5965,4.6061,4.6104,4.6181,4.6288,4.63,4.6309,4.6302,4.6301,4.6301,4.6301,4.6301,4.6301,4.6301,4.6301,4.6301,4.6301,4.6301,4.6301,4.6301,4.7158,4.786,4.8427,4.9266,4.9988,5.0575,5.0866,5.114,3.1159,3.2675,3.3509,3.3291,3.2834,3.2135,3.1038,3.0321,2.9768,2.9301,2.9107,2.9097,2.939,2.9445,3.0044,3.1893,3.2726,3.391,3.6132,3.7876,3.9878,4.2432,4.5856,4.7999,4.7999,4.8537,4.8993,4.926,4.9352,4.9506,4.9752,4.9857,4.9374,4.8256,4.7687,4.6866,4.571,4.5299,4.5145,4.5274,4.5356,4.5447,4.5554,4.5637,4.5673,4.5677,4.5708,0.0,0.0,4.5757,4.5745,4.5803,4.5803,4.5803,4.5803,4.5803,4.5803,4.5803,4.5803,4.5803,4.5803,4.5803,4.5803,4.5803,4.5803,4.5803,4.5803,4.5803,4.5803,4.5803,4.5803,4.5803,4.5803,4.5803,4.5803,4.5803,4.5803,4.5803,4.5803,4.5803,4.5845,4.5901,4.5936,4.5973,4.602,4.6126,4.618,4.6211,4.6283,4.6291,4.6301,4.6301,4.6301,4.6301,4.6301,4.6301,4.6301,4.6301,4.6301,4.6301,4.6301,4.6301,4.6456,4.6788,4.7626,4.8466,4.9285,5.0164,5.0866,5.1394,5.1394,5.1394,0.0,3.0955,3.2314,3.2778,3.2322,3.1682,3.1315,3.065,0.0,3.0112,2.9525,2.9262,3.013,3.0246,3.0546,3.1593,3.3079,3.4671,3.6355,3.8194,4.0281,4.2771,4.5194,4.6643,4.6587,4.7951,4.894,4.9215,4.9246,4.9416,4.9797,4.981,4.909,4.7536,4.7498,4.6695,4.5009,4.5059,4.5234,4.5482,4.5491,4.5607,4.5803,4.5803,4.5803,0.0,0.0,0.0,0.0,4.5665,4.5685,4.5803,4.5803,4.5803,4.5803,4.5803,4.5803,4.5803,4.5803,4.5803,4.5803,4.5803,4.5803,4.5803,4.5803,4.5803,4.5803,4.5803,4.5803,4.5803,4.5803,4.5803,4.5803,4.5803,4.5803,4.5803,4.5803,4.5803,4.5807,4.581,4.5858,4.5936,4.5998,4.6019,4.6057,4.6187,4.621,4.623,4.6286,4.6301,4.6301,4.6301,4.6301,4.6301,4.6301,4.6301,4.6301,4.6301,4.6301,4.6301,4.6301,4.6301,4.671,4.7587,4.8447,4.9324,5.0182,5.1003,5.1394,5.1394,5.1394,5.1394,2.622,0.0,2.9212,2.8868,2.9246,2.968,0.0,2.9427,2.928,2.928,2.9133,2.9427,3.0858,3.0613,3.1109,3.3881,3.4656,3.5521,3.7248,4.0563,4.3525,4.5417,4.7237,4.8091,4.7478,4.7856,4.7981,4.759,4.7659,4.8091,4.8932,4.8976,4.8806,4.8408,4.8389,4.7593,4.5906,4.666,4.68,4.6316,4.6473,4.6289,4.5803,4.5803,4.5803,4.5803,0.0,0.0,4.5803,4.5775,4.5763,4.5803,4.5803,4.5803,4.5803,4.5803,4.5803,4.5803,4.5803,4.5803,4.5803,4.5803,4.5803,4.5803,4.5803,4.5803,4.5803,4.5803,4.5803,4.5803,4.5803,4.5803,4.5803,4.5803,4.5803,4.5803,4.5803,4.5803,4.5821,4.5877,4.5936,4.6009,4.6056,4.616,4.6248,4.6269,4.6283,4.6272,4.6302,4.6301,4.6301,4.6301,4.6301,4.6301,4.6301,4.6301,4.6301,4.6301,4.6301,4.6301,4.6301,4.6301,4.671,4.7587,4.9032,5.0222,5.1081,5.1297,5.1394,5.1394,5.1394,5.1394,2.4782,2.6664,2.8536,2.8221,2.8857,2.9543,2.9543,2.9262,2.8999,2.8999,2.8999,2.9372,3.0613,3.1127,3.2084,3.4321,3.564,3.713,3.9247,4.2459,4.4934,4.5852,4.7367,4.807,4.7307,4.7303,4.7292,4.7092,4.7165,4.7471,4.8079,4.8104,4.8104,4.8104,4.8483,4.8066,4.6759,4.7301,4.7232,4.6603,4.6704,4.641,4.5803,4.5803,4.5803,0.0,0.0,0.0,4.5803,4.5803,4.5803,4.5803,4.5803,4.5803,4.5803,4.5803,4.5803,4.5803,4.5803,4.5803,4.5803,4.5803,4.5803,4.5803,4.5803,4.5803,4.5803,4.5803,4.5803,4.5803,4.5803,4.5803,4.5803,4.5803,4.5803,4.5803,4.5803,4.5811,4.5861,4.5939,4.5992,4.6061,4.6133,4.6227,4.6305,4.63,4.6309,4.6301,4.6301,4.6301,4.6301,4.6301,4.6301,4.6301,4.6301,4.6301,4.6475,4.6866,4.6905,4.7061,4.7432,4.7451,4.7861,4.8738,5.0027,5.0925,5.1394,5.1394,5.1394,5.1394,5.1394,5.1394,2.4469,2.6735,2.8944,2.8687,2.9415,3.0173,3.0038,2.9488,2.8999,2.8999,2.9097,2.9506,3.057,3.1937,3.3332,3.4639,3.6734,3.9075,4.1609,4.3883,4.535,4.548,4.6791,4.7396,4.6596,4.6542,4.6623,4.679,4.6831,4.6962,4.7207,4.7213,4.727,4.7403,4.8123,4.8218,4.7611,4.7725,4.7519,4.7001,4.6866,4.6509,4.5997,4.5861,4.5803,4.5803,0.0,0.0,4.5803,4.5803,4.5803,4.5803,4.5803,4.5803,4.5803,4.5803,4.5803,4.5803,4.5803,4.5803,4.5803,4.5803,4.5803,4.5803,4.5803,4.5803,4.5803,4.5803,4.5803,4.5803,4.5803,4.5803,4.5803,4.5803,4.5814,4.5821,4.5821,4.587,4.5933,4.5991,4.6079,4.615,4.6208,4.6269,4.6301,4.6304,4.6301,4.6301,4.6301,4.6301,4.6301,4.6301,4.6301,4.6301,4.6301,4.6301,4.6729,4.7724,4.7665,4.7958,4.8779,4.8935,4.9344,5.0085,5.0964,5.1394,5.1394,5.1394,5.1394,5.1394,5.1394,5.1394,2.5844,2.7592,2.8669,2.7299,2.8589,3.002,2.9335,2.9097,2.8999,2.8999,2.9537,3.0705,3.2998,3.3625,3.4783,3.7762,3.9224,4.084,4.3299,4.4581,4.5555,4.6234,4.7144,4.7173,4.582,4.5799,4.5637,4.5126,4.5193,4.5571,4.6342,4.638,4.6702,4.7384,4.7536,4.7896,4.8483,4.9185,4.927,4.8788,4.805,4.7408,4.6886,4.6132,4.5803,4.5803,0.0,4.5803,4.5803,4.5803,4.5803,4.5803,4.5803,4.5803,4.5803,4.5803,4.5803,4.5803,4.5803,4.5803,4.5803,4.5803,4.5803,4.5803,4.5803,4.5803,4.5803,4.5803,4.5803,4.5803,4.5803,4.5803,4.5803,4.5803,4.5832,4.5873,4.5873,4.5944,4.6,4.6065,4.6136,4.6208,4.6269,4.63,4.6305,4.6301,4.6301,4.6301,4.6301,4.6301,4.6301,4.6301,4.6301,4.6301,4.6301,4.6301,4.6963,4.8525,4.7978,4.7958,4.8779,4.952,4.9967,5.0104,5.0964,5.1394,5.1394,5.1394,5.1394,5.1394,5.1394,5.1394,2.5084,2.6796,2.8172,2.7438,2.9396,3.1396,3.1023,3.095,3.095,3.095,3.1598,3.2658,3.4336,3.5028,3.6327,3.9291,4.1215,4.2723,4.3838,4.5119,4.5918,4.5862,4.6241,4.6099,4.5061,4.508,4.5055,4.4827,4.4877,4.5066,4.5483,4.5501,4.588,4.674,4.6759,4.7157,4.7991,4.8351,4.8498,4.8387,4.7573,4.6872,4.6271,4.5949,4.5803,4.5803,0.0,4.5803,4.5803,4.5803,4.5803,4.5803,4.5803,4.5803,4.5803,4.5803,4.5803,4.5803,4.5803,4.5803,4.5803,4.5803,4.5803,4.5803,4.5803,4.5803,4.5803,4.5803,4.5803,4.5803,4.5803,4.5803,4.5814,4.5854,4.5886,4.5913,4.5954,4.6015,4.6065,4.614,4.6206,4.6269,4.6299,4.6308,4.6301,4.6301,4.6301,4.6301,4.6301,4.6301,4.6301,4.6301,4.6301,4.6495,4.6963,4.7002,4.753,4.872,4.9345,4.9812,5.0184,5.0593,5.0808,5.0808,5.1199,5.1394,5.1394,5.1394,5.1394,5.1394,5.1394,5.1394,2.4667,2.625,2.7884,2.827,3.0204,3.2142,3.2509,3.2473,3.245,3.2854,3.359,3.442,3.5366,3.6722,3.8359,4.0357,4.2556,4.4079,4.4283,4.5417,4.5992,4.5369,4.5387,4.5204,4.4562,4.4592,4.4712,4.4883,4.4895,4.4895,4.4895,4.4895,4.5217,4.5868,4.5906,4.6278,4.7119,4.6929,4.7099,4.769,4.6943,4.6359,4.5894,4.583,4.5803,4.5803,4.5803,4.5803,4.5803,4.5803,4.5803,4.5803,4.5803,4.5803,4.5803,4.5803,4.5803,4.5803,4.5803,4.5803,4.5803,4.5803,4.5803,4.5803,4.5803,4.5803,4.5803,4.5803,4.5817,4.5811,4.5811,4.5811,4.5848,4.5917,4.593,4.5938,4.6006,4.6093,4.616,4.6209,4.6269,4.63,4.6304,4.6301,4.6301,4.6301,4.6301,4.6301,4.6301,4.6475,4.6593,4.6593,4.6768,4.7159,4.7821,4.8075,4.8446,4.9072,5.0555,5.1394,5.1394,5.1394,5.1394,5.1394,5.1394,5.1394,5.1394,5.1394,5.1394,5.1394,5.1394,5.1394,2.602,2.7108,2.816,2.9659,3.021,3.0754,3.2259,3.2077,3.2023,3.3588,3.4599,3.5465,3.6345,3.9082,4.1286,4.1479,4.2909,4.4283,4.5082,4.5313,4.5369,4.5313,4.5303,4.5093,4.4548,4.4515,4.4619,4.4877,4.4895,4.4895,4.4895,4.4895,4.4933,4.499,4.499,4.5407,4.6285,4.5483,4.5966,4.7688,4.6948,4.6666,4.6784,4.612,4.5803,4.5803,4.5803,4.5803,4.5803,4.5803,4.5803,4.5803,4.5803,4.5803,4.5803,4.5803,4.5803,4.5803,4.5803,4.5803,4.5803,4.5803,4.5803,4.5803,4.5803,4.5803,4.5803,4.5803,4.5835,4.5883,4.5883,4.5883,4.592,4.598,4.5993,4.6014,4.6075,4.6194,4.6289,4.6288,4.6298,4.6302,4.6301,4.6301,4.6301,4.6301,4.6301,4.6301,4.6301,4.7002,4.7509,4.7509,4.8174,4.8642,4.8701,4.9461,4.9948,5.0007,5.0886,5.1394,5.1394,5.1394,5.1394,5.1394,5.1394,5.1394,5.1394,5.1394,5.1394,5.1394,5.1394,5.1394,2.4814,2.6791,2.8693,2.9304,3.0583,3.1996,3.3205,3.4422,3.5634,3.68,3.8146,3.9039,3.8863,4.0351,4.1597,4.1597,4.3392,4.4923,4.5249,4.5295,4.5295,4.5295,4.5001,4.4717,4.4512,4.4652,4.4783,4.4889,4.4895,4.4895,4.4895,4.4895,4.4895,4.4895,4.4895,4.5066,4.5388,4.5066,4.526,4.5965,4.5799,4.5764,4.584,4.5734,4.5673,4.5681,4.5756,4.5803,4.5803,4.5803,4.5803,4.5803,4.5803,4.5803,4.5803,4.5803,4.5803,4.5803,4.5803,4.5803,4.5803,4.5803,4.5803,4.5803,4.5803,4.5803,4.5803,4.5803,4.5858,4.588,4.5858,4.5908,4.5972,4.5994,4.6024,4.6086,4.6157,4.6227,4.6305,4.6296,4.6307,4.6301,4.6301,4.6301,4.6301,4.6301,4.6301,4.6495,4.7041,4.7392,4.7782,4.829,4.909,4.9617,4.9617,5.0417,5.0905,5.0905,5.1219,5.1394,5.1394,5.1394,5.1394,5.1394,5.1394,5.1394,5.1394,5.1394,5.1394,5.1394,5.1394,5.1394,2.436,2.6557,2.876,2.9273,3.1023,3.3028,3.4488,3.6074,3.7642,3.9017,4.0263,4.0985,4.0696,4.1163,4.169,4.195,4.3615,4.4886,4.4886,4.4886,4.4886,4.4886,4.4621,4.4458,4.4501,4.4693,4.4846,4.4889,4.4895,4.4895,4.4895,4.4895,4.4895,4.4895,4.4895,4.4895,4.4895,4.4895,4.4895,4.4895,4.5089,4.5197,4.5208,4.5475,4.56,4.5609,4.5734,4.5803,4.5803,4.5803,4.5803,4.5803,4.5803,4.5803,4.5803,4.5803,4.5803,4.5803,4.5803,4.5803,4.5803,4.5803,4.5803,4.5803,4.5803,4.5803,4.5803,4.5803,4.5854,4.5926,4.5858,4.5923,4.6012,4.6032,4.6075,4.6126,4.6205,4.6269,4.6299,4.6304,4.6301,4.6301,4.6301,4.6301,4.6398,4.6671,4.671,4.7022,4.786,4.8212,4.8719,4.952,5.0144,5.0515,5.0515,5.1062,5.1394,5.1394,5.1394,5.1394,5.1394,5.1394,5.1394,5.1394,5.1394,5.1394,5.1394,5.1394,5.1394,5.1394,5.1394,5.1394,2.5172,2.6586,2.8213,2.9894,3.1538,3.3425,3.6012,3.6559,3.7246,3.9726,4.0344,4.0668,4.1467,4.1616,4.1876,4.2667,4.3485,4.4005,4.4005,4.4005,4.4005,4.4005,4.4177,4.4351,4.4494,4.4619,4.477,4.4883,4.4895,4.4895,4.4895,4.4895,4.4895,4.4895,4.4895,4.4895,4.4895,4.4895,4.4895,4.492,4.5089,4.5197,4.5208,4.5475,4.56,4.5609,4.5734,4.5803,4.5803,4.5803,4.5803,4.5803,4.5803,4.5803,4.5803,4.5803,4.5803,4.5803,4.5803,4.5803,4.5803,4.5803,4.5803,4.5803,4.5803,4.5803,4.5803,4.5803,4.5905,4.5986,4.5926,4.5958,4.6015,4.6086,4.6101,4.6136,4.6269,4.6297,4.6301,4.6301,4.6301,4.6301,4.6301,4.6301,4.6593,4.747,4.7607,4.7899,4.8701,4.9578,5.0437,5.1316,5.1394,5.1394,5.1394,5.1394,5.1394,5.1394,5.1394,5.1394,5.1394,5.1394,5.1394,5.1394,5.1394,5.1394,5.1394,5.1394,5.1394,5.1394,5.1394,5.1394,2.5172,2.7445,2.9814,3.0887,3.3283,3.5734,3.713,3.834,3.9885,4.2354,4.2448,4.2166,4.2389,4.2445,4.2519,4.276,4.3485,4.4005,4.4005,4.4005,4.4051,4.4192,4.4351,4.4482,4.4626,4.4751,4.4852,4.4889,4.4895,4.4895,4.4895,4.4895,4.4895,4.4895,4.4895,4.4895,4.4895,4.4895,4.4961,4.5114,4.517,4.5197,4.5208,4.5475,4.56,4.5609,4.5734,4.5803,4.5803,4.5803,4.5803,4.5803,4.5803,4.5803,4.5803,4.5803,4.5803,4.5803,4.5803,4.5803,4.5803,4.5803,4.5803,4.5803,4.5803,4.5803,4.5803,4.5803,4.5838,4.5874,4.5883,4.5944,4.6017,4.6075,4.6168,4.625,4.6288,4.6297,4.6301,4.6301,4.6301,4.6301,4.6301,4.6301,4.6593,4.747,4.7607,4.8114,4.9539,5.0476,5.1101,5.1375,5.1394,5.1394,5.1394,5.1394,5.1394,5.1394,5.1394,5.1394,5.1394,5.1394,5.1394,5.1394,5.1394,5.1394,5.1394,5.1394,5.1394,5.1394,5.1394,5.1697,2.6507,2.8583,3.0787,3.2607,3.4571,3.6559,3.8419,3.9868,4.1416,4.3551,4.3355,4.289,4.3225,4.302,4.289,4.3225,4.367,4.4005,4.4005,4.4005,4.4044,4.4169,4.4361,4.4524,4.4612,4.4783,4.4895,4.4895,4.4895,4.4895,4.4895,4.4895,4.4895,4.4895,4.4895,4.4895,4.4895,4.4973,4.5085,4.5197,4.5315,4.5356,4.5361,4.5524,4.56,4.5609,4.5734,4.5803,4.5803,4.5803,4.5803,4.5803,4.5803,4.5803,4.5803,4.5803,4.5803,4.5803,4.5803,4.5803,4.5803,4.5803,4.5803,4.5803,4.5803,4.5803,4.5803,4.5803,4.5848,4.5899,4.5938,4.6007,4.6086,4.6093,4.6201,4.6306,4.6301,4.6291,4.6301,4.6301,4.6301,4.6301,4.6301,4.6593,4.71,4.7958,4.8661,4.9461,5.0495,5.1081,5.1394,5.1394,5.1394,5.1394,5.1394,5.1394,5.1394,5.1394,5.1394,5.1394,5.1394,5.1394,5.1394,5.1394,5.1394,5.1394,5.1394,5.1394,5.1394,5.1394,5.1404,5.184,2.8452,2.9791,3.1293,3.458,3.5563,3.6565,3.9688,4.0966,4.1943,4.3559,4.3373,4.3132,4.3875,4.3392,4.315,4.3875,4.4005,4.4005,4.4005,4.402,4.4028,4.4028,4.4325,4.4522,4.4522,4.4757,4.4895,4.4895,4.4895,4.4895,4.4895,4.4895,4.4895,4.4895,4.4913,4.4919,4.4919,4.5112,4.523,4.5246,4.5479,4.5609,4.5621,4.5621,4.5621,4.5625,4.576,4.5803,4.5803,4.5803,4.5803,4.5803,4.5803,4.5803,4.5803,4.5803,4.5803,4.5803,4.5803,4.5803,4.5803,4.5803,4.5803,4.5803,4.5803,4.5803,4.5803,4.5803,4.5883,4.5997,4.6007,4.6087,4.6181,4.6133,4.6209,4.6303,4.6306,4.6301,4.6301,4.6301,4.6301,4.6301,4.6301,4.7021,4.7899,4.8798,5.0321,5.1394,5.1394,5.1394,5.1394,5.1394,5.1394,5.1394,5.1394,5.1394,5.1394,5.1394,5.1394,5.1394,5.1394,5.1394,5.1394,5.1394,5.1394,5.1394,5.1394,5.1392,5.1391,5.139,5.1385,5.1855,2.7856,2.9765,3.2055,3.4723,3.6856,3.8679,4.0074,4.052,4.1114,4.2723,4.3429,4.3782,4.3968,4.3856,4.3801,4.3968,4.4005,4.4005,4.4005,4.4139,4.4248,4.4248,4.4489,4.4659,4.4659,4.4796,4.4895,4.4895,4.4895,4.4895,4.4895,4.4895,4.4895,4.4895,4.5043,4.5136,4.5136,4.527,4.5415,0.0,4.5575,4.5657,4.5768,4.5768,4.5768,4.5768,4.5793,4.5803,4.5803,4.5803,4.5803,4.5803,4.5803,4.5803,4.5803,4.5803,4.5803,4.5803,4.5803,4.5803,4.5803,4.5803,4.5803,4.5803,4.5803,4.5803,4.5803,4.5803,4.5867,4.5939,4.5987,4.6057,4.6137,4.6249,4.6284,4.6307,4.6302,4.6301,4.6301,4.6301,4.6301,4.6301,4.6301,4.7021,4.8114,4.9598,5.071,5.1394,5.1394,5.1394,5.1394,5.1394,5.1394,5.1394,5.1394,5.1394,5.1394,5.1394,5.1394,5.1394,5.1394,5.1394,5.1394,5.1394,5.1394,5.1394,5.1394,5.1395,5.1404,5.1403,5.1351,5.2111,2.8714,3.0696,3.3016,3.588,3.7855,3.9212,3.9658,4.0093,4.0631,4.1486,4.2593,4.354,4.3931,4.4005,4.4005,4.4005,4.4005,4.4005,4.4005,4.4169,4.43,4.43,4.4537,4.4705,4.4705,4.4815,4.4895,4.4895,4.4895,4.4895,4.4895,4.4895,4.4895,4.4895,4.4997,4.5108,4.5197,4.5326,4.5461,4.56,4.5665,4.5726,4.5803,4.5803,4.5803,4.5803,4.5803,4.5803,4.5803,4.5803,4.5803,4.5803,4.5803,4.5803,4.5803,4.5803,4.5803,4.5803,4.5803,4.5803,4.5803,4.5803,4.5803,4.5803,4.5803,4.5803,4.5803,4.5803,4.5861,4.5964,4.599,4.6069,4.6162,4.6289,4.6297,4.6301,4.6301,4.6301,4.6301,4.6301,4.6301,4.6301,4.6301,4.7334,4.8758,5.0476,5.1101,5.1394,5.1394,5.1394,5.1394,5.1394,5.1394,5.1394,5.1394,5.1394,5.1394,5.1394,5.1394,5.1394,5.1394,5.1394,5.1394,5.1394,5.1403,5.1396,5.1396,5.1367,5.1349,5.1349,5.1288,5.1935,2.9275,3.1494,3.3962,3.712,3.8488,3.9101,3.9101,3.9665,4.0223,4.0371,4.169,4.3002,4.367,4.3912,4.4005,4.4005,4.4005,4.4005,4.4005,4.4192,4.4322,4.43,4.4558,4.4731,4.4712,4.4815,4.4895,4.4895,4.4895,4.4895,4.4895,4.4895,4.4895,4.4895,4.4961,4.5066,4.5221,4.5395,4.5524,4.5637,4.576,4.5803,4.5803,4.5803,4.5803,4.5803,4.5803,4.5803,4.5803,4.5803,4.5803,4.5803,4.5803,4.5803,4.5803,4.5803,4.5803,4.5803,4.5803,4.5803,4.5803,4.5803,4.5803,4.5803,4.5803,4.5803,4.5803,4.5803,4.5898,4.6,4.6012,4.6129,4.6229,4.6287,4.6295,4.6301,4.6301,4.6301,4.6301,4.6301,4.6301,4.6398,4.6672,4.7881,4.9384,5.1141,5.1394,5.1394,5.1394,5.1394,5.1394,5.1394,5.1394,5.1394,5.1394,5.1394,5.1394,5.1394,5.1394,5.1394,5.1394,5.1394,5.1394,5.1394,5.1409,5.1394,5.1394,5.1312,5.1288,5.1286,5.124,5.1662,2.7019,3.0611,3.4668,3.725,3.8488,3.9101,3.9101,3.9194,3.9491,4.0241,4.169,4.2835,4.2946,4.3522,4.4005,4.4005,4.4005,4.4005,4.4005,4.4281,4.4437,4.4314,4.4634,4.4821,4.4718,4.4815,4.4895,4.4895,4.4895,4.4895,4.4895,4.4895,4.4895,4.4895,4.5191,4.5351,4.5371,4.5621,4.5768,4.5763,4.5796,4.5803,4.5803,4.5803,4.5803,4.5803,4.5803,4.5803,4.5803,4.5803,4.5803,4.5803,4.5803,4.5803,4.5803,4.5803,4.5803,4.5803,4.5803,4.5803,4.5803,4.5803,4.5803,4.5803,4.5803,4.5803,4.5803,4.5803,4.5906,4.6014,4.6069,4.6196,4.6287,4.6292,4.6303,4.6301,4.6301,4.6301,4.6301,4.6301,4.6301,4.6769,4.8213,4.8642,4.9384,5.1141,5.1394,5.1394,5.1394,5.1394,5.1394,5.1394,5.1394,5.1394,5.1394,5.1394,5.1394,5.1394,5.1394,5.1394,5.1394,5.1394,5.1394,5.1394,5.1409,5.1394,5.1394,5.1263,5.122,5.1218,5.1203,5.1641,2.8751,3.1524,3.424,3.7176,3.8179,3.8544,3.9008,3.9101,3.9212,3.9591,4.0613,4.1597,4.2036,4.2415,4.2649,4.2649,4.2724,4.2925,4.3387,4.3732,4.4096,4.4474,4.4757,4.487,4.4827,4.4877,4.4895,4.4895,4.4895,4.4895,4.4895,4.4895,4.4895,4.4895,4.5156,4.5316,4.5405,4.5592,4.5723,4.5803,4.5803,4.5803,4.5803,4.5803,4.5803,4.5803,4.5803,4.5803,4.5803,4.5803,4.5803,4.5803,4.5803,4.5803,4.5803,4.5803,4.5803,4.5803,4.5803,4.5803,4.5803,4.5803,4.5803,4.5803,4.5803,4.5803,4.5814,4.5854,4.5938,4.6011,4.6078,4.6204,4.6305,4.6306,4.6301,4.6301,4.6301,4.6301,4.6301,4.6301,4.6301,4.6828,4.8505,4.8798,4.9384,5.1141,5.1394,5.1394,5.1394,5.1394,5.1394,5.1394,5.1394,5.1394,5.1394,5.1394,5.1394,5.1394,5.1394,5.1394,5.1394,5.1394,5.1408,5.1394,5.1364,5.1346,5.1346,5.1254,5.12,5.12,5.1194,5.1394,2.9381,3.131,3.281,3.5894,3.7139,3.7807,3.8599,3.8952,3.9101,3.9101,3.9628,4.026,4.0854,4.1311,4.1605,4.1649,4.1723,4.2013,4.266,4.2984,4.3473,4.4309,4.4506,4.4687,4.4876,4.4895,4.4895,4.4895,4.4895,4.4895,4.4895,4.4895,4.4895,4.4895,4.5129,4.5305,4.5405,4.5567,4.57,4.5803,4.5803,4.5803,4.5803,4.5803,4.5803,4.5803,4.5803,4.5803,4.5803,4.5803,4.5803,4.5803,4.5803,4.5803,4.5803,4.5803,4.5803,4.5803,4.5803,4.5803,4.5803,4.5803,4.5803,4.5803,4.5803,4.5817,4.5851,4.5907,4.5978,4.6047,4.6105,4.621,4.6301,4.6305,4.6301,4.6301,4.6301,4.6301,4.6301,4.6301,4.6301,4.6768,4.8232,4.8662,4.9325,5.0847,5.1258,5.1394,5.1394,5.1394,5.1394,5.1394,5.1394,5.1394,5.1394,5.1394,5.1394,5.1394,5.1409,5.1408,5.1394,5.1409,5.1396,5.1394,5.1321,5.1294,5.1263,5.1214,5.1199,5.1199,5.1199,5.1199,2.6456,2.8342,3.0182,3.2643,3.5021,3.6971,3.7789,3.8544,3.9101,3.9101,3.9138,3.9175,3.9212,4.0531,4.1641,4.1759,4.1806,4.1861,4.2034,4.219,4.2599,4.3454,4.3673,4.4061,4.4838,4.4895,4.4895,4.4895,4.4895,4.4895,4.4895,4.4895,4.4895,4.4895,4.5223,4.5395,4.5405,4.5657,4.58,4.5803,4.5803,4.5803,4.5803,4.5803,4.5803,4.5803,4.5803,4.5803,4.5803,4.5803,4.5803,4.5803,4.5803,4.5803,4.5803,4.5803,4.5803,4.5803,4.5803,4.5803,4.5803,4.5803,4.5803,4.5803,4.5803,4.5835,4.5904,4.5973,4.6047,4.6108,4.6186,4.6247,4.6302,4.6301,4.6301,4.6301,4.6301,4.6301,4.6301,4.6301,4.6301,4.6593,4.7509,4.829,4.9111,5.0026,5.0866,5.1394,5.1394,5.1394,5.1394,5.1394,5.1394,5.1394,5.1394,5.1394,5.1394,5.1394,5.1392,5.1409,5.1393,5.1391,5.1396,5.1394,5.1321,5.1278,5.1213,5.1192,5.1199,5.1199,5.1199,5.1199,2.5457,2.6948,2.8505,3.1496,3.3293,3.4816,3.6693,3.7752,3.8476,3.899,3.9101,3.9129,3.9205,3.9729,4.0134,4.0188,4.0346,4.066,4.1268,4.1478,4.1877,4.2696,4.2832,4.3202,4.4042,4.4137,4.4345,4.4857,4.4895,4.4895,4.4895,4.4895,4.4955,4.5091,4.5291,4.5479,4.5657,4.5745,4.5803,4.5803,4.5803,4.5803,4.5803,4.5803,4.5803,4.5803,4.5803,4.5803,4.5803,4.5803,4.5803,4.5803,4.5803,4.5803,4.5803,4.5803,4.5803,4.5803,4.5803,4.5803,4.5803,4.5803,4.5803,4.5803,4.5803,4.5854,4.5919,4.598,4.6048,4.6133,4.625,4.6281,4.6301,4.6301,4.6301,4.6301,4.6301,4.6301,4.6301,4.6301,4.6301,4.6749,4.8135,4.8603,4.9286,5.071,5.1199,5.1394,5.1394,5.1394,5.1394,5.1394,5.1394,5.1394,5.1394,5.1394,5.1408,5.1391,5.1397,5.1399,5.139,5.14,5.1384,5.134,5.1261,5.1227,5.1208,5.1192,5.1199,5.1199,5.1199,5.1203,2.4334,2.5662,2.7227,3.0233,3.1608,3.2903,3.5671,3.6916,3.7733,3.8525,3.8915,3.9135,3.9212,3.9311,3.9389,3.9433,3.9574,3.9918,4.0539,4.0702,4.108,4.1895,4.2009,4.2331,4.3184,4.3259,4.3493,4.4017,4.4055,0.0,4.4478,4.4538,4.4801,4.5321,4.5429,4.5575,4.5803,4.5803,4.5803,4.5803,4.5803,4.5803,4.5803,4.5803,4.5803,4.5803,4.5803,4.5803,4.5803,4.5803,4.5803,4.5803,4.5803,4.5803,4.5803,4.5803,4.5803,4.5803,4.5803,4.5803,4.5803,4.5803,4.5803,4.5803,4.5803,4.5857,4.5954,4.6018,4.6104,4.6187,4.6286,4.6293,4.6301,4.6301,4.6301,4.6301,4.6301,4.6301,4.6301,4.6301,4.6301,4.6749,4.8154,4.8623,4.9286,5.0749,5.1219,5.1394,5.1394,5.1394,5.1394,5.1394,5.1394,5.1394,5.1394,5.1394,5.1404,5.1396,5.1383,5.1385,5.1394,5.1353,5.1314,5.13,5.1234,5.1201,5.1202,5.12,5.1199,5.1199,5.1199,5.1206,0.0,0.0,0.0,2.8677,2.9903,3.1348,3.4618,3.5968,3.6804,3.7659,3.8458,3.8996,3.9034,3.9249,3.9476,3.9644,3.9686,3.9745,3.9884,3.99,4.0203,4.1061,4.1156,4.1478,4.2293,4.2369,4.2369,4.2407,4.2407,4.2767,4.3625,4.3828,4.4403,4.5534,4.5585,4.5669,4.5803,4.5803,4.5803,4.5803,4.5803,4.5803,4.5803,4.5803,4.5803,4.5803,4.5803,4.5803,4.5803,4.5803,4.5803,4.5803,4.5803,4.5803,4.5803,4.5803,4.5803,4.5803,4.5803,4.5803,4.5803,4.5803,4.5803,4.5807,4.5807,4.5892,4.6006,4.6078,4.6199,4.6305,4.6307,4.6301,4.6301,4.6301,4.6301,4.6301,4.6301,4.6301,4.6301,4.6301,4.6301,4.6573,4.749,4.827,4.9091,5.0007,5.0866,5.1394,5.1394,5.1394,5.1394,5.1394,5.1394,5.1394,5.1394,5.1393,5.1403,5.1394,5.1342,5.1337,5.139,5.1261,5.1234,5.1296,5.1232,5.12,5.1199,5.1199,5.1199,5.1199,5.1205,5.1249,2.2274,0.0,0.0,0.0,0.0,0.0,3.1348,3.2574,3.372,3.5745,3.634,3.6706,3.7392,3.7567,3.7883,3.8701,3.9395,3.9867,3.9895,3.99,3.9995,4.0222,4.026,4.0582,4.1459,4.1535,4.1762,0.0,4.2407,4.2501,4.2748,4.3583,4.4225,4.4659,4.538,4.5752,4.5803,4.5803,4.5803,4.5803,4.5803,4.5803,4.5803,4.5803,4.5803,4.5803,4.5803,4.5803,4.5803,4.5803,4.5803,4.5803,4.5803,4.5803,4.5803,4.5803,4.5803,4.5803,4.5803,4.5803,4.5803,4.5803,4.5803,4.5814,4.5867,4.5924,4.6011,4.6082,4.6205,4.6305,4.6307,4.6301,4.6301,4.6301,4.6301,4.6301,4.6301,4.6301,4.6301,4.6301,4.6301,4.6768,4.8213,4.8642,4.9306,5.0808,5.1258,5.1394,5.1394,5.1394,5.1394,5.1394,5.1394,5.1394,5.1394,5.1399,5.1373,5.1339,5.1353,5.1342,5.1252,5.1278,5.1252,5.123,5.1216,5.1197,5.1199,5.1199,5.1199,5.1202,5.1247,5.1276,2.3033,2.4008,2.5355,2.6874,0.0,0.0,3.0456,3.1199,3.1998,3.4445,3.525,3.5777,3.6659,3.6913,3.7189,3.7809,3.8753,3.9526,3.9843,3.99,3.99,3.99,3.99,4.0108,4.0607,4.0663,4.0853,4.1321,4.1359,4.155,4.1955,4.3015,4.3828,4.4321,4.4969,4.5455,4.5803,4.5803,4.5803,4.5803,4.5803,4.5803,4.5803,4.5803,4.5803,4.5803,4.5803,4.5803,4.5803,4.5803,4.5803,4.5803,4.5803,4.5803,4.5803,4.5803,4.5803,4.5803,4.5803,4.5803,4.5803,4.5803,4.5803,4.5827,4.5919,4.5983,4.6066,4.6128,4.6211,4.6297,4.6304,4.6301,4.6301,4.6301,4.6301,4.6301,4.6301,4.6301,4.6301,4.6301,4.6301,4.6828,4.8505,4.8798,4.9384,5.1141,5.1394,5.1394,5.1394,5.1394,5.1394,5.1394,5.1394,5.1394,5.1394,5.1391,5.1361,5.1302,5.134,5.1306,5.1193,5.1236,5.1239,5.1211,5.1192,5.1199,5.1199,5.1199,5.1199,5.1202,5.1235,5.1263,2.4638,2.5294,2.6493,2.8608,2.8138,0.0,3.0623,3.0772,3.092,3.3088,3.4147,3.4952,3.5857,3.6228,3.6443,3.6642,3.7618,3.8685,3.9635,3.9843,3.99,3.99,3.99,3.99,3.99,3.99,3.99,3.99,3.99,4.0308,4.1211,4.2206,4.318,4.4091,4.4332,4.4852,4.5668,4.5668,4.5707,4.5803,4.5803,4.5803,4.5803,4.5803,4.5803,4.5803,4.5803,4.5803,4.5803,4.5803,4.5803,4.5803,4.5803,4.5803,4.5803,4.5803,4.5803,4.5803,4.5803,4.5803,4.5803,4.5803,4.5817,4.5848,4.5954,4.6052,4.6133,4.6188,4.6245,4.6301,4.6301,4.6301,4.6301,4.6301,4.6301,4.6301,4.6301,4.6301,4.6301,4.6301,4.6301,4.6828,4.8505,4.8798,4.9384,5.1141,5.1394,5.1394,5.1394,5.1394,5.1394,5.1394,5.1394,5.1393,5.139,5.1387,5.1354,5.1294,5.1292,5.1252,5.1203,5.1206,5.1206,5.1201,5.1209,5.1199,5.1199,5.1199,5.1199,5.1202,5.1202,5.1236,2.5492,2.6644,2.7805,2.747,2.8156,0.0,2.8021,2.8244,2.8728,2.9192,2.9434,3.001,3.1515,3.1838,3.232,3.3732,3.5267,3.6912,3.8691,3.9489,3.99,3.99,3.99,3.99,3.99,3.99,3.99,3.99,3.99,4.0037,4.0344,4.1307,4.1985,4.2302,4.3111,4.3978,4.4829,4.4829,4.5162,4.5803,4.5803,4.5803,4.5803,4.5803,4.5803,4.5803,4.5803,4.5803,4.5803,4.5803,4.5803,4.5803,4.5803,4.5803,4.5803,4.5803,4.5803,4.5803,4.5803,4.5803,4.5803,4.5803,4.5863,4.5976,4.5981,4.6072,4.6189,4.6262,4.6288,4.6301,4.6301,4.6301,4.6301,4.6301,4.6301,4.6301,4.6301,4.6301,4.6301,4.6301,4.6301,4.6828,4.8505,4.8798,4.9384,5.1141,5.1394,5.1394,5.1394,5.1394,5.1394,5.1394,5.1394,5.1407,5.1404,5.1353,5.1294,5.1227,5.1225,5.1201,5.12,5.1205,5.1207,5.12,5.1205,5.1199,5.1199,5.1199,5.1199,5.1202,5.1202,5.1236,2.7315,2.7785,2.8468,2.8778,2.8808,0.0,0.0,2.8096,2.7966,2.9619,2.8969,2.8728,3.0827,3.0937,3.0987,3.1853,3.3778,3.5375,3.6012,3.8245,3.9804,3.9804,3.9867,3.99,3.99,3.99,3.99,3.99,3.99,3.9956,4.0091,4.0632,4.1216,4.1778,4.2358,4.3073,4.394,4.4384,4.4791,4.52,4.561,4.5803,4.5803,4.5803,4.5803,4.5803,4.5803,4.5803,4.5803,4.5803,4.5803,4.5803,4.5803,4.5803,4.5803,4.5803,4.5803,4.5803,4.5803,4.5803,4.5801,4.5889,4.5944,4.6009,4.6085,4.6165,4.6264,4.6287,4.6301,4.6301,4.6301,4.6301,4.6301,4.6301,4.6301,4.6301,4.6301,4.6301,4.6301,4.6301,4.6301,4.669,4.7978,4.8525,4.9247,5.0554,5.112,5.1394,5.1394,5.1394,5.1394,5.1394,5.1403,5.139,5.1396,5.1304,5.1245,5.1245,5.1223,5.1196,5.1208,5.1196,5.1202,5.1202,5.1199,5.1199,5.1199,5.1199,5.1199,5.1202,5.1202,5.1236,2.9596,2.945,2.9673,3.0626,2.9967,2.9301,0.0,0.0,0.0,3.0381,2.9266,2.8523,3.0697,3.0522,3.0109,3.0258,3.228,3.3625,3.3031,3.6257,0.0,3.8992,3.9247,3.9467,3.9654,3.9521,3.954,3.9881,3.9629,3.9651,4.0072,4.0253,4.0718,4.1528,4.1682,4.2183,4.3034,4.3746,4.4172,4.4365,4.5181,4.5571,4.5571,4.5726,4.5803,4.5803,4.5803,4.5803,4.5803,4.5803,4.5803,4.5803,4.5803,4.5803,4.5803,4.5803,4.5824,4.5848,4.5848,4.5845,4.5869,4.5976,4.6028,4.6063,4.6185,4.6264,4.6301,4.6301,4.6301,4.6301,4.6301,4.6301,4.6301,4.6301,4.6301,4.6301,4.6301,4.6301,4.6301,4.6301,4.6436,4.6827,4.7685,4.8369,4.915,5.0183,5.0944,5.1394,5.1394,5.1394,5.1394,5.1394,5.1392,5.1391,5.1385,5.1288,5.1236,5.1284,5.1232,5.1208,5.1208,5.1198,5.1192,5.1202,5.1199,5.1199,5.1199,5.1199,5.1199,5.1202,5.1202,5.1236,3.2047,3.261,3.2911,3.1442,3.1893,3.2009,2.9265,0.0,2.8807,2.7692,0.0,2.7334,2.8337,0.0,0.0,2.8283,2.9898,3.103,3.0948,3.3271,3.5401,3.6474,3.7194,3.7921,3.8755,3.8135,3.83,3.9786,3.8636,3.8523,4.0019,4.0338,4.0531,4.0642,4.0835,4.1335,4.2144,4.2241,4.2686,4.3456,4.4326,4.4733,4.4752,4.5474,4.5803,4.5803,4.5803,4.5803,4.5803,4.5803,4.5803,4.5803,4.5803,4.5803,4.5803,4.5803,4.5886,4.598,4.598,4.6025,4.6078,4.6086,4.6128,4.6188,4.6261,4.6285,4.6301,4.6301,4.6301,4.6301,4.6301,4.6301,4.6301,4.6301,4.6301,4.6301,4.6301,4.6301,4.6301,4.6301,4.6924,4.7704,4.8525,4.874,4.9364,5.1004,5.1336,5.1394,5.1394,5.1394,5.1394,5.1394,5.1392,5.1382,5.1329,5.1298,5.1278,5.1201,5.1193,5.1208,5.1208,5.12,5.1208,5.1199,5.1199,5.1199,5.1199,5.1199,5.1199,5.1202,5.1202,5.1236,3.272,3.2947,3.3001,3.2183,3.1992,3.167,3.0287,2.9372,2.8891,2.9129,0.0,0.0,0.0,0.0,0.0,0.0,2.8393,2.9008,2.8631,3.0253,3.2398,3.4857,0.0,0.0,3.7163,3.6922,3.7222,3.8474,3.7966,3.8199,3.955,4.0181,4.0559,4.0668,4.0752,4.0968,4.1296,4.1777,4.2183,4.257,4.394,4.4597,4.4636,4.5436,4.5803,4.5803,4.5803,4.5803,4.5803,4.5803,4.5803,4.5803,4.5803,4.5803,4.5814,4.5896,4.5958,4.6012,4.6046,4.6089,4.6107,4.6159,4.6209,4.6261,4.6286,4.6301,4.6301,4.6301,4.6301,4.6301,4.6301,4.6301,4.6301,4.6301,4.6301,4.6301,4.6301,4.6301,4.6301,4.6301,4.6593,4.712,4.7958,4.8914,4.9793,5.0535,5.1081,5.1394,5.1394,5.1394,5.1394,5.1394,5.1376,5.1337,5.13,5.1256,5.1232,5.1191,5.1208,5.1196,5.12,5.1194,5.1199,5.1199,5.1199,5.1199,5.1199,5.1199,5.1199,5.1202,5.1235,5.1263,3.3599,3.3548,3.3332,3.2804,3.2119,3.1409,3.0937,2.9942,2.9416,3.0358,2.9214,0.0,0.0,0.0,2.7238,2.7014,0.0,2.7605,2.7107,2.8001,2.9817,3.2764,0.0,0.0,0.0,3.5311,3.577,3.711,0.0,3.7428,3.9146,3.987,4.0403,4.0794,4.0797,4.0797,4.0797,4.1374,4.1661,4.168,4.3189,4.4017,4.4268,4.5104,4.5591,4.5803,4.5803,4.5803,4.5803,4.5803,4.5803,4.5803,4.5803,4.5831,4.5877,4.5969,4.602,4.6041,4.6105,4.6145,4.6167,4.6209,4.6263,4.6301,4.6301,4.6301,4.6301,4.6301,4.6301,4.6301,4.6301,4.6301,4.6301,4.6301,4.6301,4.6301,4.6301,4.6301,4.6301,4.6301,4.6495,4.6866,4.749,4.8601,4.9499,4.9715,5.0495,5.1042,5.1042,5.1258,5.1394,5.1394,5.1345,5.1304,5.1335,5.1278,5.123,5.123,5.1218,5.1205,5.1202,5.1199,5.1199,5.1199,5.1199,5.1199,5.1199,5.1199,5.1208,5.1209,5.1263,5.13,0.0,0.0,0.0,3.3308,0.0,0.0,0.0,0.0,3.0819,0.0,3.0473,3.0734,3.0014,2.904,2.8091,2.7315,2.7041,0.0,0.0,2.6948,2.768,2.9626,3.2034,0.0,0.0,3.306,3.3699,0.0,3.5044,0.0,3.8929,3.9372,3.9923,4.0774,4.0797,4.0797,4.0797,4.0835,4.0832,4.0852,4.168,4.2531,4.3359,4.4249,4.5065,4.5803,4.5803,4.5803,4.5803,4.5803,4.5803,4.5803,4.5803,4.589,4.5994,4.5999,4.6043,4.611,4.6179,4.6249,4.6296,4.6295,4.6308,4.6301,4.6301,4.6301,4.6301,4.6301,4.6301,4.6301,4.6301,4.6301,4.6301,4.6301,4.6301,4.6301,4.6301,4.6301,4.6301,4.6301,4.6983,4.7568,4.7607,4.7646,4.7938,4.872,4.9578,5.0143,5.0143,5.0886,5.1394,5.1394,5.1345,5.1335,5.139,5.134,5.1298,5.1298,5.1236,5.1205,5.1202,5.1199,5.1199,5.1199,5.1199,5.1199,5.1199,5.1199,5.1192,5.1208,5.1278,5.13,0.0,0.0,3.6754,3.5042,0.0,0.0,0.0,0.0,0.0,0.0,0.0,3.0846,3.005,2.919,2.8507,2.8246,2.7197,2.6445,0.0,2.6403,2.6618,2.7243,2.9527,3.1296,3.1924,0.0,0.0,0.0,3.4465,0.0,0.0,3.8826,3.9636,3.9926,4.0507,4.0797,4.0797,4.0797,4.0797,4.0813,4.1625,4.2144,4.2492,4.394,4.4752,4.5045,4.5571,4.5803,4.5803,4.5803,4.5803,4.5814,4.5908,4.5967,4.601,4.6057,4.6109,4.6171,4.6248,4.6284,4.6305,4.6305,4.6303,4.6301,4.6301,4.6301,4.6301,4.6301,4.6301,4.6301,4.6301,4.6301,4.6301,4.6301,4.6301,4.6301,4.6301,4.6301,4.6301,4.6301,4.6534,4.6749,4.6749,4.6749,4.7217,4.8584,4.9539,5.0104,5.0104,5.0866,5.1408,5.1391,5.1372,5.1353,5.134,5.1263,5.1234,5.1234,5.1205,5.1203,5.1202,5.1199,5.1199,5.1199,5.1199,5.1199,5.1199,5.1199,5.1192,5.1195,5.1265,5.1314,3.7877,3.8031,0.0,3.6314,3.5547,0.0,3.2624,0.0,3.2091,0.0,0.0,0.0,3.1012,2.9992,2.9095,2.8817,2.7557,2.642,0.0,2.594,2.6093,2.6093,2.8077,2.9677,3.028,3.0525,3.1494,3.3515,3.347,3.438,0.0,0.0,3.9188,3.9481,4.0352,4.0797,4.0797,4.0797,4.0797,4.0816,4.1335,4.1719,4.2048,4.3476,4.4307,4.4636,4.5455,4.5803,4.5803,4.5803,4.5801,4.5858,4.5956,4.6029,4.6082,4.6118,4.6174,4.6246,4.6286,4.6292,4.6301,4.6301,4.6301,4.6301,4.6301,4.6301,4.6301,4.6301,4.6301,4.6301,4.6301,4.6301,4.6301,4.6301,4.6301,4.6301,4.6301,4.6301,4.6301,4.6301,4.6301,4.6301,4.6301,4.6301,4.6672,4.7744,4.8895,4.9637,4.9637,5.0665,5.1395,5.1396,5.1384,5.1348,5.1302,5.1254,5.1227,5.1191,5.1195,5.1199,5.1199,5.1199,5.1199,5.1199,5.1199,5.1199,5.1199,5.1199,5.1203,5.1246,5.1274,5.1348]}]]